GFSCGP_con_mlcape_000.txt.gz
CAPE
0 0 0 0 0 0 0 11 23 19 128 207 152 121 190 650 529 457 642 750 606 424 525 727 967 1088 1122 1278 1587 1783 1635 1705 1994 1807 1083 1142 1003 1139 1159 1153 1895 1709 1610 1542
0 0 0 0 0 0 0 0 16 56 108 115 89 117 143 211 580 393 400 672 883 639 527 842 1070 1027 1057 1342 1691 1942 1993 1914 2040 1592 1385 1142 1155 1142 1309 1479 1601 1770 1705 1713
0 0 0 0 0 0 0 0 6 62 110 124 80 101 59 50 346 432 365 333 703 797 629 684 836 990 1039 1230 1714 1958 2192 2265 2232 1425 1482 1840 1652 1630 1563 1558 1837 2155 2170 2100
0 0 0 0 0 0 0 0 1 36 62 54 89 41 18 48 218 354 491 384 276 730 764 769 719 886 979 1105 1463 1957 2357 2564 2419 2117 1679 1709 1562 1111 807 1062 976 1664 2242 2026
0 0 0 0 0 0 0 0 0 0 53 66 105 60 18 24 34 173 440 502 263 140 545 714 761 655 939 1042 1285 1685 2302 2593 2592 2315 2368 2166 2053 1124 896 1011 1520 1759 1713 1985
0 0 0 0 0 0 0 0 0 0 12 32 51 38 0 1 2 11 121 362 416 133 129 447 577 570 741 922 1132 1368 1941 2580 2746 2749 2722 2570 1947 1628 915 1353 1067 638 691 1166
0 0 0 0 0 0 0 0 0 0 4 13 30 21 0 0 0 0 0 68 418 244 93 198 430 567 737 873 1028 1301 1677 2280 2597 2657 2547 2652 2567 2330 1998 1869 1176 441 376 437
0 0 0 0 0 0 0 0 0 0 1 2 0 0 0 0 0 0 0 16 200 372 113 120 292 471 736 858 1031 1281 1532 2128 2458 2480 2600 2784 2780 2537 2292 2114 1243 772 396 164
0 0 0 0 0 0 0 0 0 2 7 0 0 0 0 0 0 0 6 45 93 299 235 95 232 420 624 832 1103 1427 1788 2099 2253 2286 2535 2771 2875 2680 1929 1785 2080 1267 911 243
0 0 0 0 0 0 0 0 0 0 0 1 0 0 0 0 0 0 1 52 112 241 300 125 184 325 535 802 1021 1402 1725 2019 2174 2151 2323 2421 2558 2738 2527 2344 2167 1347 1298 954
0 0 0 0 0 0 0 0 0 0 0 0 0 0 0 0 0 0 0 48 92 173 399 338 194 249 573 663 840 1269 1695 1959 2171 2186 2229 2185 2155 2305 2642 2539 2826 2470 1744 895
0 0 0 0 0 0 0 0 0 0 0 0 0 0 0 0 0 0 0 0 0 107 356 519 462 444 501 759 712 952 1331 1775 2080 2162 2394 2240 2143 2151 2415 2700 2545 1715 1247 418
0 0 0 0 0 0 0 0 0 0 0 0 0 0 0 0 0 0 0 16 39 203 417 649 690 743 788 799 1016 1080 1460 1673 1859 2125 2300 2225 2087 2226 2275 2355 1404 981 364 0
0 0 0 0 0 0 0 0 0 0 0 0 0 2 0 0 0 0 0 0 73 347 476 765 787 969 1074 1086 1428 1561 1508 1727 1922 2014 2336 2396 2227 2146 2248 1595 401 199 0 0
5 0 7 0 0 0 0 0 0 0 0 0 0 0 0 0 0 0 0 0 76 374 356 790 994 1323 1585 1522 1637 1793 1847 1882 1950 2149 2244 2473 2458 2233 1556 871 317 67 0 0
0 5 5 8 1 0 0 0 0 0 0 0 0 0 0 0 0 0 0 0 79 522 338 890 1188 1416 1757 1788 1927 2037 2089 1992 2137 2282 2404 2426 2505 1825 875 604 395 100 0 0
0 27 95 41 64 25 5 0 0 0 0 0 0 0 0 0 0 0 0 18 84 449 354 697 1072 1361 1808 1926 2143 2136 2132 2094 2148 2343 2436 2594 2306 1507 752 568 499 300 3 0
0 143 131 76 132 100 0 0 0 0 0 0 0 0 0 0 0 0 26 13 104 554 737 815 962 1322 1537 1551 1676 1664 1845 1957 2119 2375 2429 2475 1963 1334 968 648 659 336 46 0
0 13 95 49 94 62 2 112 3 0 0 0 0 0 0 0 0 36 43 29 234 671 978 1008 983 1202 1272 1058 1274 1347 1539 1768 2001 2192 2253 1991 1622 1190 928 824 661 606 175 61
7 1 56 110 73 30 350 189 126 160 1 0 0 0 0 0 0 0 110 14 94 473 663 780 703 944 889 785 968 1229 1425 1761 1984 2119 2102 1712 1406 1252 969 1015 874 550 575 357
42 64 3 93 110 122 248 135 289 134 6 0 0 10 16 12 179 281 174 282 452 706 815 827 740 604 706 809 1052 1175 1411 1607 1875 2109 1997 1503 1387 1560 1364 1138 806 778 650 425
105 79 30 95 129 74 71 304 400 363 220 298 263 314 296 272 451 545 567 697 758 645 540 449 663 967 1144 1173 1353 1364 1520 1992 2174 2198 1802 1548 1553 1459 1510 1041 743 535 494 592
114 53 76 56 52 40 1 170 368 440 472 424 387 337 342 306 376 440 439 448 454 410 405 539 912 1293 1575 1808 1822 1920 2543 2417 2288 1892 1642 1538 1398 1229 1200 950 636 578 533 579
258 221 187 160 62 0 1 25 79 208 264 213 246 199 225 210 212 250 330 477 705 873 758 748 836 968 1097 1521 1795 2208 1751 2043 2076 1679 1646 1385 1422 1172 894 847 807 855 837 747
101 141 149 82 2 0 0 0 0 7 59 121 155 160 182 397 540 524 739 803 833 950 931 843 933 1376 1499 1756 1849 1868 1773 1745 1733 1532 1446 1330 1047 989 1230 777 425 802 137 155
4 73 198 36 27 1 0 0 0 0 0 0 2 2 12 55 86 310 562 834 1181 1212 1308 1418 1503 1799 1960 1977 1934 1979 1778 1753 1689 1238 1288 1199 1180 1278 1161 611 69 0 0 0

GFSCGP_con_mlcape_006.txt.gz
CAPE
0 0 0 0 0 0 0 0 0 0 21 0 46 38 0 0 112 0 21 0 40 140 181 294 391 445 471 892 1227 1277 1267 1480 2210 2259 1666 1415 1221 1367 1128 1019 1071 1617 2058 1681
0 0 0 0 0 0 0 0 1 4 25 4 34 99 10 113 169 112 0 7 4 3 92 295 485 430 517 737 1002 1582 1554 1890 1646 1924 1834 1604 1431 1167 1402 1633 1640 1855 1739 1839
0 0 0 0 0 0 0 0 0 0 4 2 5 31 120 159 118 56 53 7 0 15 10 293 472 517 590 784 1158 1462 1944 2053 2095 1849 1900 1662 1388 1632 1338 1573 1635 2249 2009 1816
0 0 0 0 0 0 0 0 0 0 6 4 9 0 45 10 381 123 72 51 31 6 19 120 508 699 710 826 1129 1713 2095 2193 2550 1699 2088 1521 1404 1532 1146 1448 1258 1847 1796 1833
0 0 0 0 0 0 0 0 0 0 0 4 106 41 7 91 277 346 205 104 87 60 20 27 498 645 766 875 1387 1739 2324 2411 2676 2386 2143 1892 1581 1066 633 407 1197 1842 1786 1746
0 0 0 0 0 0 0 0 0 0 0 0 11 9 1 30 17 5 210 297 167 174 91 70 317 576 798 939 1532 1616 2562 2893 2807 2904 2020 2000 1401 1326 972 1285 1373 1690 1787 1717
0 0 0 0 0 0 0 0 0 0 0 0 3 18 11 19 16 3 0 49 307 313 221 158 244 684 928 1059 1344 1820 2391 2930 3040 3006 2701 1950 1942 1260 1427 1506 1651 1537 1045 1571
0 0 0 0 0 0 0 0 0 0 0 0 0 0 22 53 18 15 1 0 209 430 393 282 442 612 1017 1073 1296 1735 2412 2821 3323 3008 3030 2573 1938 1940 1661 1913 1282 1549 676 592
0 0 0 0 0 0 0 0 0 0 0 0 1 9 2 8 84 0 0 9 41 365 477 379 536 732 1026 1128 1257 1654 2437 3039 3489 3415 3372 3181 2571 2324 2018 1957 1843 1549 952 1084
0 0 0 0 0 0 0 0 0 0 0 0 0 0 19 9 68 8 0 0 5 34 486 558 472 961 1093 1245 1255 1750 2045 3053 3680 3532 3530 3427 3312 2598 2349 1783 1873 1362 1639 868
0 0 0 0 0 0 0 0 0 0 0 0 0 0 23 95 28 101 23 2 0 0 309 372 615 666 1162 1412 1406 1636 1964 2819 3458 3641 3415 3423 3402 3211 2497 3088 2639 1896 1696 1189
0 0 0 0 0 0 0 0 0 0 0 0 0 0 0 8 68 16 5 0 0 2 33 151 654 620 929 1207 1339 1610 2017 2527 3115 3353 3317 3362 3397 3455 3218 2545 3057 2371 2564 1715
0 0 0 0 0 0 0 0 0 0 0 0 0 0 0 1 0 6 0 1 8 0 108 140 532 680 756 924 1120 1451 1819 2269 3052 3173 3154 3214 3302 3409 3306 3116 2661 2936 2523 2093
0 0 0 0 0 0 0 0 0 0 0 0 0 0 0 47 0 0 5 3 13 0 295 271 363 816 703 877 1026 1300 1660 1983 2538 2931 2968 3030 3009 3125 3064 3197 3107 2812 2795 2417
0 0 0 0 0 0 0 0 0 0 0 0 0 0 7 0 35 12 0 0 4 9 226 161 510 631 898 988 1083 1123 1238 1479 1720 2480 2963 3029 3203 3099 3093 3031 3135 3065 3173 3052
0 0 0 0 0 0 0 0 0 0 0 0 0 0 0 0 0 81 1 0 2 0 0 454 312 780 1359 1216 1208 1138 1060 1249 1428 1840 2499 2813 3129 3375 3225 3097 3211 3222 3399 3083
0 0 0 0 0 0 0 0 0 0 0 0 0 0 0 0 6 80 171 8 19 8 0 3 784 933 1327 1819 1367 1223 1161 1340 1331 1796 2366 2511 3007 3488 3345 3261 3220 3420 3247 2700
17 0 0 0 1 6 0 0 0 0 0 0 0 0 0 0 0 0 0 0 6 44 0 0 0 1135 1502 2108 1842 1668 1550 1508 1528 2322 2499 2755 3250 3637 3486 3353 3271 3383 2879 2344
3 7 0 11 41 0 6 12 54 22 3 0 0 0 0 0 0 0 0 0 0 0 94 9 0 76 1434 1895 2025 2323 2068 1748 2608 2364 3234 3280 4019 3996 3741 3432 3211 2939 2490 2055
0 0 15 30 28 0 15 315 283 233 97 580 569 406 244 15 1 0 0 1 3 0 0 46 227 361 1562 2177 2256 2423 2754 2564 2324 3218 3589 4078 4397 3972 3385 2954 2542 2171 1836 1703
0 0 5 10 6 0 233 306 149 217 192 728 703 700 638 353 318 331 577 536 677 45 76 130 755 1820 2192 2543 2660 2597 2778 3103 3014 3740 3887 4329 4194 3582 2743 2278 1869 1532 1664 2069
0 0 0 49 102 96 392 26 12 513 648 583 532 610 554 550 497 402 676 706 270 671 409 1211 2408 2625 3070 2946 3062 3222 3233 3508 3677 3769 4002 4186 3525 2751 2189 1800 1729 1834 1547 1298
0 0 0 0 0 2 660 912 699 594 572 821 961 806 444 412 584 971 986 1182 1218 1100 1373 1878 2850 3041 3045 3171 3124 3056 3117 3182 3304 3414 3759 3456 2734 2153 1840 1885 1544 1317 1283 1189
1 61 39 17 68 697 600 442 393 493 872 934 991 1149 1308 1201 1079 1116 1222 1376 1498 1730 1923 2090 2188 2370 2650 2693 2928 3138 3026 3176 3221 3344 2914 2420 2119 2097 2079 1955 1609 1435 1319 1221
94 108 231 86 749 612 530 432 441 419 535 505 260 260 392 870 933 1308 1329 1496 1743 1760 2083 2416 2527 2884 2933 3479 3263 3381 3508 3494 3097 2600 2267 1951 1885 1895 1972 963 844 1027 264 441
0 19 92 474 518 248 148 129 13 0 36 4 0 0 0 20 38 180 810 971 1365 1657 1874 2100 2407 2632 2561 2841 2999 3222 3306 2909 2563 2250 1848 1946 1798 1638 933 490 124 0 3 0

GFSCGP_con_mlcape_009.txt.gz
CAPE
0 0 0 0 0 0 0 0 0 0 3 5 0 1 11 4 0 0 82 11 42 78 119 497 561 491 613 859 780 809 821 1538 1355 1143 1083 1099 1061 1459 1117 788 1240 1193 944 1169
0 0 0 0 0 0 0 0 0 0 2 7 1 0 0 0 0 0 7 41 31 61 55 264 384 469 541 723 882 782 665 1280 1563 1388 1337 1112 1327 1253 1027 911 704 1073 1447 1495
0 0 0 0 0 0 0 0 0 0 0 2 37 4 8 0 0 0 7 2 36 62 87 129 238 325 381 631 889 900 709 841 1719 1742 1554 1279 1206 1054 1170 1200 1265 1553 1559 1223
0 0 0 0 0 0 0 0 0 0 0 0 36 4 20 8 91 129 48 0 4 57 107 126 261 290 352 583 788 1012 994 996 1275 1673 1612 1508 1106 929 1076 1298 1139 1187 1681 1502
0 0 0 0 0 0 0 0 0 0 0 22 0 0 0 97 40 1 16 0 0 0 32 123 329 309 386 479 717 1128 1166 1129 1475 1365 1479 1268 1099 880 1157 1326 1212 1240 1916 1620
0 0 0 0 0 0 0 0 0 0 0 0 0 0 0 35 9 7 35 0 0 0 0 72 270 424 384 656 875 1108 1416 1462 1733 1498 1613 1477 1326 1039 1063 718 894 1299 1556 1151
0 0 0 0 0 0 0 0 0 0 0 0 0 0 0 34 41 26 99 31 37 1 0 0 245 501 510 725 900 1347 1458 1582 1921 1799 1379 1809 1673 1291 735 440 1137 1328 1199 1415
0 0 0 0 0 0 0 0 0 0 0 0 0 0 0 5 19 63 169 210 92 69 15 5 155 443 662 697 1081 1431 1677 1647 2019 2004 1927 1495 2021 1414 919 1365 1597 1211 1144 1381
0 0 0 0 0 0 0 0 0 0 0 0 0 0 0 0 16 75 48 100 53 13 57 15 93 392 661 736 1207 1380 2040 2067 2172 2378 2283 1996 1731 1696 1446 1272 1474 1449 1177 1352
0 0 0 0 0 0 0 0 0 0 0 0 0 0 0 0 5 26 31 39 43 2 17 94 134 366 652 791 1087 1452 1913 2228 2497 2342 2550 2238 2139 1648 1547 1505 1039 1884 1050 791
0 0 0 0 0 0 0 0 0 0 0 0 0 0 0 0 6 105 41 26 36 4 43 178 195 345 717 932 1138 1409 1911 2443 2611 2785 2690 2470 2181 2072 1702 1734 1349 1582 1495 1066
0 0 0 0 0 0 0 0 0 0 0 0 0 0 0 0 15 142 81 40 31 1 29 143 295 467 889 1061 1074 1386 2189 2429 2680 2844 2907 2719 2555 2556 2151 1606 1927 1818 1506 1317
0 0 0 0 0 0 0 0 0 0 0 0 0 0 0 0 0 0 3 28 7 4 274 470 383 770 1011 1109 1116 1477 2013 2635 2941 3096 3043 3020 2772 2842 2696 2078 2182 2409 1544 1532
0 0 0 0 0 0 0 0 0 0 0 0 0 0 0 0 0 5 26 13 1 4 83 503 554 814 1064 1271 1270 1276 1844 2547 2970 3299 3218 2970 2866 2836 2996 2901 2164 2602 2661 2067
0 0 0 0 0 0 0 0 0 0 0 0 0 0 0 0 0 23 52 41 2 13 222 460 596 651 1013 1240 1352 1414 1605 1923 2761 3061 3206 2974 2889 2929 3039 3025 3040 2288 2577 2443
0 0 0 0 0 0 0 0 0 0 0 0 0 0 0 0 0 0 122 36 2 45 217 282 570 641 715 1009 1206 1406 1589 1881 2209 2846 2999 2920 2931 2974 3072 3105 3040 3035 2523 2637
0 0 0 0 0 0 0 0 0 0 0 0 0 0 0 0 0 0 4 82 4 2 317 467 413 873 785 867 1048 1308 1499 1658 2031 2452 2851 2890 2766 2950 2945 3037 2972 3035 3013 2878
0 0 0 0 0 0 0 0 0 0 0 0 0 0 0 0 0 0 0 0 1 1 0 135 152 414 1267 1024 1007 1178 1375 1680 1867 1988 2564 2735 2899 2801 3055 3075 3045 3123 3103 3069
0 0 0 0 0 0 0 0 0 0 0 14 19 16 0 0 0 0 0 0 0 0 0 0 145 330 470 1470 1229 1088 1231 1480 1607 1712 1958 2493 2618 2957 3206 3217 3175 3215 3136 2829
0 0 0 0 0 0 0 7 209 87 27 483 269 154 49 82 0 1 85 574 34 0 0 0 0 3 437 1336 1626 1372 1197 1277 1301 1436 1723 2241 2471 2853 3399 3337 3280 3072 2731 2250
1 0 0 14 0 0 38 97 174 115 257 407 359 320 292 111 204 209 104 500 630 542 96 5 0 0 298 1062 1805 1724 1474 1277 1457 1363 2309 2676 3038 3530 3402 3134 2851 2341 2239 2153
0 0 0 41 50 53 281 271 246 411 617 559 606 670 286 234 161 164 420 620 755 636 460 1545 498 233 524 1585 2153 2228 1793 1722 2127 2662 3242 3610 3554 3263 2989 2680 2347 2285 1989 1751
0 0 0 0 25 62 84 381 91 421 752 845 755 1161 897 745 1306 1486 1195 1025 1095 1441 1815 2220 2494 2749 2643 2358 2554 2932 3257 3045 3038 3705 3725 3309 3043 2958 2549 1993 1798 1642 1395 1262
0 38 2 0 0 22 86 48 681 390 155 199 762 844 729 723 937 988 1173 1562 1840 2107 2613 2713 2893 3238 3381 3374 3295 3336 3574 3608 3729 3515 3237 2856 2714 2190 1740 1477 1374 1348 1253 1084
173 42 23 6 257 575 511 352 396 223 44 0 54 230 421 547 479 601 783 990 1514 2167 2571 2760 2882 3139 3254 3345 3393 3422 3525 3560 3309 2969 2377 2188 1999 1850 1052 419 691 832 316 833
0 45 20 53 89 121 62 5 15 1 0 0 0 19 0 4 80 121 164 149 308 562 494 2577 3042 3228 3304 3333 3249 3125 2908 2761 2614 2206 2014 1956 1645 885 569 410 142 0 7 11

GFSCGP_con_mlcape_012.txt.gz
CAPE
0 0 0 0 0 0 0 0 0 0 0 0 0 2 1 252 524 527 591 535 412 478 471 423 220 300 347 687 1007 1086 1043 727 779 879 935 681 667 679 522 1189 736 991 1120 1072
0 0 0 0 0 0 0 0 0 0 0 0 4 1 0 19 84 219 297 376 396 354 370 389 292 353 341 582 888 1113 955 836 816 811 795 718 737 805 528 1172 909 809 788 755
0 0 0 0 0 0 0 0 0 0 0 0 4 25 5 0 5 18 82 110 207 138 221 294 394 329 424 573 679 758 934 1042 967 961 765 864 799 748 964 1064 947 904 1007 938
0 0 0 0 0 0 0 0 0 0 0 0 1 0 18 0 0 0 13 36 88 78 48 102 351 323 364 491 578 641 819 1119 1181 1183 1052 986 882 739 994 984 989 1145 1191 1051
0 0 0 0 0 0 0 0 0 0 0 0 0 0 0 8 0 0 0 9 89 42 40 11 199 321 326 414 582 579 537 1123 1233 1326 1224 1103 1070 870 751 830 958 1067 1272 1369
0 0 0 0 0 0 0 0 0 0 0 0 0 0 0 0 0 0 0 1 10 37 26 4 70 181 275 366 580 655 594 680 1146 1332 1381 1324 1194 990 711 661 867 1132 1341 1317
0 0 0 0 0 0 0 0 0 0 0 0 0 0 0 0 0 0 6 7 0 3 37 1 4 95 143 259 520 788 754 665 900 1260 1270 1255 1169 1053 797 597 903 1261 1293 1213
0 0 0 0 0 0 0 0 0 0 0 0 0 0 0 0 0 0 16 7 0 0 7 15 10 70 83 215 520 783 905 829 978 1047 1199 1278 1247 1085 897 705 896 996 1147 1413
0 0 0 0 0 0 0 0 0 0 0 0 0 0 0 0 0 0 4 15 0 0 0 0 34 68 145 240 494 753 1037 999 1096 1195 1066 1227 1326 1209 1079 1037 1161 924 1067 1147
0 0 0 0 0 0 0 0 0 0 0 0 0 0 0 0 0 0 1 10 9 1 0 0 1 108 258 236 548 888 1095 1089 1236 1363 1315 1234 1313 1440 1319 1149 1177 1357 1221 1167
0 0 0 0 0 0 0 0 0 0 0 0 0 0 0 0 0 0 0 15 28 19 16 0 9 98 258 367 736 1015 1208 1220 1439 1612 1558 1572 1458 1341 1548 1468 1396 1280 1185 975
0 0 0 0 0 0 0 0 0 0 0 0 0 0 0 0 0 0 0 6 140 127 34 40 22 71 266 524 858 1000 1433 1403 1483 1697 1785 1703 1785 1742 1418 1370 1380 1408 1331 1160
0 0 0 0 0 0 0 0 0 0 0 0 0 0 0 0 0 0 0 2 19 27 10 1 46 91 295 550 779 1156 1418 1639 1817 1852 1965 2064 2007 2013 1740 1472 1556 1438 1326 1049
0 0 0 0 0 0 0 0 0 0 0 0 0 0 0 0 0 0 0 1 56 38 4 0 62 134 425 624 813 1209 1387 1941 1961 2215 2153 2129 2183 2154 2102 1814 1567 1547 1499 1249
0 0 0 0 0 0 0 0 0 0 0 0 0 0 0 0 0 0 0 5 56 101 0 0 39 220 509 786 880 1164 1521 1804 2126 2242 2390 2266 2287 2415 2410 2202 1846 1745 1845 1448
0 0 0 0 0 0 0 0 0 0 0 0 0 0 0 0 0 0 0 0 2 7 0 21 86 285 505 822 915 1068 1462 2012 2201 2375 2375 2473 2532 2584 2566 2597 2446 1988 1962 2078
0 0 0 0 0 0 0 0 0 0 0 0 0 0 0 0 0 0 0 0 0 0 0 81 227 428 605 889 1012 1053 1440 1958 2383 2389 2615 2725 2619 2612 2643 2702 2715 2609 2229 2091
0 0 0 0 0 0 0 0 0 0 0 0 0 0 0 0 0 0 0 0 0 0 4 91 427 542 740 934 1099 1177 1321 1784 2301 2412 2594 2862 2797 2637 2683 2737 2748 2733 2729 2395
0 0 0 0 0 0 0 0 0 0 0 0 0 0 0 0 0 0 0 0 0 0 0 74 459 658 631 822 1035 1267 1365 1591 1879 2249 2413 2641 2768 2623 2705 2670 2782 2710 2787 2644
0 0 0 0 0 0 0 0 1 0 21 161 0 0 0 0 0 0 0 9 0 0 0 0 0 33 491 677 851 1016 1261 1511 1654 1907 2173 2495 2666 2593 2583 2714 2757 2785 2810 2808
0 4 0 0 0 0 3 16 81 12 48 141 42 3 0 0 0 0 0 133 213 78 0 0 0 0 3 527 865 815 975 1222 1463 1731 1982 2223 2587 2605 2594 2770 2824 2898 2765 2740
0 31 12 0 0 58 0 72 53 180 696 384 298 231 113 234 270 594 272 402 407 155 244 399 12 0 0 84 599 744 810 931 1246 1528 1727 1758 2309 2522 2750 2850 2792 2695 2531 2476
9 6 0 0 0 0 0 49 711 745 578 541 403 394 273 282 480 952 1250 1562 1702 1548 1303 1355 795 330 279 363 803 762 916 1041 1073 1229 1498 1773 2240 2593 2697 2639 2621 2281 2179 1886
7 22 17 0 0 0 436 516 300 319 389 347 304 273 270 275 655 789 930 1016 1138 1340 1464 1344 1901 2417 1339 1138 1104 1335 1152 1233 1367 1792 2343 2486 2381 2358 2396 2150 2046 1707 1741 1599
54 3 66 0 0 0 94 186 51 12 42 90 144 257 284 273 247 452 645 717 804 585 207 79 82 316 755 2194 2349 2462 2312 2537 2408 2337 2390 2231 1785 1999 1409 675 753 974 651 1028
1 63 123 4 0 0 0 0 0 0 0 0 0 0 0 28 55 59 60 2 0 0 0 0 0 0 0 67 561 3326 3090 2644 2327 2137 2168 2058 1187 672 474 281 40 0 15 300

GFSCGP_con_mlcape_015.txt.gz
CAPE
0 0 0 0 0 0 0 0 0 0 0 0 0 0 162 483 691 720 727 693 729 625 584 545 367 273 342 429 474 525 611 750 789 732 828 799 999 762 654 779 863 962 992 1013
0 0 0 0 0 0 0 0 0 0 0 0 0 0 22 378 481 588 698 730 730 667 657 618 436 341 158 322 587 584 574 706 711 745 807 834 790 766 646 571 860 811 938 1008
0 0 0 0 0 0 0 0 0 0 0 0 0 0 0 403 513 581 563 545 626 554 499 631 496 409 216 287 572 678 649 739 632 600 650 632 631 585 626 622 627 819 846 936
0 0 0 0 0 0 0 0 0 0 0 0 0 0 0 17 428 464 491 481 429 370 361 439 532 321 260 301 458 666 754 766 618 518 479 578 632 357 441 583 566 1037 891 768
0 0 0 0 0 0 0 0 0 0 0 0 0 0 0 0 0 60 185 260 315 295 247 269 356 318 242 217 455 678 763 767 679 497 548 621 555 413 455 498 592 876 945 898
0 0 0 0 0 0 0 0 0 0 0 0 0 0 0 0 0 0 0 7 60 134 176 212 236 291 295 265 415 593 657 728 753 607 676 666 619 608 597 355 543 822 892 1013
0 0 0 0 0 0 0 0 0 0 0 0 0 0 0 0 0 0 0 0 0 3 65 81 116 197 278 372 520 555 504 699 817 786 808 789 771 678 626 601 642 626 811 953
0 0 0 0 0 0 0 0 0 0 0 0 0 0 0 0 0 0 0 0 0 0 4 16 43 57 208 246 445 509 498 589 903 971 922 919 878 772 735 714 671 542 792 1002
0 0 0 0 0 0 0 0 0 0 0 0 0 0 0 0 0 0 0 0 0 0 0 5 21 7 80 169 215 498 509 472 775 976 1010 950 960 936 850 793 766 754 713 1096
0 0 0 0 0 0 0 0 0 0 0 0 0 0 0 0 0 0 0 0 0 0 0 2 23 23 20 87 141 369 557 531 502 776 986 1002 938 981 931 830 792 772 754 963
0 0 0 0 0 0 0 0 0 0 0 0 0 0 0 0 0 0 0 0 0 0 0 0 25 30 27 49 66 284 580 610 586 662 846 929 1001 1036 991 903 901 783 870 939
0 0 0 0 0 0 0 0 0 0 0 0 0 0 0 0 0 0 0 0 0 0 0 0 8 18 56 59 72 262 502 700 667 761 883 879 863 996 1111 965 953 903 1047 1030
0 0 0 0 0 0 0 0 0 0 0 0 0 0 0 0 0 0 0 0 0 0 0 0 0 0 11 49 95 279 562 713 829 951 1011 1077 1071 1001 1072 1129 1146 1027 1089 1105
0 0 0 0 0 0 0 0 0 0 0 0 0 0 0 0 0 0 0 0 0 0 0 0 0 0 8 24 149 363 657 842 960 1130 1243 1241 1269 1271 1119 1153 1256 1247 1176 1197
0 0 0 0 0 0 0 0 0 0 0 0 0 0 0 0 0 0 0 0 0 0 0 0 0 0 2 13 173 461 724 1067 1099 1166 1412 1398 1429 1496 1502 1397 1302 1276 1244 1237
0 0 0 0 0 0 0 0 0 0 0 0 0 0 0 0 0 0 0 0 0 0 0 0 8 14 22 75 207 415 869 1119 1364 1381 1445 1611 1649 1706 1733 1722 1612 1463 1372 1410
0 0 0 0 0 0 0 0 0 0 0 0 0 0 0 0 0 0 0 0 0 0 0 0 0 0 18 124 323 443 862 1150 1590 1576 1703 1842 1817 1847 1933 1978 1903 1746 1580 1585
0 0 0 0 0 0 0 0 0 0 0 0 0 0 0 0 0 0 0 0 0 0 0 0 0 0 59 222 492 583 922 1258 1551 1741 1854 2057 2093 1947 2090 2228 2145 2037 1824 1816
0 0 0 0 0 0 0 0 0 0 0 0 0 0 0 0 0 0 0 0 0 0 0 0 0 12 147 348 650 833 901 1256 1713 1827 1996 2178 2281 2217 2310 2288 2368 2368 2195 1896
0 0 0 0 0 0 0 0 0 0 0 0 0 0 0 0 0 0 0 0 0 0 0 0 0 39 257 542 884 974 1002 1269 1618 1953 2049 2264 2445 2406 2399 2416 2416 2496 2508 2203
0 9 0 0 0 0 0 0 5 0 0 0 0 0 0 0 0 0 0 2 35 1 0 0 0 109 385 643 963 1115 1166 1178 1455 1837 2144 2337 2547 2596 2501 2470 2476 2568 2583 2470
38 10 12 0 0 0 0 36 84 108 30 94 0 0 0 6 10 57 168 448 562 492 742 1423 1357 714 200 63 574 1012 1150 1233 1349 1591 1827 2227 2394 2668 2602 2514 2488 2579 2642 2639
23 38 5 0 0 1 0 11 92 104 308 265 238 275 211 226 230 225 289 455 568 660 586 349 542 560 761 1826 396 476 776 1138 1353 1462 1549 1677 2094 2460 2463 2489 2561 2648 2734 2692
16 50 10 26 0 4 12 5 37 38 127 100 114 268 325 436 478 436 496 422 433 596 662 401 295 204 91 0 1436 1564 1309 1110 955 1228 1429 1551 1796 2213 2346 2543 2646 2638 2619 2458
0 59 27 38 15 7 0 13 0 0 0 13 21 113 319 278 126 61 51 74 66 39 48 224 411 313 90 0 0 6 454 1191 1114 1027 1196 1388 1754 2279 2358 1790 2301 2416 1813 1731
2 100 63 11 5 1 0 0 0 0 0 0 3 1 0 17 35 4 1 0 0 0 0 0 0 0 0 0 4 90 82 62 1476 1308 1559 1854 1975 1109 882 985 722 179 409 621

GFSCGP_con_mlcape_018.txt.gz
CAPE
0 0 0 0 0 0 0 0 0 0 0 0 0 0 23 224 495 560 550 455 410 353 342 378 354 385 334 414 473 437 460 501 400 247 344 471 739 662 400 621 488 610 684 790
0 0 0 0 0 0 0 0 0 0 0 0 0 0 0 187 191 288 481 520 475 469 462 445 394 304 294 282 249 353 448 549 624 532 451 622 704 636 748 670 553 640 741 798
0 0 0 0 0 0 0 0 0 0 0 0 0 0 0 81 411 516 502 512 482 517 432 393 423 285 208 243 224 272 365 473 606 654 529 491 572 592 740 652 613 634 736 816
0 0 0 0 0 0 0 0 0 0 0 0 0 0 0 0 134 386 497 573 519 527 567 447 357 295 158 131 174 247 332 419 481 609 576 471 480 542 641 681 585 528 680 685
0 0 0 0 0 0 0 0 0 0 0 0 0 0 0 0 31 212 414 483 596 561 529 503 399 363 293 105 89 251 320 389 448 497 571 505 433 454 376 436 503 524 560 712
0 0 0 0 0 0 0 0 0 0 0 0 0 0 0 0 0 57 279 388 388 405 454 497 456 416 336 222 85 217 367 390 504 462 502 475 384 327 270 365 279 350 550 722
0 0 0 0 0 0 0 0 0 0 0 0 0 0 0 0 0 0 0 83 220 345 332 319 268 296 394 201 147 222 404 453 521 470 437 417 388 321 332 377 347 364 387 655
0 0 0 0 0 0 0 0 0 0 0 0 0 0 0 0 0 0 0 0 5 69 193 268 264 164 206 226 151 237 412 476 556 506 456 453 434 369 416 434 411 434 204 457
0 0 0 0 0 0 0 0 0 0 0 0 0 0 0 0 0 0 0 0 0 0 0 31 170 163 126 128 150 254 382 460 542 575 522 487 489 468 473 501 478 539 461 525
0 0 0 0 0 0 0 0 0 0 0 0 0 0 0 0 0 0 0 0 0 0 0 0 0 17 48 98 121 237 353 393 449 610 653 633 606 595 586 598 565 571 621 712
0 0 0 0 0 0 0 0 0 0 0 0 0 0 0 0 0 0 0 0 0 0 0 0 0 2 9 30 97 181 354 414 403 648 760 767 737 749 726 671 643 659 716 747
0 0 0 0 0 0 0 0 0 0 0 0 0 0 0 0 0 0 0 0 0 0 0 0 0 0 1 3 19 107 275 418 403 476 805 858 857 870 811 733 721 695 726 764
0 0 0 0 0 0 0 0 0 0 0 0 0 0 0 0 0 0 0 0 0 0 0 0 0 0 0 0 0 41 153 363 478 451 611 861 922 917 879 803 807 767 791 777
0 0 0 0 0 0 0 0 0 0 0 0 0 0 0 0 0 0 0 0 0 0 0 0 0 0 0 0 0 8 105 296 518 575 566 703 837 899 955 925 866 789 846 830
0 0 0 0 0 0 0 0 0 0 0 0 0 0 0 0 0 0 0 0 0 0 0 0 0 0 0 0 11 53 109 285 515 617 676 759 862 857 901 1030 997 964 918 926
0 0 0 0 0 0 0 0 0 0 0 0 0 0 0 0 0 0 0 0 0 0 0 0 0 0 0 0 45 143 196 349 559 714 737 892 1038 1085 1024 984 1053 1081 1048 1090
0 0 0 0 0 0 0 0 0 0 0 0 0 0 0 0 0 0 0 0 0 0 0 0 0 0 0 5 123 191 313 514 666 773 925 1090 1215 1285 1312 1239 1135 1097 1119 1123
0 0 0 0 0 0 0 0 0 0 0 0 0 0 0 0 0 0 0 0 0 0 0 0 0 0 0 11 78 246 331 598 858 935 1035 1257 1424 1437 1479 1517 1371 1283 1236 1173
0 0 0 0 0 0 0 0 0 0 0 0 0 0 0 0 0 0 0 0 0 0 0 0 0 0 0 0 69 188 388 660 904 1142 1239 1352 1530 1592 1629 1687 1638 1595 1498 1367
0 0 0 0 0 0 0 0 0 0 0 0 0 0 0 0 0 0 0 0 0 0 0 0 0 0 0 0 1 164 413 717 884 1309 1424 1547 1650 1692 1722 1877 1890 1849 1755 1619
0 0 0 0 0 0 0 0 3 0 0 0 0 0 0 0 0 0 0 0 2 16 0 0 0 0 0 32 246 372 528 719 974 1336 1666 1770 1849 1944 1945 2005 2148 2164 2104 1979
0 0 0 0 0 0 0 3 16 0 0 1 0 0 0 0 0 0 0 79 286 394 762 468 115 191 94 59 422 651 751 828 1034 1319 1624 1838 2054 2184 2212 2263 2233 2343 2402 2392
0 0 0 0 0 0 0 1 25 0 10 1 0 0 0 0 0 6 107 266 201 172 108 5 23 208 741 1231 167 483 836 855 815 1110 1431 1896 2115 2303 2325 2428 2417 2493 2510 2483
4 5 0 8 0 0 9 28 10 3 0 1 18 43 34 98 137 124 67 70 40 1 0 0 0 0 0 0 0 0 1 947 1377 888 987 1458 2011 2291 2543 2576 2534 2572 2614 2576
1 1 0 0 0 23 49 19 22 19 3 41 32 39 30 0 0 0 0 0 0 0 0 0 0 0 0 0 0 0 0 0 22 621 937 1124 1421 1833 2328 2507 2554 2610 2684 2592
1 0 0 0 0 7 5 26 0 50 23 3 11 6 4 16 26 17 20 0 2 16 1 13 70 36 49 41 0 0 0 0 0 0 190 695 1180 1487 2090 1459 1271 1200 2165 2066

GFSCGP_con_mlcape_021.txt.gz
CAPE
0 0 0 0 0 0 0 0 0 0 0 0 0 0 69 331 609 663 595 464 377 328 381 451 496 492 581 685 733 678 508 551 596 519 254 252 158 240 570 672 824 1151 1332 1450
0 0 0 0 0 0 0 0 0 0 0 0 0 0 0 95 267 540 682 566 496 507 465 469 472 503 521 660 714 751 627 648 576 516 417 369 382 521 1003 960 1057 1163 1237 1328
0 0 0 0 0 0 0 0 0 0 0 0 0 0 0 7 205 582 730 684 576 584 530 502 480 479 542 578 717 701 730 819 728 636 624 729 990 1175 1102 1086 1236 1187 1234 1350
0 0 0 0 0 0 0 0 0 0 0 0 0 0 0 0 1 177 535 656 634 635 650 614 557 537 519 651 685 710 756 852 1000 1040 826 702 621 733 875 988 1186 1300 1302 1321
0 0 0 0 0 0 0 0 0 0 0 0 0 0 0 0 0 39 339 597 615 656 712 685 637 567 513 586 624 649 663 693 879 1107 1003 931 797 823 927 960 1214 1312 1283 1295
0 0 0 0 0 0 0 0 0 0 0 0 0 0 0 0 0 0 194 542 648 628 647 761 743 679 628 522 457 571 648 611 795 933 1038 967 956 941 950 968 937 1083 1167 1195
0 0 0 0 0 0 0 0 0 0 0 0 0 0 0 0 0 0 0 138 514 679 683 692 822 760 696 648 534 443 591 636 711 749 897 1037 937 1034 967 855 830 871 1003 1028
0 0 0 0 0 0 0 0 0 0 0 0 0 0 0 0 0 0 0 17 229 541 652 752 827 885 794 729 665 531 523 660 751 758 757 923 1014 1058 1077 1035 901 953 975 1040
0 0 0 0 0 0 0 0 0 0 0 0 0 0 0 0 0 0 0 0 0 77 415 572 771 872 798 839 733 636 537 665 813 802 787 808 999 979 987 1057 1087 1003 1098 1121
0 0 0 0 0 0 0 0 0 0 0 0 0 0 0 0 0 0 0 0 0 0 14 221 611 707 730 715 844 688 617 660 817 898 914 898 935 998 1054 1155 1070 1053 1149 1053
0 0 0 0 0 0 0 0 0 0 0 0 0 0 0 0 0 0 0 0 0 0 0 0 216 564 694 626 681 749 645 731 920 992 1050 1004 1013 1020 1010 1105 1158 1116 1191 1174
0 0 0 0 0 0 0 0 0 0 0 0 0 0 0 0 0 0 0 0 0 0 0 0 15 161 335 588 538 635 671 757 877 1008 1112 1096 1140 1176 1131 1125 1190 1241 1147 1218
0 0 0 0 0 0 0 0 0 0 0 0 0 0 0 0 0 0 0 0 0 0 0 0 1 12 70 203 482 574 602 661 820 1016 1094 1204 1259 1298 1280 1246 1308 1352 1305 1297
0 0 0 0 0 0 0 0 0 0 0 0 0 0 0 0 0 0 0 0 0 0 0 0 0 0 3 46 197 325 548 648 797 962 1062 1189 1267 1292 1380 1423 1410 1411 1401 1314
0 0 0 0 0 0 0 0 0 0 0 0 0 0 0 0 0 0 0 0 0 0 0 0 0 0 0 5 118 216 333 634 767 981 1001 1141 1345 1457 1525 1514 1466 1475 1488 1384
0 0 0 0 0 0 0 0 0 0 0 0 0 0 0 0 0 0 0 0 0 0 0 0 0 0 0 1 52 196 284 499 754 946 922 1076 1363 1533 1568 1600 1571 1542 1490 1484
0 0 0 0 0 0 0 0 0 0 0 0 0 0 0 0 0 0 0 0 0 0 0 0 0 0 0 0 20 176 314 536 707 838 1095 1236 1301 1438 1554 1614 1648 1543 1551 1510
0 0 0 0 0 0 0 0 0 0 0 0 0 0 0 0 0 0 0 0 0 0 0 0 0 0 0 0 52 271 429 505 666 880 1099 1264 1325 1393 1537 1536 1599 1690 1713 1619
0 0 0 0 0 0 0 0 0 0 0 0 0 0 0 0 0 0 0 0 0 0 0 0 0 0 0 0 0 294 454 590 744 826 995 1186 1350 1400 1571 1641 1614 1705 1776 1856
0 0 0 0 0 0 0 0 0 0 0 0 0 0 0 0 0 0 0 0 0 0 0 0 0 0 0 0 0 179 438 721 747 888 1100 1483 1652 1685 1686 1823 1966 1955 1868 1829
0 0 0 0 0 0 0 0 40 0 0 0 0 0 0 0 0 0 0 0 0 0 0 0 0 0 0 8 11 37 283 468 893 1301 1532 1654 1753 1823 1902 2042 2087 2206 2203 2116
0 0 0 0 0 0 0 0 0 17 8 0 0 0 0 0 27 0 0 0 2 7 0 0 0 0 137 340 576 602 696 1121 1429 1556 1722 1912 1937 2003 2142 2229 2363 2419 2361 2289
0 0 33 0 0 0 0 0 0 46 15 24 6 1 1 4 94 0 2 244 428 301 277 846 494 52 83 471 935 949 1075 1056 1289 1552 1743 2014 2250 2363 2414 2493 2510 2561 2581 2415
10 32 31 2 0 0 0 0 5 32 0 18 9 18 15 123 39 157 211 139 70 0 0 0 0 25 125 267 416 644 842 1640 1565 1480 1766 2096 2267 2472 2673 2718 2789 2766 2633 2562
5 0 3 8 0 0 0 0 4 13 0 27 17 2 6 16 9 0 0 0 0 0 0 0 14 14 4 12 1 0 0 0 8 436 1119 1439 2023 2352 2660 2820 2938 2871 2892 2728
0 0 0 0 1 4 0 1 32 3 38 29 0 7 3 6 0 0 0 1 0 11 135 237 397 300 159 0 0 0 6 0 0 0 15 289 848 1489 2090 2503 2896 1838 1789 2474

GFSCGP_con_mlcape_027.txt.gz
CAPE
0 0 0 0 0 0 0 0 0 7 35 10 9 37 45 75 174 241 697 864 861 671 424 382 470 465 496 696 1062 1303 1350 1568 1467 1321 1043 793 552 427 168 181 217 516 1099 1554
0 0 0 0 0 0 0 0 0 0 0 18 9 6 28 43 99 188 439 792 905 848 604 374 440 453 501 638 1030 1565 1634 1866 1722 1425 1217 811 656 238 200 197 486 865 1380 1825
0 0 0 0 0 0 0 0 0 0 0 0 3 5 11 23 59 191 389 738 780 859 835 577 467 466 465 621 1047 1551 1748 1899 1904 1659 1396 1104 723 481 346 377 389 938 1502 1732
0 0 0 0 0 0 0 0 0 0 0 0 0 1 4 7 23 85 182 555 796 788 892 863 576 516 482 634 903 1521 1893 1918 1994 1938 1185 896 527 326 245 371 482 888 1463 1524
0 0 0 0 0 0 0 0 0 0 0 0 0 0 27 6 4 14 20 158 661 625 849 921 846 528 436 471 700 1196 2009 2043 1826 1933 1581 1069 760 264 389 467 837 873 1697 1623
0 0 0 0 0 0 0 0 0 0 0 0 0 0 0 20 24 28 26 22 149 377 648 923 994 627 435 372 553 1056 1941 2218 2148 2157 1607 1779 968 525 599 722 875 939 972 1741
0 0 0 0 0 0 0 0 0 0 0 0 0 0 0 0 1 13 9 17 39 118 541 864 1039 837 486 443 588 982 1907 2413 2485 2442 2082 1757 1708 1053 1781 1753 858 817 812 760
0 0 0 0 0 0 0 0 0 0 0 0 0 0 0 0 0 2 14 21 88 129 524 837 1059 1075 703 577 824 1082 1787 2521 2704 2480 2387 2167 2250 1765 1355 1516 1131 1048 798 735
0 0 0 0 0 0 0 0 0 0 0 0 0 0 0 0 0 0 0 0 14 73 346 795 1021 1208 1060 711 1057 1312 1738 2411 2736 2530 2674 2622 2474 2105 1653 1570 1804 1885 1578 1047
0 0 0 0 0 0 0 0 0 0 0 0 0 0 0 0 0 0 0 0 0 3 235 682 933 1197 1322 1083 1068 1454 1806 2416 2687 2499 2666 2716 2871 2819 2305 2300 2387 1865 1959 1944
0 0 0 0 0 0 0 0 0 0 0 0 0 0 0 0 0 0 0 0 0 0 116 593 909 1081 1320 1345 1202 1335 1783 2216 2630 2561 2555 2451 2578 2639 2781 2488 2694 2502 2586 2731
0 0 0 0 0 0 0 0 0 0 0 0 0 0 0 0 0 0 0 0 0 0 11 430 688 842 931 1260 1462 1524 1604 1733 2501 2531 2729 2628 2601 2573 2633 2719 2507 2869 2738 2759
0 0 0 0 0 0 0 0 0 0 0 0 0 0 0 0 0 0 0 0 0 0 3 107 467 557 754 949 1405 1574 1845 1788 1795 2324 2497 2920 2780 2718 2499 2749 2827 2839 2966 2962
0 0 0 0 0 0 0 0 0 0 0 0 0 0 0 0 0 0 0 0 0 0 0 27 28 36 369 706 1254 1748 1688 1802 1848 1972 2107 2437 2904 2771 2866 2782 3027 2955 3065 3094
0 0 0 0 0 0 0 0 0 0 0 0 0 0 0 0 0 0 0 0 0 0 0 0 0 20 100 528 1386 1690 1560 1726 1852 2151 2264 2375 2819 3087 3141 3078 3037 3178 3151 3197
0 0 0 0 0 0 0 0 0 0 0 0 0 0 0 0 0 0 0 0 0 0 0 0 0 0 177 325 972 1372 1990 1702 1631 2220 2258 2453 2725 3168 3312 3318 3320 3439 3264 3371
0 0 1 0 0 0 0 0 0 0 0 0 0 0 0 0 0 0 0 0 0 0 0 0 0 0 0 153 339 740 1552 1896 1761 1847 2472 2353 2746 3034 3382 3570 3542 3497 3533 3521
0 0 0 1 0 0 0 0 0 0 0 0 0 0 0 0 0 0 0 0 0 0 0 0 0 0 0 0 0 233 528 1749 2081 2231 2235 2637 2570 3109 3404 3575 3603 3684 3667 3551
0 0 0 0 0 0 0 0 0 0 0 0 0 0 0 0 0 0 0 0 0 0 0 0 0 0 0 0 0 0 477 1204 1983 2165 2610 2489 2849 3051 3440 3518 3595 3712 3696 3700
0 0 0 0 0 5 0 0 0 0 0 0 0 0 0 0 0 1 177 86 21 1 0 0 0 0 0 0 0 0 0 561 1854 2333 2552 2881 3052 3179 3435 3571 3610 3720 3764 3734
0 0 0 0 0 0 0 5 3 0 105 92 4 2 3 2 93 356 378 422 407 403 302 41 116 106 0 0 0 36 84 343 1299 1982 2383 3129 3254 3507 3502 3490 3674 3868 3877 3573
0 0 0 0 0 0 0 0 29 8 1 3 9 3 3 9 22 47 159 448 709 625 362 6 78 514 128 0 301 722 644 1037 1698 2066 2484 2988 3274 3252 3149 3671 3727 3863 3879 3794
0 0 0 0 0 0 0 0 0 0 0 0 0 0 0 0 0 0 41 703 1034 798 898 863 951 708 944 1838 1897 1580 1866 1821 2173 2581 2912 3147 3344 3421 3262 3583 3756 3674 3713 3293
9 0 0 0 0 0 0 0 0 0 0 0 0 0 0 0 0 0 80 1075 1090 1110 1069 1033 1401 1660 2162 2973 2780 2926 3384 2791 2454 2763 2869 2991 3145 3324 3398 3092 3430 3240 3137 3200
21 5 5 0 0 0 0 0 0 0 0 0 0 0 0 0 0 0 130 1265 1173 1000 819 1350 1649 1965 1980 1996 1868 1855 2066 3067 3154 3283 3264 3275 3198 3240 3465 3455 2943 3108 3217 3028
26 21 21 17 8 1 0 0 0 0 0 0 0 0 0 0 0 2 53 649 1245 1211 1392 1672 1765 1457 1311 1515 1625 1679 1716 1784 1966 2881 3092 2986 2865 3106 3183 3138 3420 2826 2654 2399

GFSCGP_con_mlcape_030.txt.gz
CAPE
0 0 0 0 0 0 0 0 0 0 0 45 4 43 7 42 30 242 429 487 271 353 370 570 464 415 559 756 841 682 957 1264 1233 1193 1064 1173 568 703 464 400 548 1081 1366 1703
0 0 0 0 0 0 0 0 0 0 1 2 22 1 22 60 8 49 325 265 499 322 332 530 528 430 477 712 1079 888 1029 1329 1595 1410 1405 1091 1045 846 521 259 589 1217 991 1701
0 0 0 0 0 0 0 0 0 0 0 9 4 3 14 40 38 28 185 234 471 518 403 413 561 495 422 843 1209 1439 1420 1995 1642 1736 1814 1345 1300 916 409 363 635 681 1272 1446
0 0 0 0 0 0 0 0 0 0 0 0 1 7 17 17 5 11 37 311 239 616 548 432 585 526 532 824 1364 1831 1856 2105 1869 1897 1658 1461 1007 674 671 397 588 749 973 1796
0 0 0 0 0 0 0 0 0 0 0 0 1 1 3 21 9 15 46 204 316 610 693 587 564 591 646 741 1433 1974 2122 2137 2345 1532 2106 1385 1070 899 458 675 658 742 1284 1419
0 0 0 0 0 0 0 0 0 0 0 0 0 0 1 4 1 10 33 46 403 503 782 892 695 673 629 830 1247 1776 2192 2048 2196 2144 1487 1972 1231 899 666 418 657 1240 1847 1625
0 0 0 0 0 0 0 0 0 0 0 0 0 0 0 0 9 0 1 9 104 565 746 1101 1000 850 710 840 1201 1417 2271 2141 2016 2232 1621 1782 1869 809 1180 977 741 1289 977 1863
0 0 0 0 0 0 0 0 0 0 0 0 0 0 0 0 1 1 13 14 55 217 602 1021 1240 1087 833 791 981 1353 2204 2231 2245 2080 2298 1631 2477 1632 752 1941 1114 1049 1235 1015
0 0 0 0 0 0 0 0 0 0 0 0 0 0 0 0 0 0 12 73 59 78 222 797 1253 1290 1038 810 969 1252 1929 2380 2511 2125 2506 2210 1657 2425 1085 1201 1798 1609 1139 1400
0 0 0 0 0 0 0 0 0 0 0 0 0 0 0 0 0 0 0 3 27 53 132 695 1140 1452 1225 901 989 1142 1766 2420 2561 2678 2463 2620 2052 2182 2170 1075 1702 1427 1812 1118
0 0 0 0 0 0 0 0 0 0 0 0 0 0 0 0 0 0 0 0 1 105 245 571 1209 1480 1472 1125 1087 1176 1372 2282 2760 2794 2733 2654 2772 2136 1992 2201 1746 2322 1537 2562
0 0 0 0 0 0 0 0 0 0 0 0 0 1 0 0 0 0 0 0 0 9 364 506 887 1409 1680 1427 1222 1285 1520 2003 2678 3072 3058 2856 2820 2992 2512 1769 2118 2351 2908 1878
0 0 0 0 0 0 0 0 0 0 0 0 0 0 0 0 0 0 0 0 0 1 58 450 910 1160 1596 1697 1555 1506 1584 1777 2592 3041 3160 3062 2958 2893 2949 2899 2013 2529 2541 3141
0 0 0 0 0 0 0 0 0 0 0 0 0 0 0 0 0 0 0 0 0 2 10 475 758 1117 1426 1712 1842 1771 1723 1878 2066 2846 3120 3097 3146 3000 2976 2919 2976 2355 2854 2691
0 0 0 0 0 1 0 0 0 0 0 0 0 0 0 0 0 0 0 0 5 29 201 438 676 1205 1190 1474 1818 2033 1980 1975 2046 2107 2901 2977 3057 3275 3042 3036 3023 3196 2810 2866
0 0 0 0 0 0 0 0 0 0 0 0 0 0 0 0 0 0 0 0 0 0 14 19 32 74 284 1575 1878 1969 2077 2298 2212 2227 2371 2689 2904 3067 3445 3260 3216 3230 3294 3216
0 0 0 0 0 0 0 0 0 0 0 0 0 0 0 0 0 0 0 0 0 0 0 0 0 0 16 199 1900 2132 2114 2163 2465 2429 2588 2613 2825 2987 3228 3478 3443 3385 3419 3488
0 0 0 0 0 0 0 0 0 0 0 0 0 0 0 0 0 0 0 0 0 0 0 0 0 0 0 0 248 1089 2213 2172 2092 2378 2477 3167 3033 3056 3276 3469 3626 3673 3671 3688
0 0 0 0 0 0 3 0 0 0 0 0 0 0 0 0 0 0 0 0 0 0 0 0 0 0 0 0 22 279 426 1913 2215 1994 2296 2314 3248 3263 3419 3586 3742 3854 3912 3880
0 0 0 0 0 0 0 0 0 0 0 112 6 0 0 0 0 278 639 560 529 573 547 510 306 145 14 10 0 0 606 1460 1742 1883 2113 2759 2649 3175 3349 3711 3928 4018 4094 4076
0 0 0 0 0 0 0 0 0 0 43 43 27 32 9 118 469 473 104 231 652 743 635 524 399 257 424 337 36 110 39 372 1810 2155 2467 2863 3298 3116 3430 3625 4062 4139 4202 4191
0 0 0 0 0 0 0 0 7 8 0 0 0 0 0 0 0 8 0 38 532 964 887 546 364 104 403 632 215 50 290 655 976 1749 2634 3136 3267 3498 3649 3752 4105 4170 4096 4086
0 6 0 0 0 0 0 0 0 0 0 0 0 0 0 0 0 0 47 172 1106 1369 1151 1431 1400 1288 1446 1291 2064 1885 2142 2340 1847 2951 2729 2935 3576 3805 3409 3887 3947 4092 4084 4063
0 0 0 0 0 0 0 0 0 0 0 0 0 0 0 0 0 0 25 210 757 1659 1371 1055 1269 1683 2910 3684 3594 3225 3597 2921 2750 3335 3513 3517 3839 3941 3912 3804 4061 3996 3943 3928
0 0 0 0 0 0 0 0 0 0 0 0 0 0 0 0 0 0 0 93 251 1112 2083 2367 2286 2340 2626 2527 2463 2387 2619 3294 3430 3200 3480 3737 3691 3769 3942 3887 3400 4074 3803 3633
0 0 0 0 0 0 0 0 0 0 0 0 0 0 0 0 0 0 7 95 186 481 1070 1755 2208 1919 2010 2074 2008 2150 2239 2500 3296 3792 3745 3650 3456 3578 3434 3761 3529 3361 2903 1979

GFSCGP_con_mlcape_033.txt.gz
CAPE
0 0 0 0 0 0 0 0 0 0 0 4 20 7 177 186 191 84 71 248 460 419 376 228 302 214 146 130 102 180 369 364 211 354 308 240 43 377 554 220 613 343 733 1123
0 0 0 0 0 0 0 0 0 0 0 0 11 15 197 199 84 14 0 65 252 417 382 389 217 224 214 282 276 221 478 490 300 469 238 750 696 445 603 132 864 572 976 1298
0 0 0 0 0 0 0 0 0 0 0 0 9 26 112 195 52 21 16 20 230 350 337 383 272 264 316 374 242 335 258 612 415 612 520 531 924 782 637 282 401 1005 973 1367
0 0 0 0 0 0 0 0 0 0 0 0 0 15 20 94 59 41 78 250 224 103 262 370 279 285 412 556 416 384 422 870 829 842 978 689 392 847 743 324 195 1002 810 1016
0 0 0 0 0 0 0 0 0 0 0 0 0 0 0 16 86 106 258 340 116 144 304 316 348 382 365 691 662 434 578 936 1132 1111 1046 883 818 863 703 401 219 472 673 972
0 0 0 0 0 0 0 0 0 0 0 0 0 0 0 1 18 64 145 335 256 292 232 278 447 386 334 700 964 905 687 1072 1141 1180 1293 1126 1154 765 797 515 260 579 698 673
0 0 0 0 0 0 0 0 0 0 0 0 0 0 0 0 12 46 148 267 227 30 6 468 475 367 432 754 1095 1332 1154 1297 1388 1090 1140 1503 1207 964 591 524 439 564 963 850
0 0 0 0 0 0 0 0 0 0 0 0 0 0 0 0 0 18 88 142 94 131 418 533 445 446 457 570 1074 1734 1529 1413 1667 1467 975 932 1845 1241 760 886 539 546 865 1227
0 0 0 0 0 0 0 0 0 0 0 0 0 0 0 0 0 0 1 52 179 579 820 510 508 526 392 634 936 1480 1779 1557 1699 1749 1515 954 1114 2007 974 469 1083 872 1108 931
0 0 0 0 0 0 0 0 0 0 0 0 0 0 0 0 0 0 0 0 74 756 487 721 635 595 502 555 876 1134 1908 1680 1615 1602 1701 1403 931 1316 1914 879 485 1421 848 1046
0 0 0 0 0 0 0 0 0 0 0 0 0 0 0 0 0 0 0 0 0 153 869 1053 839 778 703 591 917 1078 1509 1878 1848 1697 1522 1669 1317 1096 1730 1762 777 640 1594 1455
0 0 0 0 0 0 0 0 0 0 0 0 0 0 0 0 0 0 0 0 2 34 797 1272 1163 1074 911 736 884 1012 1258 1849 1911 1962 1733 1858 1878 1628 1121 1917 1782 433 1219 1353
0 0 0 0 0 0 0 0 0 0 0 0 0 0 0 0 0 0 0 0 0 41 742 1204 1346 1298 1163 882 838 915 1154 1632 2023 2190 2256 1985 2044 2187 1768 1397 1529 2006 768 1416
0 0 0 0 0 0 0 0 0 0 0 0 0 0 0 0 0 0 0 0 0 91 569 1065 1287 1445 1356 1064 913 959 1017 1388 2087 2310 2376 2411 2350 2383 2438 2137 1676 1340 2078 1659
0 0 0 0 0 0 1 0 0 0 0 0 0 0 0 0 0 0 0 1 4 0 421 952 1210 1456 1552 1325 1061 1051 1066 1229 1514 2312 2500 2514 2629 2595 2597 2543 2631 2272 1433 1920
0 0 0 0 0 0 0 0 0 0 0 0 0 0 0 0 4 0 0 0 2 155 373 777 988 1406 1601 1609 1385 1224 1215 1318 1451 2040 2339 2707 2765 2745 2686 2710 2576 2777 2676 1964
0 0 0 0 0 0 0 0 0 0 0 0 0 0 0 1 0 0 0 0 0 0 0 14 112 1058 1545 1683 1761 1620 1525 1465 1594 1711 2177 2573 2786 2786 2825 2779 2798 2686 2693 2838
0 0 0 0 0 0 0 0 1 0 0 0 0 1 0 26 50 2 0 0 0 0 0 0 0 0 0 748 1933 1895 1888 1881 1750 1812 1933 2106 2726 2866 2901 3021 2890 2969 2881 2915
0 0 0 0 0 0 0 0 0 1 7 8 124 70 72 113 9 195 415 343 247 96 71 88 54 111 0 0 192 2206 2185 2241 2319 2147 2189 2199 2446 2715 2924 2980 3180 3174 3224 3168
0 0 0 0 0 0 0 0 0 0 4 0 205 228 23 31 6 161 242 480 580 612 545 274 179 125 330 107 110 1286 2015 2322 2406 2617 2761 2810 2631 2775 2819 3007 3135 3288 3374 3401
0 0 0 0 0 0 0 0 0 0 0 0 0 9 213 82 27 4 39 485 1115 1019 851 489 331 236 157 639 89 152 858 1518 1979 2058 2045 2415 2825 3004 3230 3197 3258 3448 3538 3624
3 0 0 0 0 0 0 0 0 0 0 0 0 0 0 0 0 5 91 417 973 1554 1277 1130 1038 1084 645 241 343 132 329 1103 1701 2122 2340 2268 2325 2496 2986 3281 3593 3731 3853 3871
0 0 0 0 0 0 0 0 0 0 0 0 0 0 0 0 0 0 0 80 105 984 1520 1607 1588 1811 3137 2812 2270 1276 2012 2078 2228 1535 1371 2471 2563 2821 2997 3243 3631 3871 3997 4017
0 0 0 0 0 0 0 0 0 0 0 0 0 0 0 0 0 0 0 31 28 144 778 1378 1884 2597 2793 2940 2692 2552 2517 2697 2996 1975 2938 3030 3278 3379 3331 3641 3777 3957 4007 4032
0 0 0 0 1 0 0 0 0 0 0 0 0 0 0 0 0 0 0 0 0 0 1 205 837 1693 2117 2167 2126 2230 2420 2761 3026 3160 3967 3605 3464 3517 3713 3629 3782 3793 3514 3572
0 0 0 0 0 1 0 0 0 0 0 0 0 0 0 0 0 0 0 0 0 0 0 11 293 901 1790 1614 1451 1296 1746 1849 2642 3489 3491 3718 3673 3841 3841 3636 2606 1234 1770 1726

GFSCGP_con_mlcape_036.txt.gz
CAPE
0 0 0 0 0 0 0 0 0 0 0 0 1 99 301 473 327 415 380 349 274 237 139 151 105 90 77 79 85 14 0 52 337 186 72 38 0 1 165 473 355 353 426 805
0 0 0 0 0 0 0 0 0 0 0 0 0 88 350 479 332 375 414 411 400 391 268 213 204 137 108 75 112 37 0 0 169 40 25 26 0 0 60 326 353 240 444 566
0 0 0 0 0 0 0 0 0 0 0 0 0 64 128 238 364 393 371 317 344 358 311 293 200 246 139 91 120 69 13 0 19 59 79 132 23 0 43 290 339 333 523 708
0 0 0 0 0 0 0 0 0 0 0 0 0 15 94 128 167 98 104 50 132 272 275 256 179 280 158 157 66 123 97 38 57 213 91 57 0 44 219 276 266 379 558 874
0 0 0 0 0 0 0 0 0 0 0 0 0 0 35 97 48 2 0 1 75 205 296 184 104 103 99 140 99 128 225 209 201 381 183 131 118 357 522 449 341 392 611 964
0 0 0 0 0 0 0 0 0 0 0 0 0 0 0 44 29 20 39 0 16 179 318 272 186 98 125 174 146 176 422 300 288 437 375 270 261 212 330 587 458 296 624 735
0 0 0 0 0 0 0 0 0 0 0 0 0 0 0 0 31 36 14 10 44 207 309 276 267 190 151 307 236 256 306 587 464 461 572 498 450 423 206 490 449 309 372 584
0 0 0 0 0 0 0 0 0 0 0 0 0 0 0 0 3 34 26 46 150 248 188 296 312 269 198 396 426 289 365 513 678 585 590 707 688 597 478 557 524 363 365 463
0 0 0 0 0 0 0 0 0 0 0 0 0 0 0 0 0 0 12 103 329 244 156 135 326 322 246 418 594 505 433 485 831 746 829 972 913 852 708 655 534 428 461 674
0 0 0 0 0 0 0 0 0 0 0 0 0 0 0 0 0 0 0 65 362 426 248 188 318 397 312 467 640 751 716 589 884 960 824 848 1075 1252 942 755 705 702 603 672
0 0 0 0 0 0 0 0 0 0 0 0 0 0 0 0 0 0 0 2 106 452 371 103 260 445 403 438 691 1080 1068 927 1120 1252 1188 996 810 850 1593 1068 681 516 789 953
0 0 0 0 0 0 0 0 0 0 0 0 0 0 0 0 0 0 0 6 74 209 358 236 423 471 472 484 698 1040 1419 1283 1218 1374 1430 1374 1300 918 846 1443 1283 785 532 694
1 1 0 0 0 0 0 0 0 0 0 0 0 0 0 0 0 0 0 0 15 102 295 505 583 516 567 480 641 978 1432 1481 1433 1451 1480 1496 1500 1301 975 907 1415 1447 982 754
10 0 0 0 0 0 0 0 0 0 0 0 0 0 0 0 0 0 0 0 0 24 628 704 730 617 648 532 534 866 1088 1674 1618 1610 1576 1438 1512 1546 1351 1121 947 1456 1610 981
2 0 0 0 0 0 0 0 0 0 0 0 0 0 0 0 0 0 0 0 0 33 594 762 826 745 779 678 586 918 1059 1398 1740 1754 1747 1646 1520 1647 1777 1628 1343 1105 1244 1520
0 0 0 0 0 0 0 0 0 0 0 0 0 0 0 0 0 0 0 0 0 227 762 1038 1010 969 1019 905 782 878 1007 1256 1712 1760 1785 1856 1890 1743 1776 1889 1911 1692 1449 1219
0 0 0 0 0 0 0 0 0 0 0 0 0 0 0 0 1 1 0 0 3 304 864 1165 1218 1153 1215 1111 903 890 947 1100 1633 1769 1867 2031 2039 2155 2068 2049 2144 2156 2006 1871
0 0 0 0 0 0 0 0 0 0 0 0 0 0 13 104 178 98 44 0 0 27 297 581 1057 1270 1359 1246 1052 929 979 1078 1199 1550 1908 2127 2356 2304 2402 2434 2374 2365 2373 2445
0 0 0 0 0 0 0 0 0 0 0 0 0 116 287 221 61 413 476 498 132 1 1 119 384 803 1221 1594 1509 1271 1169 1217 1264 1350 1455 2085 2310 2494 2591 2586 2625 2618 2644 2556
0 0 0 0 0 0 0 0 0 0 0 0 0 271 220 46 58 388 530 836 807 353 113 17 47 151 34 396 1569 1740 1629 1556 1510 1486 1620 1669 2177 2425 2552 2618 2674 2769 2742 2728
0 0 0 0 0 0 0 0 0 0 0 0 0 0 11 64 76 86 301 584 1105 1229 980 878 787 448 122 149 261 1545 1895 2003 1947 1828 1671 1772 1840 2068 2425 2607 2783 2846 2958 2880
0 0 0 0 0 0 1 0 0 0 0 0 0 0 0 0 0 3 15 122 458 885 1436 2190 1773 1712 1702 946 644 1123 1844 2101 2020 2206 2289 2263 2308 2233 2385 2512 2665 2828 2866 3026
0 0 0 2 1 1 0 2 0 0 0 0 0 0 0 0 0 0 0 0 0 56 709 1390 2160 2453 2427 2191 2034 1592 2031 2216 2155 1913 2225 2344 2540 2793 2913 2864 2853 2910 3074 3120
0 0 0 0 0 0 0 0 0 0 0 0 0 0 0 0 0 0 0 0 0 0 18 429 1197 1930 1972 1965 2071 2129 2224 2346 2444 1939 1715 1663 1512 2212 2602 2840 2988 3061 3238 3443
0 0 0 0 0 0 0 0 0 0 0 0 0 0 0 0 0 0 0 0 0 0 1 145 670 1208 1608 1442 1190 1034 1163 1588 2444 2584 2836 2700 2353 2461 2805 2397 2412 3360 3439 3505
0 1 2 0 0 0 0 0 0 0 0 0 0 0 0 0 0 0 0 0 0 0 0 136 403 798 1190 1273 1084 907 1056 1304 1485 2257 3025 3721 3586 3429 3337 2548 1548 239 1088 2225

GFSCGP_con_mlcape_039.txt.gz
CAPE
0 0 0 0 0 0 0 0 0 0 0 0 0 7 163 257 250 206 167 107 88 70 119 131 159 72 42 31 0 0 0 0 63 11 0 108 160 101 357 442 480 333 830 1203
0 0 0 0 0 0 0 0 0 0 0 0 0 0 103 224 260 240 170 120 120 98 92 88 101 142 17 45 4 0 0 0 12 30 103 133 60 0 47 308 457 303 686 982
0 0 0 0 0 0 0 0 0 0 0 0 0 0 3 214 297 294 252 112 116 99 99 85 72 91 74 0 0 0 0 0 0 62 78 89 16 0 0 66 363 303 372 547
0 0 0 0 0 0 0 0 0 0 0 0 0 0 74 231 233 278 353 211 187 150 101 122 101 69 60 0 0 0 0 0 0 59 105 66 0 0 0 0 168 324 358 450
0 0 0 0 0 0 0 0 0 0 0 0 0 0 0 235 203 248 341 296 337 275 194 133 132 125 115 23 0 0 0 0 0 1 23 2 0 0 0 0 3 377 311 460
0 0 0 0 0 0 0 0 0 0 0 0 0 0 0 0 187 241 345 295 310 339 283 253 166 157 187 88 15 0 0 1 0 0 0 0 0 0 0 0 0 224 435 397
0 0 0 0 0 0 0 0 0 0 0 0 0 0 0 0 0 103 194 237 189 140 261 255 172 214 216 199 77 15 6 23 5 0 0 0 0 0 0 0 0 150 362 451
0 0 0 0 0 0 0 0 0 0 0 0 0 0 0 0 0 0 65 87 102 56 105 239 205 171 194 204 136 81 87 52 35 16 20 36 23 1 32 21 56 265 380 481
0 0 0 0 0 0 0 0 0 0 0 0 0 0 0 0 0 0 0 43 29 25 40 154 287 198 122 146 159 152 159 190 117 36 104 191 140 138 140 139 109 80 375 442
0 0 0 0 0 0 0 0 0 0 0 0 0 0 0 0 0 0 0 10 35 41 55 99 260 242 159 134 165 176 171 257 242 170 213 287 302 310 336 284 270 129 385 508
0 0 0 0 0 0 0 0 0 0 0 0 0 0 0 0 0 0 0 0 33 29 61 106 228 276 218 119 260 203 206 216 394 428 384 395 475 488 512 504 406 435 319 486
2 3 0 0 0 0 0 0 0 0 0 0 0 0 0 0 0 0 0 0 0 47 131 169 192 225 266 219 298 394 277 286 347 565 515 550 657 737 804 665 541 489 595 602
0 1 0 0 0 0 0 0 0 0 0 0 0 0 0 0 0 0 0 0 0 7 134 226 216 199 297 285 277 558 527 448 378 602 695 662 664 686 820 1094 1041 614 544 668
28 1 0 0 0 0 0 0 0 0 0 0 0 0 0 0 0 0 0 0 0 0 49 259 270 94 329 358 282 517 783 762 644 721 891 959 968 895 726 734 1046 1237 882 703
2 0 0 0 0 0 0 0 0 0 0 0 0 0 0 0 0 0 0 0 0 0 0 220 255 110 285 388 350 585 904 1133 1028 978 1094 1153 1194 1215 1127 956 876 1097 1183 930
2 0 0 0 0 0 0 0 0 0 0 0 0 0 0 0 0 0 0 0 0 0 0 42 252 288 365 405 402 496 905 1314 1359 1259 1210 1212 1204 1303 1314 1239 1146 999 1105 1264
0 0 0 0 0 0 0 0 0 0 0 0 0 0 0 0 0 6 1 0 0 0 1 83 242 412 473 492 451 526 806 1200 1507 1472 1452 1418 1343 1292 1358 1418 1422 1293 1068 1107
0 0 0 0 0 0 0 0 0 0 0 0 0 0 23 47 185 122 179 16 0 0 0 78 403 588 580 592 552 529 875 1000 1423 1600 1622 1657 1692 1594 1514 1602 1683 1686 1589 1353
0 0 0 0 0 0 0 0 0 0 0 0 0 59 405 340 185 256 139 320 32 13 163 420 653 735 713 789 731 707 895 1046 1253 1498 1680 1823 1854 1842 1926 1864 1807 1874 1946 1961
0 0 0 0 0 0 0 0 0 0 0 0 0 0 111 144 53 179 91 304 566 564 405 648 839 937 1012 987 859 860 965 1014 1125 1403 1679 1895 1956 2021 2057 2127 2139 2097 2198 2211
0 0 0 0 2 0 0 0 0 0 0 0 0 0 0 28 18 3 0 325 728 1119 990 733 622 744 768 1061 1160 1165 1102 1164 1186 1113 1219 1565 1912 2023 2229 2248 2337 2410 2451 2519
0 0 1 1 0 0 0 0 0 0 0 0 0 0 0 0 0 0 0 83 542 882 1072 1266 908 737 939 1041 1353 1388 1482 1578 1340 1230 1274 1376 1464 1957 2146 2376 2445 2511 2613 2644
0 0 0 1 1 0 7 4 0 0 0 0 0 0 0 0 0 0 0 0 28 522 1217 1522 1720 1738 1778 1866 1982 2058 2225 2478 1934 1907 1902 1684 1639 1670 1829 2171 2309 2559 2670 2740
0 1 0 0 0 0 0 0 0 0 0 0 0 0 0 0 0 0 0 0 0 27 451 994 1421 1438 1298 1096 1240 1483 1883 2142 2239 2132 2235 2145 2306 2311 2118 2129 2289 2432 2619 2739
3 1 1 0 0 0 0 0 0 0 0 0 0 0 0 0 0 0 0 0 0 0 1 131 721 1194 1126 866 846 893 1035 1283 2085 2205 2340 2789 2492 2048 2233 1659 1915 2648 2735 2765
3 1 1 0 0 0 0 0 0 0 0 0 0 0 0 0 0 0 0 0 0 0 0 6 101 543 656 622 694 813 883 896 878 1501 2073 2557 3077 2832 1826 1143 845 67 869 1848

GFSCGP_con_mlcape_042.txt.gz
CAPE
0 0 0 0 0 0 0 0 0 0 0 0 0 27 118 221 157 122 49 1 0 0 3 62 79 37 26 43 0 0 0 0 0 0 0 0 0 6 152 156 302 292 353 706
0 0 0 0 0 0 0 0 0 0 0 0 0 0 111 202 165 133 125 52 20 11 23 57 83 56 22 8 0 0 0 0 0 0 0 0 0 35 117 289 365 348 391 901
0 0 0 0 0 0 0 0 0 0 0 0 0 0 0 139 242 199 100 37 36 40 29 44 52 75 22 4 0 0 0 0 0 0 0 0 0 5 0 55 245 305 366 618
0 0 0 0 0 0 0 0 0 0 0 0 0 0 0 34 75 182 148 97 49 68 58 47 38 27 33 27 0 0 0 0 0 0 0 0 10 61 28 0 119 241 269 441
0 0 0 0 0 0 0 0 0 0 0 0 0 0 0 0 7 64 209 195 83 69 67 66 46 26 60 0 0 0 0 0 0 0 0 0 0 0 0 0 0 165 208 281
0 0 0 0 0 0 0 0 0 0 0 0 0 0 0 0 0 41 199 225 191 95 71 86 61 17 0 0 0 0 0 0 0 0 0 0 0 0 0 0 0 0 123 213
0 0 0 0 0 0 0 0 0 0 0 0 0 0 0 0 0 25 54 185 214 199 107 101 81 63 30 0 0 0 0 0 0 0 0 0 0 0 0 0 0 0 0 182
0 0 0 0 0 0 0 0 0 0 0 0 0 0 0 0 0 0 65 97 192 225 194 151 129 102 61 42 0 0 0 0 0 0 0 0 0 0 0 0 0 0 0 53
0 0 0 0 0 0 0 0 0 0 0 0 0 0 0 0 0 0 11 103 151 216 209 198 220 172 94 58 55 4 0 0 0 0 0 0 0 0 0 0 0 0 0 68
0 0 0 0 0 0 0 0 0 0 0 0 0 0 0 0 0 0 0 0 38 140 94 103 160 153 133 103 98 25 0 5 0 0 0 0 0 0 0 0 0 8 2 94
0 0 0 0 0 0 0 0 0 0 0 0 0 0 0 0 0 0 0 0 0 47 44 35 71 156 124 120 123 69 35 41 21 12 24 46 66 25 32 27 28 22 50 66
0 2 0 0 0 0 0 0 0 0 0 0 0 0 0 0 0 0 0 0 0 17 41 20 32 100 141 96 111 95 71 71 125 122 111 125 177 163 120 146 124 106 109 162
0 0 0 0 0 0 0 0 0 0 0 0 0 0 0 0 0 0 0 0 0 0 29 49 45 53 123 129 115 121 103 113 173 225 210 200 246 279 245 285 267 219 268 231
22 0 0 0 0 0 0 0 0 0 0 0 0 0 0 0 0 0 0 0 0 0 7 39 68 104 162 187 137 179 149 139 171 313 345 327 347 381 437 444 444 320 365 449
0 0 1 0 0 0 0 0 0 0 0 0 0 0 0 0 0 0 0 0 0 0 0 1 29 90 167 210 175 308 304 219 224 300 490 485 479 524 550 664 781 666 475 509
0 0 2 0 0 0 0 0 0 0 0 0 0 0 0 0 0 0 0 0 0 0 0 0 2 91 142 203 254 337 478 443 371 355 532 599 604 586 580 537 592 881 881 805
0 4 0 0 0 0 0 0 0 0 0 0 0 0 0 0 1 1 0 0 0 0 0 0 0 78 130 238 280 333 526 676 641 581 626 777 835 866 816 752 672 663 812 1002
0 0 0 0 0 0 0 0 0 0 0 0 0 0 0 1 136 101 33 0 29 0 0 0 4 90 149 256 323 288 598 931 912 877 908 1029 1094 1085 1099 1093 1034 955 887 909
0 0 0 0 0 0 0 0 0 0 0 0 0 0 4 150 103 236 19 0 159 442 0 4 74 175 194 265 339 391 691 1098 1151 1106 1169 1238 1262 1210 1217 1258 1280 1273 1266 1141
3 0 0 0 0 31 0 0 0 0 0 0 0 0 0 111 18 67 1 39 234 675 160 3 94 233 319 369 378 502 684 998 1153 1221 1343 1484 1488 1430 1365 1347 1349 1472 1561 1551
0 0 0 2 3 1 1 0 0 0 0 0 0 0 0 0 0 0 7 139 282 860 725 368 421 492 495 499 493 616 736 861 1001 1270 1524 1562 1643 1666 1677 1664 1655 1678 1773 1854
0 0 0 0 1 1 3 0 0 0 0 0 0 0 0 0 0 0 9 123 229 526 831 992 920 795 598 634 693 748 801 816 859 1098 1403 1574 1722 1863 1941 1951 2024 2114 2115 2164
0 0 0 0 1 0 2 0 0 0 0 0 0 0 0 0 0 0 0 1 20 204 471 766 887 951 981 963 972 1073 1353 1386 990 993 1134 1277 1627 1836 2054 2128 2145 2258 2369 2437
0 4 0 1 0 0 0 0 0 0 0 0 0 0 0 0 0 0 0 0 0 0 102 343 681 862 1031 1201 1463 1696 1966 1926 1605 1480 1308 1288 1397 1544 1867 2064 2247 2341 2391 2504
1 1 0 0 0 0 0 0 0 0 0 0 0 0 0 0 0 0 0 0 0 0 0 72 354 487 492 619 806 897 1119 1824 2126 2334 2428 2058 1895 1668 1530 1021 1330 2135 2266 2419
4 1 1 0 0 1 0 0 0 0 0 0 0 0 0 0 0 0 0 0 0 0 0 2 283 327 345 548 770 837 807 676 1049 1961 2206 2765 2430 1947 1529 1269 844 4 349 1105

GFSCGP_con_mlcape_045.txt.gz
CAPE
0 0 0 0 0 0 0 0 0 0 0 14 74 72 230 345 253 71 0 0 0 0 0 0 37 61 168 206 127 87 22 58 40 0 0 0 0 0 90 391 647 737 763 1010
0 0 0 0 0 0 0 0 0 0 0 0 15 52 72 333 252 191 42 0 0 0 0 0 60 67 100 191 105 78 10 6 0 0 4 5 23 235 570 858 796 872 796 1193
0 0 0 0 0 0 0 0 0 0 0 0 0 0 0 272 406 386 264 27 0 0 4 8 43 107 81 122 140 92 10 0 0 0 63 17 166 227 356 621 867 864 860 1137
0 0 0 0 0 0 0 0 0 0 0 0 0 0 0 6 129 289 341 280 119 2 0 0 0 85 84 88 92 77 17 0 0 1 0 0 29 149 344 484 658 708 896 977
0 0 0 0 0 0 0 0 0 0 0 0 0 0 0 3 49 71 315 364 286 160 47 17 31 68 86 75 47 32 34 0 44 125 30 37 53 176 430 419 445 691 759 915
0 0 0 0 0 0 0 0 0 0 0 0 0 0 0 0 3 79 238 395 393 275 210 139 67 46 55 56 46 0 4 0 11 124 65 55 80 174 237 271 266 422 761 791
0 0 0 0 0 0 0 0 0 0 0 0 0 0 0 0 0 26 101 214 396 375 275 207 135 83 80 64 73 51 0 0 0 61 86 93 132 198 98 197 235 212 302 660
0 0 0 0 0 0 0 0 0 0 0 0 0 0 0 0 0 2 85 224 401 439 331 290 182 161 134 112 154 69 57 27 0 29 101 142 186 169 168 263 230 240 161 257
0 0 0 0 0 0 0 0 0 0 0 0 0 0 0 0 0 0 1 181 304 463 434 362 303 201 197 132 76 133 126 67 11 1 140 213 239 207 197 284 319 285 245 224
0 0 0 0 0 0 0 0 0 0 0 0 0 0 0 0 0 0 0 36 127 322 483 453 413 317 231 180 150 89 89 87 84 9 78 212 235 269 289 353 263 275 252 208
0 0 0 0 0 0 0 0 0 0 0 0 0 0 0 0 0 0 0 0 37 146 351 462 592 503 369 243 266 188 92 108 81 45 78 139 250 249 304 298 334 401 290 334
0 0 0 0 0 0 0 0 0 1 0 0 0 0 0 0 0 0 0 0 0 63 177 258 519 550 524 446 359 342 253 186 156 141 87 82 206 248 246 284 377 434 339 430
0 0 0 0 0 0 0 0 0 0 0 0 0 0 0 0 0 0 0 0 0 8 90 219 269 380 553 531 503 461 402 299 278 248 191 156 173 248 301 354 496 530 406 470
0 0 0 0 0 0 0 0 0 0 2 0 1 0 0 0 0 0 0 0 0 0 14 141 146 181 352 446 534 550 485 387 375 352 341 361 364 359 441 539 653 652 556 582
1 0 0 0 0 0 0 0 0 0 0 2 0 0 0 0 0 0 0 0 0 0 0 21 45 86 138 453 433 537 549 488 445 535 515 528 559 625 685 797 826 817 740 769
0 0 1 0 0 0 0 0 0 0 0 0 0 0 0 0 0 0 0 0 0 0 0 0 47 77 107 301 415 426 522 559 571 633 652 693 716 756 794 921 958 943 825 851
4 0 1 0 0 0 1 0 0 0 0 0 0 0 0 0 0 0 0 0 0 0 45 21 0 58 134 279 543 466 557 668 653 677 811 880 918 912 956 1044 1135 1151 1010 1067
10 3 9 0 1 1 0 1 0 2 0 0 0 0 0 0 246 147 7 0 0 8 12 59 41 2 178 301 487 649 754 744 711 756 846 1006 1039 1036 1115 1184 1218 1295 1443 1457
10 3 7 14 5 1 81 3 1 7 0 0 0 0 0 219 692 523 18 0 3 20 111 518 502 0 140 383 609 740 970 931 851 862 890 1077 1192 1207 1312 1318 1298 1280 1294 1377
5 16 10 2 1 0 4 0 0 0 0 0 0 0 0 330 77 130 0 0 19 323 933 511 35 0 215 465 644 820 1079 1097 976 1028 1050 1255 1398 1416 1505 1548 1563 1589 1524 1436
6 3 4 0 1 0 4 2 0 23 0 0 0 0 4 24 1 2 2 1 2 173 724 462 230 263 439 653 787 900 1217 1182 1309 1500 1517 1573 1629 1684 1731 1772 1895 1969 1902 1904
0 0 0 0 0 0 2 0 0 0 0 0 0 0 6 0 0 0 0 0 1 96 407 960 681 664 568 630 795 936 1143 1656 1831 1914 1790 1798 1876 1859 1972 1958 2017 2077 2158 2197
0 0 0 0 0 1 6 3 0 0 0 0 0 0 0 0 0 0 0 0 0 21 360 745 1112 1169 1122 920 1003 1072 1207 1552 1622 1791 1851 1970 2117 2131 2241 2238 2245 2268 2359 2343
0 4 0 0 2 5 2 1 1 0 0 0 0 0 0 0 0 0 0 0 0 0 77 426 818 974 1111 1405 1615 1726 1808 1354 1455 1565 1758 2006 2081 2174 2314 2446 2536 2558 2650 2676
1 1 0 0 2 1 0 0 2 1 0 0 0 0 0 0 0 0 0 0 0 0 0 105 382 680 871 1068 1108 1176 1595 2195 1664 1467 1521 1687 1993 2011 2408 2561 2224 2751 2807 2773
4 1 1 0 3 4 2 1 4 0 0 0 0 0 0 0 0 0 0 0 0 0 0 0 30 377 498 485 447 414 416 963 2196 2868 2312 1838 1732 1803 2319 1364 910 43 471 1084

GFSCGP_con_mlcape_048.txt.gz
CAPE
0 0 0 0 0 0 0 0 0 0 0 126 231 236 307 632 502 448 396 250 98 39 0 0 11 0 1 0 0 0 96 184 203 62 0 65 245 334 537 669 1049 1497 1374 1535
0 0 0 0 0 0 0 0 0 0 0 8 188 201 197 683 582 433 378 248 105 25 0 0 8 31 29 43 75 107 107 280 383 0 0 0 154 182 417 882 1382 1537 1483 1701
0 0 0 0 0 0 0 0 0 0 0 0 30 164 167 226 684 611 445 245 128 23 13 18 15 60 52 116 143 201 255 267 404 0 0 154 248 489 740 1062 1007 1313 1554 1645
0 0 0 0 0 0 0 0 0 0 0 0 0 26 77 121 417 543 628 406 175 98 36 44 35 73 83 133 234 232 441 387 370 63 0 88 146 119 98 532 645 1156 1568 1547
0 0 0 0 0 0 0 0 0 0 0 0 0 1 52 111 114 478 570 607 339 153 99 73 109 155 80 89 228 352 509 532 303 303 7 7 4 0 18 306 642 1009 1660 1607
0 0 0 0 0 0 0 0 0 0 0 0 0 0 0 57 88 100 416 455 512 417 199 149 122 196 216 130 167 297 540 738 460 256 190 91 0 0 9 246 328 473 709 1235
0 0 0 0 0 0 0 0 0 0 0 0 0 0 0 7 43 91 165 358 484 506 488 298 195 189 287 281 172 174 445 820 627 443 543 175 169 111 234 574 383 248 159 393
0 0 0 0 0 0 0 0 0 0 0 0 0 0 0 0 0 2 114 207 400 487 538 571 463 236 278 346 279 232 310 748 784 463 729 898 596 289 303 632 469 378 130 133
0 0 0 0 0 0 0 0 0 0 0 0 0 0 0 0 0 0 0 48 120 385 535 655 692 524 341 415 436 479 508 603 698 505 801 989 886 646 413 619 708 543 582 271
0 0 0 0 0 0 0 0 0 0 0 0 0 0 0 0 0 0 0 0 57 304 535 680 746 717 508 454 461 443 474 667 657 491 557 689 668 850 755 755 838 888 616 840
0 0 0 0 0 0 0 0 0 4 0 0 0 0 0 0 0 0 0 0 1 175 507 657 749 768 692 517 461 533 554 643 768 699 637 609 609 656 917 826 892 1087 1070 986
0 0 0 0 0 0 0 0 0 4 0 0 0 0 0 0 0 0 0 0 0 55 267 513 608 674 720 691 543 506 558 603 701 767 959 725 749 732 675 956 953 1154 1259 1269
0 0 0 0 0 0 0 0 0 0 0 4 0 0 0 0 0 0 0 0 0 13 97 359 441 549 674 767 728 584 562 535 586 708 695 603 655 714 762 1010 1148 1219 1323 1453
0 0 0 0 0 0 0 0 0 5 8 0 0 1 11 0 0 0 0 0 0 0 5 71 241 369 719 795 1092 965 709 585 515 665 660 768 768 810 846 1073 1258 1236 1409 1550
4 1 0 0 0 0 0 0 0 0 0 0 0 5 0 0 0 0 0 0 0 0 1 60 108 273 735 979 1330 1262 945 867 733 927 754 965 1116 1090 1105 1279 1369 1391 1522 1613
16 5 2 0 0 0 0 0 0 0 0 0 0 0 0 0 0 0 0 0 0 0 0 0 13 99 352 804 1312 1519 1402 1138 1042 1281 1127 1203 1511 1460 1439 1561 1672 1644 1643 1741
12 14 14 0 0 0 0 0 0 0 0 0 0 0 0 1 0 0 0 0 7 31 54 91 40 22 126 501 1079 1257 1510 1345 1252 1457 1454 1500 1688 1715 1744 1732 1882 1810 1766 1870
26 21 28 1 0 19 0 0 0 0 0 0 0 0 0 5 6 628 358 217 180 123 125 187 247 287 32 224 490 993 1156 1488 1512 1628 1667 1743 1900 1861 1969 2005 2037 2134 1986 2004
28 31 10 26 2 0 0 0 0 0 0 0 0 0 0 0 31 758 361 141 223 185 276 431 513 531 671 70 290 841 974 1330 1564 1680 1821 1877 1974 1933 1977 2013 2103 2101 2125 2125
4 34 35 14 7 3 0 0 0 3 2 49 13 42 4 1 51 93 65 0 79 148 294 525 1008 1233 973 949 219 567 1075 1227 1637 1718 1802 2052 2129 2102 2092 2171 2168 2257 2241 2271
5 34 10 4 13 5 0 0 2 0 22 0 0 0 29 74 13 0 0 0 0 19 265 827 1192 1233 1085 796 253 871 1226 1347 1709 1576 1689 1959 2189 2248 2291 2445 2465 2366 2219 2155
3 2 4 11 6 0 0 1 2 6 0 1 0 0 0 0 0 0 0 0 0 8 636 1360 875 463 331 147 734 1434 1514 1710 1830 1824 1891 2131 2376 2133 2199 2610 2647 2561 2510 2465
0 0 1 0 0 0 0 2 19 2 4 2 0 0 0 0 0 0 0 0 0 0 113 1350 1360 913 813 987 1013 1459 1794 1881 1921 1999 2228 2333 2430 2411 2486 2729 2880 2761 2875 2587
0 2 0 0 1 1 4 13 25 11 4 1 0 0 0 0 0 0 0 0 0 0 0 349 1122 1692 1625 1336 1340 1515 1857 2257 2307 2367 2460 2560 2714 2672 2507 2760 2785 2670 2682 2680
1 1 0 0 1 3 10 11 25 13 3 1 0 0 0 0 0 0 0 0 0 0 0 0 174 680 856 1037 1299 2023 2268 2166 2410 2536 2644 2757 2797 2702 2807 2785 1943 2753 2726 2500
6 1 0 0 3 4 2 14 24 13 2 1 0 0 1 0 0 0 0 0 0 0 0 0 0 28 113 194 489 843 1562 2437 1904 2076 2285 2434 2482 2774 2802 2916 1774 278 168 498

GFSCGP_con_mlcape_051.txt.gz
CAPE
0 0 0 0 0 0 0 0 0 0 2 84 81 143 62 492 588 618 607 495 277 215 118 104 67 41 14 6 2 35 121 357 265 242 262 290 322 375 535 797 1210 1452 1210 1244
0 0 0 0 0 0 0 0 0 0 0 103 170 157 322 419 447 636 624 614 338 246 134 102 60 46 7 1 0 43 270 635 360 147 248 291 365 321 374 401 1134 1454 1434 1437
0 0 0 0 0 0 0 0 0 0 0 0 41 70 206 515 444 622 642 580 488 259 207 119 62 47 12 4 4 64 428 694 603 110 51 103 348 322 305 885 1080 1330 1534 1562
0 0 0 0 0 0 0 0 0 0 0 0 0 27 92 192 484 544 590 542 524 276 236 161 100 83 25 11 38 236 389 763 788 462 0 106 199 82 68 402 509 1046 1388 1542
0 0 0 0 0 0 0 0 0 0 0 0 0 13 32 160 154 428 657 572 458 398 176 161 141 127 86 12 151 150 634 778 684 694 101 76 207 17 43 44 1135 971 1592 1505
0 0 0 0 0 0 0 0 0 0 0 0 0 4 16 37 88 234 412 640 533 399 273 180 172 144 139 92 172 325 772 1043 1006 932 265 375 39 105 3 6 613 594 957 1143
0 0 0 0 0 0 0 0 0 0 0 0 0 0 0 39 42 64 294 492 602 414 352 271 224 210 296 258 271 488 863 1233 1203 1023 463 518 518 108 315 471 146 152 148 317
0 0 0 0 0 0 0 0 0 0 0 0 0 0 0 0 41 4 3 449 446 470 352 357 360 301 467 459 447 508 949 1328 1370 944 707 475 628 54 1 156 230 146 58 91
0 0 0 0 0 0 0 0 0 0 0 0 0 0 0 0 0 1 0 191 220 388 489 470 411 423 483 552 603 558 906 1325 1377 717 950 1012 740 138 0 0 610 965 465 180
0 0 0 0 0 0 0 0 0 0 0 0 0 0 0 0 0 0 0 2 150 210 443 529 659 553 509 560 656 652 790 1259 1368 956 1130 1104 1203 1262 539 731 1304 858 829 650
0 0 0 0 0 0 0 0 0 1 0 0 0 0 0 0 0 0 0 0 14 72 346 547 690 800 670 594 630 694 735 974 1094 1193 1163 795 877 1024 1110 1390 1426 1406 1258 1434
0 0 0 0 0 0 0 0 0 0 0 0 0 0 0 0 0 0 0 0 0 1 213 555 658 891 937 806 694 753 680 695 993 1058 1397 1139 974 879 929 1033 1455 1651 1770 1663
0 0 0 0 0 0 0 0 0 0 0 9 1 0 0 0 0 0 0 0 0 0 63 429 619 738 930 999 915 757 742 643 668 1091 1199 1225 969 1114 890 1329 1390 1668 1852 2009
0 0 0 0 0 0 0 0 0 0 9 1 0 10 4 4 0 7 0 0 0 0 44 173 500 493 769 1029 1224 1128 860 684 544 776 871 1165 1282 1314 1102 1167 1590 1691 1960 2159
0 0 0 0 0 0 0 0 0 0 0 0 0 0 2 2 4 16 1 0 0 0 18 101 310 550 973 1078 1454 1473 1069 1036 739 820 826 1111 1461 1370 1385 1234 1679 1852 2105 2222
14 3 3 2 0 0 0 0 0 0 0 0 0 0 0 0 0 0 0 11 0 0 0 10 88 195 734 1207 1536 1750 1463 1332 1060 1090 983 1023 1396 1395 1371 1381 1775 2056 2212 2331
22 26 23 7 10 0 0 0 0 0 0 0 0 0 0 0 0 0 0 13 1 4 0 2 0 81 157 575 1395 1514 1805 1481 1473 1506 1302 1355 1668 1706 1708 1742 1967 2146 2230 2484
28 54 61 12 18 2 1 0 0 0 0 0 0 0 0 0 0 0 14 595 520 317 79 74 101 62 36 229 523 1121 1557 1880 1840 1641 2073 1617 1984 2066 2105 2155 2189 2289 2405 2344
48 58 86 23 19 4 1 0 0 2 0 0 0 0 0 0 0 0 0 779 602 604 615 564 545 440 399 114 134 810 1262 2183 1951 2231 2087 2157 2141 2335 2508 2498 2519 2645 2660 2616
42 97 57 64 15 11 0 1 29 0 0 0 0 0 0 0 0 0 319 926 715 586 517 614 709 725 775 848 486 356 1065 1534 2129 2356 2287 2438 2312 2544 2689 2736 2807 3001 2943 2903
9 78 17 26 8 12 0 33 0 0 0 0 0 0 0 0 0 15 117 193 125 358 582 730 1014 1014 1171 1318 1001 550 841 1423 2009 2272 2487 2687 2605 2809 2893 2991 3072 3131 3103 2535
13 14 15 14 26 16 8 0 0 0 0 0 1 10 3 135 422 40 0 0 0 9 92 457 1693 1737 1728 1660 1734 1484 959 1552 1867 2257 2396 2662 2899 2740 2715 3144 3215 3228 3233 3078
2 19 3 19 8 12 22 1 1 0 2 0 23 262 471 252 61 0 0 0 0 1 2 196 1641 1998 1084 1064 1694 1822 1028 2063 2078 2300 2470 2649 2962 3064 2784 3151 3369 3162 3217 2634
0 2 0 0 0 1 3 0 8 4 3 15 2 0 0 0 0 0 0 0 2 3 1 1 734 2362 2180 1942 1081 1061 2602 2277 2565 2617 2597 2877 2939 3088 2887 2950 3156 2717 2633 2674
1 1 0 0 1 1 5 9 8 18 27 17 3 4 4 3 1 4 4 0 0 1 0 3 5 98 534 1095 1699 1906 2233 2444 2515 2676 2846 2791 2771 2769 2887 3111 2697 2750 1445 1813
3 1 0 0 1 3 4 6 14 17 4 2 10 0 0 0 11 20 10 0 0 0 0 0 1 2 2 4 22 398 1170 2588 2517 2694 2673 2792 2548 2849 2957 2066 1543 677 734 827

GFSCGP_con_mlcape_054.txt.gz
CAPE
0 0 0 0 0 0 0 0 0 0 0 85 94 61 0 0 21 384 471 285 159 43 42 35 11 15 34 0 0 234 220 722 497 408 600 531 252 248 245 679 1138 1369 1336 1341
0 0 0 0 0 0 0 0 0 0 0 30 230 119 43 0 41 259 381 280 155 116 47 44 5 10 25 0 0 213 271 698 410 656 630 603 264 453 607 290 1592 1300 1185 1315
0 0 0 0 0 0 0 0 0 0 0 5 22 45 11 0 0 50 333 239 222 200 170 128 8 19 26 0 0 146 437 649 427 544 368 707 810 918 343 1392 1260 1475 1309 1413
0 0 0 0 0 0 0 0 0 0 0 0 2 11 41 85 35 7 31 369 272 243 191 226 71 44 17 30 11 176 575 1030 400 493 158 290 347 449 33 1173 1193 1243 1560 1359
0 0 0 0 0 0 0 0 0 0 0 0 0 0 0 282 69 0 27 650 428 264 226 238 136 112 18 50 61 124 491 1052 700 416 407 68 325 237 568 136 1413 1457 1523 1788
0 0 0 0 0 0 0 0 0 0 0 0 0 0 0 67 119 1 9 256 367 314 262 244 230 142 66 91 72 318 378 683 989 360 667 192 113 414 269 65 1050 1445 1598 1602
0 0 0 0 0 0 0 0 0 0 0 0 0 0 0 0 294 138 28 0 4 487 282 309 309 260 162 78 159 331 540 471 915 1036 315 1000 183 164 524 373 971 947 1403 1051
0 0 0 0 0 0 0 0 0 0 0 0 0 0 0 0 8 177 22 20 63 428 342 302 296 308 227 126 198 343 802 710 804 1201 482 534 833 39 227 563 95 375 518 875
0 0 0 0 0 0 0 0 0 0 0 0 0 0 0 0 0 109 42 61 76 15 254 293 387 341 354 334 260 526 807 1019 1102 764 1203 373 1032 751 105 137 262 708 277 615
0 0 0 0 0 0 0 0 0 0 0 0 0 0 0 0 0 0 23 0 0 0 59 191 445 483 595 470 566 512 934 1136 1320 1107 1160 889 329 787 415 1 60 220 1008 492
0 0 0 0 0 0 0 0 0 0 0 0 0 0 0 5 0 0 17 23 0 57 54 6 97 670 662 691 821 665 849 1280 1487 1507 1110 940 732 502 211 573 3 1068 524 1577
0 0 0 0 0 0 0 0 0 0 0 0 0 0 0 1 0 0 0 1 106 260 103 56 79 2 726 787 808 890 830 1312 1547 1659 1281 1000 1000 663 510 6 1239 763 1795 1176
0 0 0 0 0 0 0 0 0 0 0 0 0 0 0 0 0 0 0 0 0 302 152 1 19 38 747 745 850 1016 944 916 1519 1740 1424 1316 1070 1147 1023 648 448 1532 1276 1835
0 0 0 0 0 0 0 0 0 0 0 0 0 0 0 0 1 0 5 9 0 25 138 138 530 395 854 861 827 910 1037 1035 1061 1542 1558 1464 1282 1150 924 1214 723 1473 1879 1646
0 0 0 0 0 0 0 0 0 0 0 0 0 0 0 0 0 0 0 0 6 4 0 6 124 138 512 1171 1003 953 1074 979 1015 1153 1347 1534 1694 1423 1217 1106 1335 935 1425 1921
11 0 0 1 0 0 0 0 0 0 0 0 0 0 0 0 0 0 0 0 0 0 29 13 9 721 1127 1326 1216 1178 1079 1128 1020 977 1231 1368 1586 1584 1468 1206 1388 1573 1441 1836
58 42 13 1 1 0 0 0 0 0 0 0 0 0 0 0 0 0 0 0 0 0 1 16 1 29 88 1163 1542 1467 1330 1244 1169 1106 1178 1280 1624 1792 1559 1719 1293 1708 1703 1844
43 44 53 3 18 14 0 0 0 0 0 0 0 0 0 0 0 0 0 0 0 0 0 484 42 58 231 76 99 2011 1776 1440 1496 1296 1470 1344 1557 1713 1889 1698 1816 1515 1887 1911
34 51 33 6 19 0 0 0 0 2 0 0 0 0 0 0 0 0 0 0 0 0 0 614 461 312 284 383 631 1630 2128 1820 1628 1703 1579 1626 1472 1742 1809 1818 1766 1771 2000 2214
15 23 27 14 18 5 0 0 0 0 0 0 0 0 0 0 0 0 0 0 0 46 729 554 513 506 509 476 640 698 1572 2298 1785 1770 1938 2069 1593 1961 1944 1934 1933 2021 2175 2344
11 29 12 11 21 2 3 0 21 0 0 0 0 0 0 0 0 0 0 0 247 262 270 673 765 892 769 784 981 958 813 1473 2477 1988 2074 2200 2215 1977 2399 2419 2418 2434 2552 2644
6 5 12 13 29 8 46 21 28 2 0 0 0 0 0 0 0 0 0 107 275 323 259 354 720 924 1519 1884 1348 1027 1357 1286 1938 2588 2164 2728 2631 2391 2643 2765 2939 2859 2849 2967
0 2 0 0 1 0 0 8 0 3 0 0 0 0 0 0 0 0 388 287 102 13 53 62 440 1303 2805 2298 2578 1550 1632 1905 1969 2391 2447 2577 2797 2913 2753 2989 3097 3195 3153 3170
1 0 0 0 0 1 0 0 1 3 0 0 0 0 2 0 0 259 142 0 1 3 4 1 149 473 478 633 1257 2795 2029 2174 1925 2399 2714 2685 3052 3068 2910 3099 3197 3314 3250 3273
1 1 0 0 0 1 3 5 6 4 3 0 5 11 0 3 78 1 0 1 3 2 3 3 4 9 18 43 462 912 1261 2319 1835 2885 2862 2847 2988 3037 3165 2877 3279 3280 3161 3131
2 1 0 0 2 2 1 6 5 2 8 15 17 2 1 1 3 0 0 0 1 3 2 1 2 2 2 4 5 192 618 1458 3124 2993 3016 2928 3003 3077 3187 2821 2204 886 1854 1415

GFSCGP_con_mlcape_057.txt.gz
CAPE
0 0 0 0 0 0 0 0 0 0 0 19 256 394 261 48 25 166 356 290 131 53 133 80 10 8 10 0 0 0 145 107 135 117 42 351 217 335 361 776 1270 957 1095 811
0 0 0 0 0 0 0 0 0 0 0 0 140 296 144 134 25 67 176 295 190 160 193 54 17 10 21 0 0 0 89 124 345 224 125 369 274 117 225 678 874 1003 948 707
0 0 0 0 0 0 0 0 0 0 0 7 170 141 114 115 135 112 16 73 128 145 91 97 13 1 3 30 0 0 211 151 166 131 39 486 124 168 158 485 790 982 1151 1007
0 0 0 0 0 0 0 0 0 0 0 0 122 116 118 77 97 267 170 105 22 122 46 107 4 0 0 3 26 0 380 203 251 76 0 242 504 455 143 198 836 1154 1019 899
0 0 0 0 0 0 0 0 0 0 0 0 0 0 52 151 112 56 64 28 1 0 56 63 23 1 10 15 0 49 297 247 136 355 4 70 156 301 328 473 835 819 1034 1145
0 0 0 0 0 0 0 0 0 0 0 0 0 0 0 79 96 21 0 0 1 36 190 148 72 21 58 47 23 84 301 250 114 47 212 9 41 140 368 277 426 926 1241 1313
0 0 0 0 0 0 0 0 0 0 0 0 0 0 0 1 228 66 2 0 2 396 233 249 163 84 47 85 86 95 207 334 213 63 241 145 0 23 66 254 663 937 951 1233
0 0 0 0 0 0 0 0 0 0 0 0 0 0 0 0 208 163 55 16 287 258 90 300 256 182 119 165 100 122 121 283 483 148 17 295 147 0 124 640 1022 917 1044 932
0 0 0 0 0 0 0 0 0 0 0 0 0 0 0 0 18 105 116 287 213 77 202 174 384 251 220 211 173 143 148 126 507 379 12 91 486 1 16 111 503 604 939 922
0 0 0 0 0 0 0 0 0 0 0 0 0 0 0 0 0 100 171 281 319 234 393 393 398 386 224 243 228 230 329 175 423 532 265 3 202 376 0 6 108 376 58 252
0 0 0 0 0 0 0 0 0 0 0 0 0 0 0 0 0 62 176 250 374 293 202 88 31 354 172 202 211 304 623 430 401 410 677 156 30 474 279 33 0 166 238 1018
0 0 0 0 0 0 0 0 0 0 0 0 0 0 0 0 0 50 330 275 348 272 261 128 1 0 189 252 344 317 496 745 644 587 527 682 99 87 364 179 2 0 63 287
0 0 0 0 0 0 0 0 0 0 0 0 0 0 0 0 0 0 0 56 348 367 294 105 3 3 358 241 366 496 451 843 912 968 639 773 631 36 195 52 124 1 0 113
0 0 0 0 0 0 0 0 0 0 0 0 0 0 0 0 0 0 0 0 68 403 256 110 74 53 93 145 310 497 509 694 964 1088 1133 844 721 603 52 47 0 358 105 526
0 0 0 0 0 0 0 0 0 0 0 0 0 0 0 0 0 0 0 0 0 3 197 65 32 8 92 91 301 601 648 529 941 1175 1267 1153 900 670 636 166 89 0 806 278
1 0 0 0 0 0 0 0 0 0 0 0 0 0 0 0 0 0 0 0 0 0 0 0 0 0 61 54 183 57 472 712 630 1221 1391 1329 1108 895 748 770 766 259 0 1402
0 1 3 0 0 0 0 0 0 0 0 0 0 0 0 0 0 0 0 0 0 0 0 0 0 57 35 20 0 0 199 837 824 836 1342 1374 1224 1184 916 837 720 946 467 278
7 3 15 0 0 0 0 0 0 0 0 0 0 0 0 0 0 0 0 0 0 0 0 0 155 197 46 106 122 183 189 436 943 951 1052 1313 1330 1298 1284 1086 891 846 1004 727
15 17 12 0 0 0 0 0 0 0 0 0 0 0 0 0 0 0 0 0 0 0 0 0 0 5 331 27 33 122 19 2 246 1040 1040 1232 1265 1314 1430 1230 1171 921 1059 1222
0 0 9 1 0 0 0 0 1 0 0 0 0 0 0 0 0 0 0 0 0 0 0 0 0 0 0 534 47 0 1 1 226 537 1263 1169 1202 1381 1387 1358 1227 1370 989 1069
0 0 0 0 8 5 0 0 9 0 0 0 0 0 0 0 0 0 0 0 0 0 0 10 69 1 35 361 786 624 22 29 469 1080 1440 1489 1262 1360 1414 1498 1439 1340 1452 1263
1 0 0 0 5 0 0 0 0 1 0 0 0 0 0 0 0 0 0 0 0 0 0 46 0 10 77 615 843 1245 1138 929 980 1900 1776 1543 1605 1428 1586 1456 1540 1469 1436 1474
0 0 1 0 0 0 0 0 0 0 0 0 0 0 0 0 0 0 0 0 0 0 0 2 0 0 80 200 351 752 1301 1860 1765 1333 2136 2100 2080 1622 1738 1637 1569 1636 1672 1654
0 0 0 0 0 0 0 0 0 0 2 0 0 0 3 1 0 0 0 0 0 0 0 0 12 32 39 7 75 257 640 1208 1683 2055 2010 2145 2279 2207 1680 2154 1955 2010 2071 2085
1 0 1 0 0 2 1 0 2 2 1 2 3 0 0 0 0 0 0 0 8 0 0 1 1 5 0 0 17 21 27 351 1218 1940 2444 2319 2346 2407 2262 2287 2454 2418 2441 2385
0 0 0 0 0 4 2 2 2 2 1 1 2 3 1 24 11 4 1 20 7 0 0 0 1 2 1 0 1 1 1 15 536 1313 2251 2662 2351 2623 2624 2452 1812 767 1414 2008

GFSCGP_con_mlcape_060.txt.gz
CAPE
0 0 0 0 0 0 0 0 0 0 0 0 35 312 361 426 355 248 140 69 11 49 22 14 23 89 54 96 13 0 9 228 406 315 37 242 302 426 570 730 855 681 475 0
0 0 0 0 0 0 0 0 0 0 0 0 42 198 429 304 329 353 244 92 41 63 32 15 6 2 13 4 0 0 3 113 238 212 109 334 242 170 374 759 949 777 661 436
0 0 0 0 0 0 0 0 0 0 0 46 204 248 255 138 156 499 405 238 141 53 35 68 6 39 2 1 0 57 85 96 140 86 92 350 251 150 214 542 797 857 923 523
0 0 0 0 0 0 0 0 0 0 0 0 136 65 132 153 151 391 93 163 186 118 96 52 0 16 0 0 52 123 129 179 134 111 16 197 311 159 129 366 555 891 856 760
0 0 0 0 0 0 0 0 0 0 0 0 0 0 0 154 120 211 2 6 5 92 139 67 7 51 0 0 0 124 144 193 194 63 0 101 439 211 85 313 528 745 1009 850
0 0 0 0 0 0 0 0 0 0 0 0 0 0 0 51 175 306 289 94 66 118 107 124 21 14 13 0 0 115 88 99 180 97 4 10 225 357 444 182 452 659 1096 975
0 0 0 0 0 0 0 0 0 0 0 0 0 0 0 4 62 206 300 370 266 110 88 101 106 14 0 32 40 120 108 81 176 148 67 0 85 169 376 280 375 703 1004 952
0 0 0 0 0 0 0 0 0 0 0 0 0 0 0 0 75 235 275 380 69 118 38 171 175 55 0 21 52 136 136 91 117 190 180 50 45 72 139 379 536 915 931 850
0 0 0 0 0 0 0 0 0 0 0 0 0 0 0 0 0 155 205 134 34 61 176 181 194 81 14 12 25 65 132 86 72 65 49 123 145 64 40 405 747 779 864 830
0 0 0 0 0 0 0 0 0 0 0 0 0 0 0 0 0 0 103 159 122 139 270 342 237 124 94 105 39 19 76 106 93 69 21 11 93 190 5 2 437 1036 898 859
0 0 0 0 0 0 0 0 0 0 0 0 0 0 0 0 0 0 29 59 138 216 232 361 349 182 161 165 156 109 22 54 273 253 132 5 6 161 178 0 3 182 558 815
0 0 0 0 0 0 0 0 0 0 0 0 0 0 0 0 0 0 0 115 163 205 327 365 417 313 191 214 195 205 152 81 43 317 344 127 0 4 197 85 0 0 60 491
0 0 0 0 0 0 0 0 0 0 0 0 0 0 0 0 0 0 0 94 341 333 382 295 113 13 0 94 235 263 286 244 111 151 301 310 99 0 17 213 138 3 0 90
0 0 0 0 0 0 0 0 0 0 0 0 0 0 0 0 0 0 0 14 324 267 234 61 60 25 6 2 50 176 254 463 333 222 278 325 413 144 0 17 177 119 16 0
0 0 0 0 0 0 0 0 0 0 0 0 0 0 0 0 0 0 0 0 0 6 135 0 0 0 0 0 0 44 182 393 570 495 479 352 465 567 240 0 4 2 52 20
0 0 0 0 0 0 0 0 0 0 0 0 0 0 0 0 0 0 0 0 0 0 0 0 0 41 198 44 0 0 8 323 746 771 745 724 476 612 608 345 31 0 0 63
0 0 0 0 0 0 0 0 0 0 0 0 0 0 0 0 0 0 0 0 0 0 0 0 0 0 0 80 30 19 2 61 408 879 921 976 965 749 658 627 390 124 20 0
0 0 0 1 0 0 0 0 0 0 0 0 0 0 0 0 0 0 0 0 0 0 0 0 0 0 0 0 55 88 46 14 158 396 1074 1233 1205 1096 875 692 688 527 363 69
0 0 4 6 0 0 0 0 0 0 0 0 0 0 0 0 0 0 0 0 0 0 0 0 0 0 3 0 0 1 183 342 85 339 336 988 1461 1294 1104 944 816 750 739 640
0 0 0 0 0 0 0 0 0 0 0 0 0 0 0 0 0 0 0 0 0 0 0 0 0 0 9 185 49 124 212 37 174 195 400 243 524 1364 1227 1152 989 894 751 791
0 0 0 0 4 0 0 0 0 2 0 0 0 0 0 0 0 0 0 0 0 0 0 0 0 0 0 0 248 258 292 173 17 0 3 151 101 558 1294 1247 1187 1090 974 841
0 0 0 0 1 0 0 0 0 0 0 1 0 0 0 0 0 0 0 0 0 0 0 0 0 0 0 3 33 310 520 440 179 0 1 31 73 460 1061 1283 1289 1199 1164 1042
0 0 0 0 0 0 0 2 0 0 2 0 0 1 1 0 0 0 0 0 0 0 0 0 0 0 0 88 11 0 62 466 166 21 667 437 703 1182 1121 1233 1251 1270 1189 1296
1 0 0 0 0 0 1 0 2 3 2 1 0 0 2 2 0 0 0 0 0 0 0 0 0 0 0 0 0 0 1 33 46 0 136 1032 1400 1591 1325 1204 1171 1319 1289 1260
0 0 0 0 0 0 0 0 2 3 6 0 2 2 2 3 0 0 0 0 0 1 0 0 0 0 0 0 0 0 0 1 2 17 221 758 1472 1429 1572 1361 1397 1324 1383 1328
0 0 0 0 0 0 0 0 11 5 2 7 1 2 0 2 2 5 3 1 0 0 0 4 0 0 0 0 0 0 0 1 3 3 106 615 1708 1743 1922 1685 1331 433 671 1178

GFSCGP_con_mlcape_063.txt.gz
CAPE
0 0 0 0 0 0 0 0 0 0 0 0 0 0 196 355 462 208 175 66 18 21 0 0 3 5 18 30 22 19 50 192 246 148 104 238 273 303 376 285 593 602 451 210
0 0 0 0 0 0 0 0 0 0 0 0 0 0 286 403 468 289 207 126 26 0 0 0 0 21 25 5 1 0 18 140 272 152 100 230 313 280 286 437 671 697 425 5
0 0 0 0 0 0 0 0 0 0 0 0 33 52 372 328 332 399 238 138 25 4 0 1 7 53 19 9 4 0 0 72 242 192 120 201 229 167 285 587 664 832 688 500
0 0 0 0 0 0 0 0 0 0 0 0 63 0 203 218 199 311 423 272 95 17 26 57 14 45 66 10 14 0 0 28 216 190 97 200 196 202 201 396 564 875 1006 842
0 0 0 0 0 0 0 0 0 0 0 0 0 0 0 117 109 203 397 440 265 85 79 50 10 0 0 0 0 0 0 31 111 114 111 94 154 152 126 233 505 850 921 826
0 0 0 0 0 0 0 0 0 0 0 0 0 0 0 0 0 104 250 365 342 196 115 86 29 1 0 0 0 0 0 30 51 35 10 18 75 163 149 120 249 482 854 861
0 0 0 0 0 0 0 0 0 0 0 0 0 0 0 0 0 22 121 223 91 53 101 89 8 0 0 0 8 0 0 0 30 17 0 0 0 152 265 222 108 430 710 906
0 0 0 0 0 0 0 0 0 0 0 0 0 0 0 0 0 39 118 127 143 0 9 123 36 27 0 0 0 69 0 0 17 29 9 0 0 68 222 245 314 298 571 812
0 0 0 0 0 0 0 0 0 0 0 0 0 0 0 0 0 0 34 137 177 159 73 123 85 19 18 0 1 61 32 0 0 24 11 3 0 0 95 145 221 389 457 785
0 0 0 0 0 0 0 0 0 0 0 0 0 0 0 0 0 0 0 19 130 242 246 108 120 24 23 39 33 57 46 12 0 13 5 18 1 0 0 23 126 409 550 802
0 0 0 0 0 0 0 0 0 0 0 0 0 0 0 0 0 0 0 0 123 77 120 76 45 62 23 47 58 85 107 89 38 36 28 0 3 37 4 0 13 66 681 857
0 0 0 0 0 0 0 0 0 0 0 0 0 0 0 0 0 0 63 0 18 28 40 133 177 108 56 19 12 47 114 156 121 70 54 0 0 0 10 0 0 4 1 246
0 0 0 0 0 0 0 0 0 0 0 0 0 0 0 0 0 0 51 211 248 230 132 37 49 47 22 41 37 8 18 48 137 160 100 23 0 0 0 0 0 0 0 0
0 0 0 0 0 0 0 0 0 0 0 0 0 0 0 0 0 0 0 0 158 141 0 0 0 0 0 0 0 17 16 39 46 113 236 157 35 0 0 0 0 0 0 0
0 0 0 0 0 0 0 0 0 0 0 0 0 0 0 0 0 0 0 0 0 0 0 0 0 0 0 0 0 0 2 20 47 48 131 248 233 131 0 0 0 0 0 0
0 0 0 0 0 0 0 0 0 0 0 0 0 0 0 0 0 0 0 0 0 0 0 0 0 0 0 0 11 0 0 15 110 169 136 182 271 265 135 9 0 0 0 0
0 0 0 0 0 0 0 0 0 0 0 0 0 0 0 0 0 0 0 0 0 0 0 0 0 0 0 0 0 25 4 0 120 292 241 231 264 285 367 239 35 0 0 0
0 0 0 0 0 0 0 0 0 0 0 0 0 0 0 0 0 0 0 0 0 0 0 0 0 0 0 0 0 61 57 27 16 466 494 452 443 339 380 448 298 115 15 2
0 0 0 0 0 0 0 0 0 0 0 0 0 0 0 0 0 0 0 0 0 0 0 0 0 0 0 0 0 0 110 113 157 37 273 732 713 705 525 532 525 434 216 61
0 0 0 0 0 0 0 0 0 0 0 0 0 0 0 1 0 0 0 0 0 0 0 0 0 0 0 0 0 0 8 175 177 87 78 129 725 948 929 796 664 564 494 391
0 0 0 0 2 0 0 0 0 0 0 0 0 0 0 1 0 0 0 0 0 0 0 0 0 0 0 0 0 0 0 0 111 160 48 0 30 363 1112 1075 852 702 667 625
0 0 0 0 0 0 0 0 0 0 0 0 0 0 0 0 0 0 0 0 0 0 0 0 0 0 0 0 0 0 0 0 52 335 209 66 22 11 36 346 1129 948 838 676
0 0 0 0 0 0 0 0 0 1 2 0 0 0 0 1 1 2 0 0 0 0 0 0 0 0 0 0 0 0 0 0 0 0 36 119 102 301 141 73 382 1063 1105 1001
0 0 0 0 0 0 0 0 0 0 0 1 4 5 3 1 1 1 2 0 0 0 0 0 0 0 0 0 0 0 0 0 0 0 0 0 14 210 867 949 879 755 1173 1228
0 0 0 0 0 0 0 0 0 0 4 4 6 8 2 3 2 2 3 8 1 4 2 0 0 0 0 0 0 0 0 0 0 0 0 0 5 145 772 1185 1234 1086 1162 1215
0 0 0 0 0 0 0 0 0 0 2 6 4 1 6 6 2 2 1 1 0 6 1 0 0 0 0 0 0 0 0 0 0 0 0 0 0 0 192 1010 1253 570 883 1053

GFSCGP_con_mlcape_066.txt.gz
CAPE
0 0 0 0 0 0 0 0 0 0 0 0 0 0 0 193 425 293 102 19 6 0 0 5 0 0 16 27 29 43 60 135 63 56 182 162 153 207 230 237 280 452 409 348
0 0 0 0 0 0 0 0 0 0 0 0 0 0 13 190 395 364 173 53 27 1 0 0 0 0 0 10 19 35 39 106 159 92 104 167 181 198 245 285 313 515 498 96
0 0 0 0 0 0 0 0 0 0 0 0 0 8 105 435 437 465 294 108 11 2 0 0 0 0 0 0 0 0 19 55 184 54 76 108 126 170 225 253 352 629 566 168
0 0 0 0 0 0 0 0 0 0 0 0 0 0 4 275 386 459 355 198 73 6 0 0 0 5 0 5 0 0 0 24 133 62 78 87 134 183 250 245 434 608 790 659
0 0 0 0 0 0 0 0 0 0 0 0 0 0 0 115 390 378 412 326 183 55 0 0 0 0 0 0 0 0 0 7 63 90 54 40 76 149 145 202 429 531 777 837
0 0 0 0 0 0 0 0 0 0 0 0 0 0 0 0 44 101 323 407 315 188 89 47 0 2 1 0 0 0 0 0 20 85 92 60 45 74 118 128 224 415 707 800
0 0 0 0 0 0 0 0 0 0 0 0 0 0 0 0 0 0 17 173 418 304 205 109 25 12 15 28 20 0 0 0 5 1 93 75 28 65 78 77 88 170 370 675
0 0 0 0 0 0 0 0 0 0 0 0 0 0 0 0 0 0 0 64 259 387 299 151 69 5 0 0 1 14 0 0 0 0 0 47 26 17 64 83 77 86 247 457
0 0 0 0 0 0 0 0 0 0 0 0 0 0 0 0 0 0 0 0 101 197 266 206 109 41 2 11 2 34 2 0 0 2 0 0 0 0 33 117 139 206 305 343
0 0 0 0 0 0 0 0 0 0 0 0 0 0 0 0 0 0 0 0 22 106 69 136 119 32 11 0 7 33 33 0 0 34 22 0 0 0 0 30 139 207 258 367
0 0 0 0 0 0 0 0 0 0 0 0 0 0 0 0 0 0 28 60 0 136 181 96 26 9 14 0 0 6 68 37 21 41 49 16 0 0 0 0 51 138 175 327
0 0 0 0 0 0 0 0 0 0 0 0 0 0 0 0 0 0 3 199 65 52 150 137 71 34 0 0 0 0 27 51 30 21 44 25 15 0 0 0 0 0 76 197
0 0 0 0 0 0 0 0 0 0 0 0 0 0 0 0 0 0 0 0 0 0 0 8 22 34 1 1 0 19 22 52 16 6 19 9 0 0 0 12 0 0 0 3
0 0 0 0 0 0 0 0 0 0 0 0 0 0 0 0 0 0 0 0 0 0 0 0 0 0 0 1 0 18 15 15 29 29 9 5 3 0 0 0 0 0 0 0
0 0 0 0 0 0 0 0 0 0 0 0 0 0 0 0 0 0 0 0 0 0 0 0 0 0 0 0 7 35 1 19 3 44 60 36 2 0 0 0 0 0 0 0
0 0 0 0 0 0 0 0 0 0 0 0 0 0 0 0 0 0 0 0 0 0 0 0 0 0 0 0 0 0 20 0 21 38 64 141 85 20 0 0 0 0 0 0
0 0 0 0 0 0 0 0 0 0 0 0 0 0 0 0 0 0 0 0 0 0 0 0 0 0 0 0 0 0 0 51 3 41 78 62 150 152 102 29 0 0 0 0
0 0 0 0 0 0 0 0 0 0 0 0 0 0 0 0 0 0 0 0 0 0 0 0 0 0 0 0 0 0 0 27 52 0 88 113 96 138 186 171 43 3 0 0
0 0 0 0 0 0 0 0 0 0 0 0 0 0 0 0 0 0 0 0 0 0 0 0 0 0 0 0 0 0 0 0 39 82 72 327 201 173 188 232 299 166 10 0
0 0 0 0 0 0 0 0 0 0 0 0 0 0 0 0 0 0 0 0 0 0 0 0 0 0 0 0 0 0 0 0 0 53 170 20 222 521 405 305 340 368 269 126
0 0 0 0 0 0 0 0 0 0 0 0 0 1 1 1 0 0 0 0 0 0 0 0 0 0 0 0 0 0 0 0 0 0 38 94 0 26 698 686 492 460 460 414
0 0 0 0 0 0 0 0 0 0 0 0 0 0 0 0 0 0 0 0 0 0 0 0 0 0 0 0 0 0 0 0 1 0 0 0 38 26 11 512 953 741 644 610
0 0 0 0 0 0 0 0 0 0 0 0 1 0 0 2 0 0 0 0 0 1 0 0 0 0 0 0 0 0 0 0 0 0 0 0 0 7 96 164 86 969 931 917
0 0 0 0 0 0 0 0 0 0 0 0 2 2 3 3 1 0 0 0 3 2 4 0 0 0 0 0 0 0 0 0 0 0 0 0 0 0 12 180 318 221 450 800
0 0 0 0 0 0 0 0 0 0 0 0 4 0 0 1 1 4 7 3 4 0 2 2 2 1 0 1 0 0 0 5 0 0 0 0 0 0 0 98 445 811 451 552
0 0 0 0 0 0 0 0 0 0 0 0 0 0 5 5 2 1 4 2 2 4 0 1 0 0 0 0 1 0 0 6 0 0 0 0 0 0 0 0 6 458 784 691

GFSCGP_con_mlcape_069.txt.gz
CAPE
0 0 0 0 0 0 0 0 0 0 0 0 0 0 0 412 543 157 66 34 27 32 80 121 82 142 77 0 0 37 111 206 180 113 149 464 481 489 524 665 789 651 841 893
0 0 0 0 0 0 0 0 0 0 0 0 0 0 146 175 556 473 119 49 46 46 69 64 89 106 84 5 4 52 137 223 280 189 358 574 626 652 898 839 788 888 1032 839
0 0 0 0 0 0 0 0 0 0 0 0 18 8 172 294 605 724 471 106 41 28 49 46 64 62 80 56 23 12 110 252 421 319 318 453 511 548 643 708 719 890 1084 364
0 0 0 0 0 0 0 0 0 0 0 0 0 0 1 339 365 673 703 374 151 70 24 38 49 13 47 82 44 103 113 196 521 455 333 384 426 539 638 681 777 983 1188 887
0 0 0 0 0 0 0 0 0 0 0 0 0 0 0 49 444 455 663 598 245 149 54 22 20 11 5 60 87 125 113 173 402 533 434 478 525 576 736 797 941 983 1374 1031
0 0 0 0 0 0 0 0 0 0 0 0 0 0 0 0 0 0 344 621 440 240 114 75 30 55 23 55 68 93 64 75 302 388 427 421 449 492 484 572 798 970 1268 905
0 0 0 0 0 0 0 0 0 0 0 0 0 0 0 0 0 0 0 37 606 395 225 102 80 50 108 107 106 130 92 84 201 264 408 383 467 511 426 489 635 906 1048 1292
0 0 0 0 0 0 0 0 0 0 0 0 0 0 0 0 0 0 8 1 312 563 385 261 140 127 184 175 157 154 157 150 170 273 331 456 530 561 530 612 594 709 815 1040
0 0 0 0 0 0 0 0 0 0 0 0 0 0 0 0 0 0 96 108 190 512 547 413 263 189 223 244 221 190 208 205 191 224 338 376 532 496 491 566 619 586 715 905
0 0 0 0 0 0 0 0 0 0 0 0 0 0 0 0 0 0 70 96 46 243 613 590 404 195 205 271 282 225 242 237 216 217 273 287 245 509 511 544 535 626 670 886
0 0 0 0 0 0 0 0 0 0 0 0 0 0 0 0 0 0 0 1 158 390 284 538 516 318 203 182 194 216 258 296 296 293 295 227 145 213 386 357 460 728 734 863
0 0 0 0 0 0 0 0 0 0 0 0 0 0 0 0 0 0 0 0 0 4 45 292 425 233 199 152 153 152 229 293 276 345 360 288 181 174 233 185 223 486 766 824
0 0 0 0 0 0 0 0 0 0 0 0 0 0 0 0 0 0 0 0 0 0 0 0 0 0 100 198 140 64 123 248 243 250 219 253 313 306 245 227 176 157 398 808
0 0 0 0 0 0 0 0 0 0 0 0 0 0 0 0 0 0 0 0 0 0 0 0 0 0 0 0 39 127 131 103 200 236 145 165 130 215 329 507 366 206 135 197
0 0 0 0 0 0 0 0 0 0 0 0 0 0 0 0 0 0 0 0 0 0 0 0 0 0 0 0 0 1 23 38 155 274 314 309 347 195 110 203 470 430 320 195
0 0 0 0 0 0 0 0 0 0 0 0 0 0 0 0 0 0 0 0 0 0 0 0 0 0 0 0 0 0 0 5 50 69 358 447 496 500 415 252 161 379 402 329
0 0 0 0 0 0 0 0 0 0 0 0 0 0 0 0 0 0 0 0 0 0 0 0 0 0 0 0 0 0 0 3 84 133 81 312 495 578 481 423 361 322 313 368
0 0 0 0 0 0 0 0 0 0 0 0 0 0 0 0 0 0 0 0 0 0 0 0 0 0 0 0 0 0 0 0 0 245 105 205 422 524 655 603 497 403 356 311
0 0 0 0 0 0 0 0 0 0 0 0 0 0 0 0 0 0 0 0 0 0 0 0 0 0 0 0 0 0 0 0 0 6 274 454 442 493 543 692 744 692 530 440
0 0 0 0 0 0 0 0 0 0 0 0 0 0 0 0 0 0 0 0 0 0 0 0 0 0 0 0 0 0 0 0 0 0 3 84 371 243 903 715 713 782 864 604
0 0 0 0 0 0 0 0 0 0 0 0 0 0 0 0 0 0 0 0 0 0 0 0 0 0 0 0 0 0 0 0 0 0 4 0 0 155 139 362 1131 904 914 896
0 0 0 0 0 0 0 0 0 0 0 0 0 0 0 0 0 0 0 0 0 0 0 0 0 0 0 0 0 0 0 0 0 0 0 0 0 2 118 143 111 978 1035 980
0 0 0 0 0 0 0 0 0 0 0 0 0 0 0 0 0 0 0 0 0 1 0 1 0 0 0 0 0 0 0 0 0 0 0 0 0 0 2 80 152 183 577 1093
0 0 0 0 0 0 0 0 0 0 0 0 0 0 0 1 1 0 0 2 3 4 4 3 5 6 1 0 0 0 0 2 0 0 0 0 0 0 0 0 81 188 275 564
0 0 0 0 0 0 0 0 0 0 0 0 0 0 0 4 1 5 5 3 1 2 1 1 1 5 9 7 0 0 0 0 4 0 0 1 0 0 1 0 0 175 478 497
0 0 0 0 0 0 0 0 0 0 0 0 0 0 1 6 3 2 8 2 0 0 2 6 6 6 6 6 6 0 0 4 8 6 0 3 1 0 0 1 0 0 0 20

GFSCGP_con_mlcape_072.txt.gz
CAPE
0 0 0 0 0 0 0 0 9 0 109 75 3 0 62 437 630 399 29 178 172 50 36 32 218 269 294 75 0 0 121 397 403 473 404 535 635 752 829 1047 1269 1278 1250 1362
0 0 0 0 0 0 0 0 3 0 0 0 0 0 81 91 475 744 258 114 262 139 75 75 246 285 185 14 0 0 108 535 456 192 273 499 679 777 922 1047 1260 992 1302 1035
0 0 0 0 0 0 0 0 5 3 0 0 0 0 204 278 323 712 478 455 372 225 121 182 343 264 109 29 0 74 236 536 415 171 492 1100 1116 1147 865 1183 1090 1154 1553 1356
0 0 0 0 0 0 0 0 0 0 0 0 0 68 87 510 430 810 684 442 331 376 312 207 261 245 127 69 30 125 401 635 626 698 543 743 539 424 567 802 913 1266 1438 1201
0 0 0 0 0 0 7 0 0 0 0 0 0 0 50 137 472 409 743 742 445 222 168 311 249 277 186 156 174 233 568 697 701 910 577 862 862 516 833 804 1093 1301 1582 1253
0 0 0 0 0 0 4 0 0 0 0 0 0 0 0 2 0 0 588 899 749 548 209 227 308 276 236 193 263 296 507 901 972 1170 1306 943 739 813 445 750 924 705 1327 1175
0 0 0 0 1 0 0 0 0 0 0 0 0 0 0 0 0 0 11 3 945 738 594 419 380 341 259 184 271 363 563 882 958 1045 1160 1147 1110 1130 1022 880 304 967 1148 824
0 0 0 0 0 0 0 0 0 0 0 0 0 0 0 0 0 235 301 101 89 899 745 587 508 415 370 315 372 444 593 889 909 931 1076 1229 1167 975 900 793 418 752 776 945
0 0 0 0 0 0 0 0 0 0 0 0 0 0 0 0 0 25 143 286 362 885 884 756 633 559 471 491 459 582 636 1007 1009 914 1017 1221 1293 1090 594 664 877 725 717 871
0 0 0 0 0 0 0 0 0 0 0 0 0 0 0 0 0 0 7 118 416 631 873 984 825 699 568 600 582 671 721 976 1093 1045 1020 1069 1189 1245 1067 982 1082 790 625 1036
0 0 0 0 0 0 0 0 0 0 0 0 0 0 0 0 0 0 0 0 4 91 366 477 725 695 713 738 718 731 772 835 1063 1070 1008 982 979 1040 1169 1062 1125 1155 912 1027
0 0 0 0 0 0 0 0 0 0 0 0 0 0 0 0 0 0 0 0 0 0 0 0 0 2 82 653 716 740 806 803 906 961 1062 1065 1072 1012 829 1046 940 1015 1039 1052
0 0 0 0 0 0 0 0 0 0 0 0 0 0 0 0 0 0 0 0 0 0 0 0 0 0 0 0 46 630 686 719 677 892 942 948 991 972 909 796 980 871 969 1049
0 0 0 0 0 0 0 0 0 0 0 5 0 0 0 0 0 0 0 0 0 0 0 0 0 0 0 0 0 0 226 575 630 814 798 824 824 849 917 955 972 947 985 1001
0 0 0 0 0 0 0 0 0 0 0 0 0 0 0 0 0 0 0 0 0 0 0 0 0 0 0 0 0 0 1 16 322 599 859 811 872 884 915 953 1085 1148 1061 1041
0 0 0 0 0 0 0 0 0 0 0 0 0 0 0 0 0 0 0 0 0 0 0 0 0 0 0 0 0 0 0 0 0 409 495 729 999 1039 1106 1064 975 1106 1202 1227
0 0 0 0 0 0 0 0 0 0 0 0 0 0 0 0 0 0 0 0 0 0 0 0 0 0 0 0 0 0 0 0 0 0 460 505 626 1047 1167 1273 1251 1129 1020 1076
0 0 0 0 0 0 0 0 0 0 0 0 0 0 0 0 0 0 0 0 0 0 0 0 0 0 0 0 0 0 0 0 0 0 0 353 372 609 963 1145 1171 1224 1274 1199
0 0 0 0 0 0 0 0 0 0 0 0 0 0 0 0 0 0 0 0 0 0 0 0 0 0 0 0 0 0 0 0 0 0 0 0 18 796 859 889 1124 1163 1160 1246
0 0 0 0 0 0 0 0 0 0 0 0 0 0 0 0 0 0 0 0 0 0 0 0 0 0 0 0 0 0 0 0 0 0 0 0 7 1 329 719 997 976 1019 1087
0 1 0 0 0 0 0 0 0 0 0 0 0 0 0 0 0 0 0 0 0 0 0 0 0 0 0 0 0 0 0 0 0 0 0 0 0 0 0 72 658 786 1088 1065
0 0 1 1 2 0 0 0 0 0 0 0 0 0 0 0 0 0 0 0 0 0 0 0 0 0 0 0 0 0 0 0 0 0 0 0 0 0 0 1 6 544 774 1175
0 0 8 0 4 0 0 0 0 0 0 0 0 0 0 0 0 0 0 0 0 0 0 0 0 0 0 0 0 0 0 0 0 0 0 0 0 0 0 0 0 0 432 698
0 0 0 0 0 0 0 0 0 0 0 0 0 0 0 0 0 0 0 0 0 0 0 0 0 0 0 1 1 0 0 1 0 0 0 0 0 0 0 0 0 0 0 158
0 0 0 0 0 0 0 0 0 0 0 0 0 0 0 0 0 0 0 1 1 5 5 3 4 4 2 0 3 2 0 0 0 0 0 0 0 0 0 0 0 0 0 9
0 0 0 0 0 0 0 0 0 0 0 0 0 0 3 6 7 10 9 9 7 6 5 7 3 9 4 3 2 5 7 3 2 2 0 0 0 0 0 0 0 0 0 0

GFSCGP_con_mlcape_075.txt.gz
CAPE
0 0 0 0 0 0 0 0 29 75 92 130 172 468 417 744 388 429 123 82 153 71 117 115 38 175 142 95 1 109 185 486 419 467 304 422 459 913 786 1100 1322 1239 1304 1088
0 0 0 0 0 0 0 0 48 25 110 128 25 9 199 409 748 730 154 84 288 114 97 134 81 316 225 130 4 1 173 600 511 495 563 349 463 666 797 1267 1150 1261 1185 1196
0 0 0 0 0 0 0 5 86 29 0 23 12 28 91 52 277 972 489 255 373 224 110 104 155 260 325 135 1 0 146 593 511 301 532 716 846 964 1139 1181 873 1127 1290 1199
0 0 0 0 0 0 0 0 43 27 0 0 0 28 74 69 113 1076 630 488 416 380 159 100 142 270 256 100 0 0 174 544 576 381 418 808 540 512 329 782 992 1078 1386 1356
0 0 0 0 0 0 0 0 0 52 0 18 26 31 0 204 303 750 468 788 661 413 238 178 224 323 220 63 2 176 436 683 603 624 980 860 889 479 576 940 1363 1430 1433 1366
0 0 0 0 0 0 16 16 0 2 2 0 16 0 143 209 317 640 579 650 646 536 436 199 303 291 224 64 45 255 758 913 969 927 1121 1133 1018 1011 942 600 1108 942 821 1076
0 0 0 0 0 9 49 30 0 0 0 0 0 0 48 0 0 5 285 255 777 562 600 417 339 353 241 175 53 197 806 1276 1225 1211 1254 1168 1253 1105 1521 1176 733 667 1007 553
0 0 0 0 0 33 39 22 0 0 0 0 21 26 0 5 244 318 324 161 827 854 612 442 480 365 348 238 103 188 641 1293 1391 1337 1433 1616 1540 1054 715 1073 622 748 872 676
21 5 0 0 13 59 29 11 0 40 22 11 47 0 0 43 69 150 512 398 96 952 721 676 467 567 330 368 241 194 663 1247 1509 1402 1494 1672 1751 1495 619 954 993 950 944 684
0 2 0 0 0 0 0 5 9 29 8 25 19 0 1 17 3 45 29 133 224 207 90 159 241 573 455 393 385 243 469 1152 1484 1408 1443 1530 1646 1764 1414 951 1022 797 941 865
0 0 0 0 0 0 0 0 6 50 2 42 22 3 0 0 0 0 0 0 0 0 1 2 0 56 118 165 652 546 580 871 1387 1415 1346 1417 1525 1613 1705 1285 1196 1189 988 1193
0 0 0 0 0 0 0 0 0 6 0 0 18 0 7 1 0 0 0 0 0 0 0 0 3 3 0 0 7 300 797 804 1012 1198 1408 1403 1468 1511 1467 1589 1404 1426 1429 1118
0 0 2 0 0 0 0 0 0 1 4 33 4 0 0 0 0 0 0 0 0 0 0 0 0 0 1 0 0 7 207 539 796 986 1151 1311 1364 1475 1451 1386 1564 1518 1479 1380
0 0 0 0 0 0 0 0 0 0 0 6 48 4 0 0 0 0 0 0 0 0 0 0 0 0 0 0 1 0 0 75 336 666 1029 1188 1383 1424 1399 1519 1521 1470 1595 1483
2 0 0 0 0 0 0 0 0 0 0 16 67 17 0 0 0 0 0 0 0 0 0 0 0 0 0 0 0 0 0 1 0 155 882 1083 1324 1453 1298 1439 1637 1574 1623 1596
12 0 0 0 0 0 0 0 0 0 0 0 43 4 0 0 0 0 0 0 0 0 0 0 0 0 0 0 0 0 0 0 0 0 66 971 1133 1158 1456 1514 1584 1722 1800 1786
17 20 13 3 0 0 0 0 0 0 0 1 20 0 0 0 0 0 0 0 0 0 0 0 0 0 0 0 0 0 0 0 0 0 0 15 407 997 1024 1364 1501 1630 1730 1902
1 4 31 8 11 0 0 0 0 0 0 0 0 0 0 0 0 0 0 0 0 0 0 0 0 0 0 0 0 0 0 0 0 0 0 0 0 90 560 925 1114 1402 1643 1641
0 0 1 0 49 6 0 0 0 0 0 0 0 0 0 0 0 0 0 0 0 0 0 0 0 0 0 0 0 0 0 0 0 0 0 0 0 0 3 138 770 1262 1455 1443
0 0 0 0 0 12 2 0 0 0 0 0 0 0 0 0 0 0 0 0 0 0 0 0 0 0 0 0 0 0 0 0 0 0 0 0 0 0 0 0 0 341 1152 1597
0 0 0 1 0 17 0 0 0 0 0 0 0 0 0 0 0 0 0 0 0 0 0 0 0 0 0 0 0 0 0 0 0 0 0 0 0 0 0 0 0 2 223 980
19 17 16 8 13 8 0 0 0 0 0 0 0 0 0 0 0 0 0 0 0 0 0 0 0 0 0 0 0 0 0 0 0 0 0 0 0 0 0 0 0 0 7 95
0 7 18 17 42 4 0 0 0 0 0 0 0 0 0 0 0 0 0 0 0 0 0 0 0 0 0 0 0 0 0 0 0 0 0 0 0 0 0 0 0 0 0 0
0 0 0 0 0 0 0 0 0 0 0 0 0 0 0 0 0 0 0 0 0 0 0 0 0 0 0 0 0 0 0 0 0 0 0 0 0 0 0 0 0 0 0 0
0 2 0 0 0 0 0 0 0 0 0 0 0 0 0 0 0 0 0 0 1 0 0 0 0 0 1 1 0 1 0 0 0 0 0 0 0 0 0 0 0 0 0 0
55 15 5 1 10 4 0 0 0 0 0 0 0 0 0 0 0 0 3 8 0 6 2 0 0 1 1 0 1 1 3 4 2 0 0 0 0 0 0 0 0 0 0 0

GFSCGP_con_mlcape_078.txt.gz
CAPE
0 0 0 0 0 0 0 0 7 175 47 57 565 162 126 546 499 167 48 53 13 26 57 122 59 15 9 23 44 117 648 404 664 250 452 343 617 621 639 1032 1096 860 593 1253
0 0 0 0 0 0 0 0 0 3 19 427 103 44 389 592 467 244 159 50 16 26 57 126 42 106 98 93 43 171 596 644 622 326 687 462 808 820 650 863 1369 1384 1130 1161
0 0 0 0 0 0 0 0 11 64 0 92 61 311 374 672 522 617 359 73 39 80 42 92 77 181 131 139 58 193 551 692 393 711 429 717 174 404 48 203 1078 1307 1256 1164
0 0 0 0 0 0 0 0 11 21 11 32 58 71 199 362 640 745 228 59 123 221 18 72 140 165 181 82 139 233 500 712 302 768 403 319 667 593 846 1164 1213 1380 1127 1144
0 0 0 0 0 0 0 0 0 29 18 0 0 20 49 66 695 865 451 207 276 236 142 47 78 178 226 119 17 218 210 1073 323 610 669 565 444 481 501 903 770 991 1281 989
0 0 0 0 0 0 0 0 0 2 5 0 0 3 296 62 57 337 881 547 478 398 253 147 61 131 198 86 0 182 247 983 1048 409 802 702 667 336 129 654 31 1110 974 1188
0 0 0 0 0 0 0 10 0 0 1 5 0 5 150 46 1 10 652 997 299 539 515 309 141 239 303 33 15 343 707 1086 932 538 828 1218 1087 952 467 210 265 1098 946 1028
4 0 0 0 0 0 1 21 28 0 0 0 0 22 60 54 59 171 479 562 1015 691 492 315 223 402 359 68 112 595 1013 1170 1277 1251 1246 954 1159 950 938 394 1059 626 179 681
7 7 0 0 0 0 18 29 45 29 1 4 61 80 118 149 344 658 574 224 166 186 47 235 403 504 332 166 204 615 1173 1491 1579 1440 1637 1392 1228 941 997 502 866 932 430 730
0 0 4 0 0 0 1 2 25 2 0 5 72 64 118 121 211 310 44 0 0 4 5 24 44 247 95 478 126 682 1137 1485 1650 1643 1728 1841 1819 1699 1272 1399 931 1448 781 294
0 0 1 0 0 0 0 4 0 0 2 21 52 72 231 154 40 1 0 0 0 3 3 16 14 0 4 87 156 69 1282 1554 1823 1808 1794 1757 1805 1972 1645 1484 1369 771 1116 810
0 0 7 0 0 0 0 0 0 0 0 0 8 0 70 3 0 0 0 0 0 0 0 1 1 2 2 0 0 0 113 307 1549 1761 1755 1742 1914 1939 2064 1778 1571 1428 1069 1249
0 0 8 0 0 0 0 0 0 1 9 51 5 1 5 0 0 0 0 0 0 0 0 0 1 1 2 0 1 0 0 9 76 764 1736 1815 1683 1795 1955 2034 1907 1855 1772 1555
0 0 2 0 0 0 0 0 0 0 0 1 58 68 8 0 0 0 0 0 0 0 0 0 0 0 0 0 0 0 2 13 2 16 485 1058 1603 1624 1623 1821 1864 1716 1807 1847
0 0 0 0 0 0 0 0 0 0 0 39 224 190 3 0 0 0 0 0 0 0 0 0 0 0 0 0 0 0 0 0 0 0 35 83 97 1625 1903 1410 1450 1711 1793 1870
0 0 0 0 0 0 0 0 2 0 0 19 103 84 0 0 0 0 0 0 0 0 0 0 0 0 0 0 0 0 0 0 0 0 1 0 279 432 862 1031 1257 1729 1687 1649
1 0 0 0 0 0 0 0 0 0 0 272 202 21 0 0 0 0 0 0 0 0 0 0 0 0 0 0 0 0 0 0 0 0 0 0 0 0 241 957 1474 1599 1526 1596
8 36 11 8 0 0 0 0 0 0 8 113 79 1 0 0 0 0 0 0 0 0 0 0 0 0 0 0 0 0 0 0 0 0 0 0 0 0 3 122 218 738 1173 1291
0 0 5 0 0 0 0 0 0 0 10 42 2 0 0 0 0 0 0 0 0 0 0 0 0 0 0 0 0 0 0 0 0 0 0 0 0 0 0 6 2 15 388 1018
0 0 4 13 1 6 2 0 0 0 14 0 0 0 0 0 0 0 0 0 0 0 0 0 0 0 0 0 0 0 0 0 0 0 0 0 0 0 0 0 0 0 0 118
0 0 0 6 39 102 0 0 0 0 0 0 0 0 0 0 0 0 0 0 0 0 0 0 0 0 0 0 0 0 0 0 0 0 0 0 0 0 0 0 0 0 0 0
15 11 16 9 20 65 0 0 0 0 0 0 0 0 0 0 0 0 0 0 0 0 0 0 0 0 0 0 0 0 0 0 0 0 0 0 0 0 0 0 0 0 0 0
0 9 20 53 112 26 0 0 0 0 0 0 0 0 0 0 0 0 0 0 0 0 0 0 0 0 0 0 0 0 0 0 0 0 0 0 0 0 0 0 0 0 0 0
8 0 0 1 26 5 8 1 0 0 0 0 0 0 0 0 0 0 0 0 0 0 0 0 0 0 0 0 0 0 0 0 0 0 0 0 0 0 0 0 0 0 0 0
70 27 0 2 0 0 0 0 0 0 0 0 0 0 0 0 0 0 0 0 0 0 0 0 0 0 0 1 0 0 0 0 0 0 0 0 0 0 0 0 0 0 0 0
35 35 43 55 30 32 22 7 4 0 0 0 0 0 0 0 0 0 0 0 0 0 2 0 0 0 0 1 2 1 2 0 0 0 0 0 0 0 0 0 0 0 0 0

GFSCGP_con_mlcape_081.txt.gz
CAPE
0 0 0 0 0 0 0 0 0 116 84 107 59 0 0 219 249 207 65 21 13 24 55 47 8 0 0 29 12 270 198 202 0 7 459 293 319 38 322 446 157 759 482 1142
0 0 0 0 0 0 0 0 0 119 284 264 62 9 0 23 314 163 21 5 8 17 50 45 5 2 4 27 6 68 92 191 33 0 454 370 346 496 499 652 597 840 423 1190
0 0 0 0 0 0 0 0 0 81 68 44 201 118 43 86 355 126 40 37 11 21 29 23 0 0 4 2 6 69 141 266 152 0 323 392 446 243 91 247 548 1006 866 903
0 0 0 0 0 0 0 0 0 80 53 33 110 14 109 580 338 204 84 59 28 43 39 57 8 1 4 0 37 59 320 164 129 610 519 287 253 346 108 48 577 1034 1026 864
0 0 0 0 0 0 0 0 0 60 16 27 53 96 70 404 407 251 231 176 62 40 88 78 62 40 35 0 68 36 368 306 0 283 642 440 157 375 413 613 845 974 905 1022
0 0 0 0 0 0 0 0 0 3 1 10 0 52 115 439 272 412 167 148 203 132 193 79 84 89 60 24 72 91 308 309 107 104 530 588 225 13 21 413 361 739 937 808
0 0 0 0 0 0 0 0 0 0 21 3 8 7 214 334 459 351 69 0 104 239 209 91 81 165 158 80 148 131 151 469 312 145 408 410 396 94 0 253 329 615 792 981
0 0 0 0 0 0 0 0 0 0 0 0 15 53 98 104 171 19 0 103 251 376 319 154 136 229 222 93 119 147 76 316 556 497 286 348 478 280 459 299 147 561 478 762
0 0 0 0 0 0 0 0 0 4 0 0 219 220 36 0 2 0 27 93 176 196 131 331 156 176 263 103 59 161 189 263 739 530 383 531 647 641 413 139 54 583 30 433
0 0 0 0 0 0 0 0 0 0 23 29 270 227 131 223 23 0 0 0 0 3 52 138 29 22 180 69 127 395 550 518 705 1085 969 910 878 825 824 921 737 779 522 544
0 0 0 1 0 0 0 0 5 1 0 0 14 46 29 58 0 0 0 0 0 1 3 3 2 31 37 0 35 223 298 471 401 887 988 1049 1093 1011 693 895 864 935 575 340
0 0 0 0 0 0 0 13 12 3 0 1 63 13 0 0 0 0 0 0 0 2 3 0 4 0 0 0 0 1 4 45 70 294 670 853 1321 1379 1007 918 702 1343 689 634
0 0 0 0 0 0 0 0 0 0 0 3 4 3 0 0 0 0 0 0 0 0 1 0 0 1 1 0 0 0 0 36 19 66 162 650 1138 1432 1070 1167 1249 1446 995 588
0 0 0 0 0 0 0 0 0 0 0 38 12 2 0 0 0 0 0 0 0 0 0 0 0 0 2 4 1 3 2 3 5 0 6 154 288 558 841 1357 1776 1480 1554 1372
0 0 0 0 0 0 0 0 0 0 0 20 42 9 0 0 0 0 0 0 0 0 0 0 0 0 0 0 0 0 0 0 0 0 0 3 37 35 76 368 1018 1677 1786 1838
0 4 0 0 0 0 0 0 0 0 105 206 232 39 0 0 0 0 0 0 0 0 0 0 0 0 0 0 0 0 0 0 0 0 0 0 2 27 24 4 196 1116 1392 1687
2 0 0 0 0 0 0 0 0 74 221 179 47 0 0 0 0 0 0 0 0 0 0 0 0 0 0 0 0 0 0 0 0 0 0 0 0 0 1 54 75 305 1070 1315
0 0 0 0 0 0 0 0 0 0 85 45 0 0 0 0 0 0 0 0 0 0 0 0 0 0 0 0 0 0 0 0 0 0 0 0 0 0 0 15 43 35 216 643
0 0 0 0 0 0 0 0 0 0 0 149 16 0 0 0 0 0 0 0 0 0 0 0 0 0 0 0 0 0 0 0 0 0 0 0 0 0 0 0 0 0 0 13
0 0 0 0 0 0 0 0 0 0 0 186 37 0 0 0 0 0 0 0 0 0 0 0 0 0 0 0 0 0 0 0 0 0 0 0 0 0 0 0 0 0 0 0
0 0 0 0 12 16 0 0 0 0 8 23 3 0 0 0 0 0 0 0 0 0 0 0 0 0 0 0 0 0 0 0 0 0 0 0 0 0 0 0 0 0 0 0
0 0 0 0 0 8 0 0 0 0 0 0 0 0 0 0 0 0 0 0 0 0 0 0 0 0 0 0 0 0 0 0 0 0 0 0 0 0 0 0 0 0 0 0
0 1 0 24 0 0 0 0 0 0 0 0 0 0 0 0 0 0 0 0 0 0 0 0 0 0 0 0 0 0 0 0 0 0 0 0 0 0 0 0 0 0 0 0
0 0 0 0 32 15 0 0 0 0 0 0 0 0 0 0 0 0 0 0 0 0 0 0 0 0 0 0 0 0 0 0 0 0 0 0 0 0 0 0 0 0 0 0
4 14 0 0 0 0 0 0 0 0 0 0 0 0 0 0 0 0 0 0 0 0 0 0 0 0 0 0 0 0 0 0 0 0 0 0 0 0 0 0 0 0 0 0
0 18 2 0 43 82 11 1 0 0 0 0 0 0 0 0 0 0 0 0 0 0 0 0 0 0 0 0 0 0 0 0 0 0 0 0 0 0 0 0 0 0 0 0

GFSCGP_con_mlcape_084.txt.gz
CAPE
0 0 0 0 0 0 0 0 0 101 287 158 228 7 25 130 277 84 34 14 26 41 9 4 86 202 196 125 83 44 15 16 96 350 257 226 158 169 455 351 66 354 594 1051
0 0 0 0 0 0 0 0 0 345 243 92 157 98 74 175 270 210 59 20 19 21 8 2 31 100 89 112 164 103 27 0 0 204 435 362 281 142 343 486 383 405 406 862
0 0 0 0 0 0 0 0 0 51 329 117 71 55 30 0 12 226 117 38 7 29 15 0 0 14 25 22 174 178 162 31 0 10 402 448 373 215 354 395 566 696 660 842
0 0 0 0 0 0 0 0 0 23 63 49 138 0 28 0 19 235 66 48 16 32 30 0 0 2 35 40 159 244 206 104 42 87 197 429 333 250 211 267 525 877 947 885
0 0 0 0 0 0 0 0 0 0 21 78 11 6 31 26 273 157 73 57 16 23 50 5 0 0 19 79 123 163 184 137 160 383 249 328 360 401 329 247 278 909 951 899
0 0 0 0 0 0 0 0 1 37 50 32 30 20 53 129 222 220 186 142 72 45 37 41 4 15 2 80 115 180 205 208 173 406 561 546 291 250 399 332 409 760 915 850
0 0 0 0 0 0 0 0 0 14 25 5 1 20 15 221 334 274 253 214 130 78 109 28 38 19 30 97 138 213 200 175 170 72 402 562 430 143 261 441 424 643 709 771
0 0 0 0 0 0 0 0 0 0 14 0 0 0 32 248 489 412 264 139 7 62 192 97 95 69 85 67 151 177 262 204 211 167 183 482 451 201 17 151 448 421 639 601
0 0 0 0 0 0 0 0 0 0 0 0 73 61 35 45 0 8 5 31 26 59 252 262 77 145 152 90 165 168 274 282 220 210 199 386 475 362 240 414 257 195 599 512
0 0 0 0 0 0 0 0 0 0 0 0 31 44 0 38 6 0 0 0 3 10 41 74 62 114 196 92 139 224 224 332 329 298 328 347 423 491 181 314 189 56 369 413
0 0 0 0 0 0 0 0 0 0 0 0 0 35 50 16 0 0 0 0 0 1 1 1 0 32 145 93 80 166 208 197 209 369 401 550 414 604 558 391 688 700 583 488
0 0 0 0 0 0 0 0 0 0 6 29 21 10 0 0 0 0 0 0 0 1 1 2 2 1 54 19 37 95 132 32 64 94 206 376 353 413 691 787 957 840 775 501
0 0 0 0 0 0 0 0 0 0 0 5 0 0 0 0 0 0 0 0 0 1 0 0 1 0 0 1 28 61 23 20 16 5 69 148 199 303 374 600 738 836 779 701
0 0 0 0 0 0 0 0 0 0 0 0 0 0 1 0 0 0 0 0 0 0 0 0 0 0 1 1 0 0 7 17 36 12 0 13 93 116 187 365 499 577 668 775
0 0 0 0 0 0 0 0 0 0 0 0 0 0 0 0 0 0 0 0 0 0 0 0 0 0 0 0 2 2 0 0 0 6 19 2 26 20 51 108 2 33 439 896
0 0 0 0 0 0 0 0 0 7 25 0 0 0 0 0 0 0 0 0 0 0 0 0 0 0 0 0 0 0 0 0 0 0 0 1 11 4 0 7 9 0 13 575
0 0 0 0 0 0 0 0 0 97 191 1 0 0 0 0 0 0 0 0 0 0 0 0 0 0 0 0 0 0 0 0 0 0 0 0 0 0 0 11 40 1 2 180
0 0 0 0 0 0 0 0 0 8 83 45 0 0 0 0 0 0 0 0 0 0 0 0 0 0 0 0 0 0 0 0 0 0 0 0 0 0 0 0 0 0 9 43
0 0 0 0 0 0 0 0 0 0 7 1 0 0 0 0 0 0 0 0 0 0 0 0 0 0 0 0 0 0 0 0 0 0 0 0 0 0 0 0 0 0 0 0
0 0 0 0 0 0 0 0 0 0 0 1 0 0 0 0 0 0 0 0 0 0 0 0 0 0 0 0 0 0 0 0 0 0 0 0 0 0 0 0 0 0 0 0
0 0 0 0 0 0 0 0 0 0 0 0 0 0 0 0 0 0 0 0 0 0 0 0 0 0 0 0 0 0 0 0 0 0 0 0 0 0 0 0 0 0 0 0
0 0 0 0 0 0 0 0 0 0 0 0 0 0 0 0 0 0 0 0 0 0 0 0 0 0 0 0 0 0 0 0 0 0 0 0 0 0 0 0 0 0 0 0
0 0 0 0 0 0 0 0 0 0 0 0 0 0 0 0 0 0 0 0 0 0 0 0 0 0 0 0 0 0 0 0 0 0 0 0 0 0 0 0 0 0 0 0
0 0 0 0 0 0 0 0 0 0 0 0 0 0 0 0 0 0 0 0 0 0 0 0 0 0 0 0 0 0 0 0 0 0 0 0 0 0 0 0 0 0 0 0
0 0 0 0 0 0 0 0 0 0 0 0 0 0 0 0 0 0 0 0 0 0 0 0 0 0 0 0 0 0 0 0 0 0 0 0 0 0 0 0 0 0 0 0
0 0 0 0 0 0 0 0 0 0 0 0 0 0 0 0 0 0 0 0 0 0 0 0 0 0 0 0 0 0 0 0 0 0 0 0 0 0 0 0 0 0 0 0

GFSCGP_con_mlcape_087.txt.gz
CAPE
0 0 0 0 0 0 0 0 0 98 83 205 67 133 44 161 243 7 10 19 10 3 46 82 120 171 145 169 196 174 0 47 40 220 223 172 182 249 342 366 373 513 632 767
0 0 0 0 0 0 0 0 1 227 205 185 97 63 12 86 236 101 26 20 10 1 43 139 124 165 137 107 143 175 109 158 162 100 159 170 116 162 337 396 298 273 555 542
0 0 0 0 0 0 0 0 0 9 149 60 129 57 55 102 193 199 145 59 5 0 10 90 139 164 151 131 101 140 91 30 167 204 256 236 248 124 120 380 534 459 580 533
0 0 0 0 0 0 0 0 0 0 72 5 90 8 25 34 63 120 179 150 11 0 0 46 130 136 158 126 100 72 38 0 45 211 330 213 238 307 197 293 376 539 836 826
0 0 0 0 0 0 0 0 0 0 30 35 73 2 0 0 8 1 145 141 36 0 0 5 47 104 111 116 163 79 22 0 21 88 210 231 293 234 235 249 189 588 858 776
0 0 0 0 0 0 0 0 0 0 0 1 0 0 0 15 44 93 228 144 34 22 0 0 3 16 77 78 190 191 110 58 83 114 110 135 232 368 331 267 137 480 832 767
0 0 0 0 0 0 0 0 0 1 16 3 0 3 0 46 126 114 209 151 25 28 12 0 0 1 37 54 163 195 185 126 119 239 213 209 290 257 230 347 221 432 662 719
0 0 0 0 0 0 0 0 0 0 23 3 0 0 0 9 290 339 224 140 58 60 19 17 0 0 11 26 130 145 146 133 141 218 305 339 293 217 152 310 373 426 516 624
0 0 0 0 0 0 0 0 0 0 0 0 1 0 23 29 49 80 97 37 23 51 146 33 26 6 20 41 99 164 152 141 133 112 102 310 302 267 133 25 209 347 391 489
0 0 0 0 0 0 0 0 0 0 0 0 10 0 0 51 45 1 1 4 0 0 22 72 84 131 49 28 158 168 345 201 182 195 164 173 321 336 263 185 299 208 153 345
0 0 0 0 0 0 0 0 0 0 0 0 7 0 0 7 0 0 0 0 0 0 0 0 4 156 178 96 162 158 180 221 213 295 319 281 300 366 328 262 154 191 68 215
0 0 0 0 0 0 0 0 0 0 0 0 0 0 0 0 0 0 0 0 1 1 3 1 0 1 74 144 190 195 139 70 29 116 258 399 516 528 370 288 370 373 683 555
0 0 0 0 0 0 0 0 0 0 0 0 0 0 0 0 0 0 0 0 0 1 1 2 1 1 17 43 130 133 71 28 7 36 71 123 129 224 354 344 551 459 578 540
0 0 0 5 0 0 0 0 0 0 0 0 0 0 0 0 0 0 0 0 0 0 0 1 1 0 1 0 5 42 41 27 19 51 20 8 46 44 42 0 58 254 434 609
0 0 0 0 0 0 0 0 0 0 0 0 0 0 0 0 0 0 0 0 0 0 0 0 0 0 0 0 0 0 0 6 17 7 17 3 3 0 0 6 4 0 11 183
0 0 0 0 0 0 0 0 0 0 0 0 0 0 0 0 0 0 0 0 0 0 0 0 0 0 0 0 1 2 1 0 0 0 0 0 0 5 0 15 0 0 0 15
0 0 0 0 0 8 0 0 0 10 26 0 0 0 0 0 0 0 0 0 0 0 0 0 0 0 0 0 0 0 0 0 0 0 1 1 1 0 0 0 0 0 0 0
0 0 0 0 0 0 0 0 0 0 0 0 0 0 0 0 0 0 0 0 0 0 0 0 0 0 0 0 0 0 0 0 0 0 0 0 0 0 0 0 0 0 0 0
0 0 0 0 0 0 0 0 0 0 0 0 0 0 0 0 0 0 0 0 0 0 0 0 0 0 0 0 0 0 0 0 0 0 0 0 0 0 0 0 0 0 0 0
0 0 0 0 0 0 0 0 0 0 0 0 0 0 0 0 0 0 0 0 0 0 0 0 0 0 0 0 0 0 0 0 0 0 0 0 0 0 0 0 0 0 0 0
0 0 0 0 0 0 0 0 0 0 0 2 1 0 0 0 0 0 0 0 0 0 0 0 0 0 0 0 0 0 0 0 0 0 0 0 0 0 0 0 0 0 0 0
0 0 0 0 0 0 0 0 0 0 0 0 0 0 0 0 0 0 0 0 0 0 0 0 0 0 0 0 0 0 0 0 0 0 0 0 0 0 0 0 0 0 0 0
0 0 0 0 0 0 0 0 0 0 0 0 0 0 0 0 0 0 0 0 0 0 0 0 0 0 0 0 0 0 0 0 0 0 0 0 0 0 0 0 0 0 0 0
0 0 0 0 0 0 0 0 0 0 0 0 0 0 0 0 0 0 0 0 0 0 0 0 0 0 0 0 0 0 0 0 0 0 0 0 0 0 0 0 0 0 0 0
0 0 0 0 0 0 0 0 0 0 0 0 0 0 0 0 0 0 0 0 0 0 0 0 0 0 0 0 0 0 0 0 0 0 0 0 0 0 0 0 0 0 0 0
0 0 0 0 0 0 0 0 0 0 0 0 0 0 0 0 0 0 0 0 0 0 0 0 0 0 0 0 0 0 0 0 0 0 0 0 0 0 0 0 0 0 0 0

GFSCGP_con_mlcape_090.txt.gz
CAPE
0 0 0 0 0 0 0 0 0 93 152 114 81 66 17 93 107 5 32 59 93 110 108 57 42 117 170 189 211 181 164 96 56 95 139 167 191 230 331 345 333 558 668 665
0 0 0 0 0 0 0 0 13 228 273 158 13 43 82 116 175 5 0 3 22 70 85 79 54 66 148 154 178 172 105 10 78 132 108 134 143 180 319 328 293 321 483 606
0 0 0 0 0 0 0 0 1 31 136 126 1 18 114 89 164 140 22 0 0 0 18 73 84 71 106 124 106 184 0 0 27 146 159 151 131 106 203 318 376 308 524 421
0 0 0 0 0 0 0 0 0 0 127 48 66 2 32 53 72 113 94 48 1 0 14 97 100 101 109 107 103 147 20 58 0 106 141 150 153 193 97 189 341 434 641 510
0 0 0 0 0 0 0 0 0 0 16 76 35 9 0 35 41 90 107 123 3 0 10 81 92 109 129 114 75 79 106 19 54 145 192 178 145 170 197 203 229 384 703 715
0 0 0 0 0 0 0 0 0 0 0 2 26 2 0 0 8 50 83 112 56 0 1 68 120 111 110 85 68 57 97 39 0 91 138 168 162 231 201 241 180 217 711 610
0 0 0 0 0 0 0 0 0 0 0 0 0 0 0 1 5 1 35 104 97 0 0 9 86 39 74 73 101 81 55 25 0 0 65 96 122 239 263 244 174 139 550 680
0 0 0 0 0 0 0 0 0 0 0 0 0 0 0 0 15 154 18 72 25 9 0 0 15 21 6 58 132 122 107 38 13 79 86 76 89 206 193 174 301 234 405 594
0 0 0 0 0 0 0 0 0 0 0 0 0 0 0 4 60 143 130 106 47 20 3 0 0 28 3 1 38 98 125 86 64 99 196 213 183 164 168 96 110 246 366 448
0 0 0 0 0 0 0 0 0 0 0 0 2 0 0 7 58 53 51 36 8 4 9 16 17 7 0 2 29 110 111 99 77 76 181 263 260 209 167 103 62 87 213 272
0 0 0 0 0 0 0 0 0 0 0 0 0 0 0 12 28 31 0 0 0 0 8 10 20 36 2 7 46 117 255 219 93 12 103 127 187 256 271 221 175 136 150 59
0 0 0 0 0 0 0 0 0 0 0 0 0 0 0 0 0 0 0 1 0 0 0 0 3 19 92 49 94 132 154 104 97 57 149 234 319 330 352 296 244 282 256 240
0 0 0 0 0 0 0 0 0 0 0 0 0 0 0 0 0 0 0 1 2 1 1 1 1 7 18 88 156 95 76 68 71 19 46 69 136 239 276 281 239 231 382 410
0 0 0 0 0 0 0 0 0 0 0 0 0 0 3 0 0 0 0 0 0 0 0 0 1 1 1 15 53 73 56 34 13 7 28 24 13 0 0 0 0 52 186 443
0 0 0 0 0 0 0 0 0 0 0 0 0 0 0 0 0 0 0 0 0 0 0 0 0 0 1 0 4 33 33 29 36 46 41 23 3 0 0 0 0 0 0 25
0 0 0 0 0 0 0 0 0 15 0 0 0 0 0 0 0 0 0 0 0 0 0 0 0 1 1 2 1 1 0 0 6 1 0 3 0 5 1 0 0 0 0 0
0 0 0 0 0 8 0 0 0 0 0 0 0 0 0 0 0 0 0 0 0 0 0 0 0 0 0 0 0 1 1 0 0 1 1 1 0 0 0 0 0 0 0 0
0 0 0 0 0 0 0 0 0 0 0 0 0 0 0 0 0 0 0 0 0 0 0 0 0 0 0 0 0 0 0 0 0 0 0 0 0 0 0 0 0 0 0 0
0 0 0 0 0 0 0 0 0 0 0 0 0 0 0 0 0 0 0 0 0 0 0 0 0 0 0 0 0 0 0 0 0 0 0 0 0 0 0 0 0 0 0 0
0 0 0 0 0 0 0 0 0 0 0 0 0 0 0 0 14 0 0 0 0 0 0 0 0 0 0 0 0 0 0 0 0 0 0 0 0 0 0 0 0 0 0 0
0 0 0 0 0 0 0 0 0 0 0 0 0 1 0 0 0 0 0 0 0 0 0 0 0 0 0 0 0 0 0 0 0 0 0 0 0 0 0 0 0 0 0 0
0 0 0 0 0 0 0 0 0 0 0 0 0 0 0 0 0 0 0 0 0 0 0 0 0 0 0 0 0 0 0 0 0 0 0 0 0 0 0 0 0 0 0 0
0 0 0 0 0 0 0 0 0 0 0 0 0 0 0 0 0 0 0 0 0 0 0 0 0 0 0 0 0 0 0 0 0 0 0 0 0 0 0 0 0 0 0 0
0 0 0 0 0 0 0 0 0 0 0 0 0 0 0 0 0 0 0 0 0 0 0 0 0 0 0 0 0 0 0 0 0 0 0 0 0 0 0 0 0 0 0 0
0 0 0 0 0 0 0 0 0 0 0 0 0 0 0 0 0 0 0 0 0 0 0 0 0 0 0 0 0 0 0 0 0 0 0 0 0 0 0 0 0 0 0 0
0 0 0 0 0 0 0 0 0 0 0 0 0 0 0 0 0 0 0 0 0 0 0 0 0 0 0 0 0 0 0 0 0 0 0 0 0 0 0 0 0 0 0 0

GFSCGP_con_mlcape_093.txt.gz
CAPE
0 0 0 0 0 0 0 27 0 61 204 148 83 75 120 81 131 117 109 107 112 94 167 169 187 203 253 372 320 287 342 409 335 420 583 574 463 754 841 621 928 1023 1244 803
0 0 0 0 0 0 0 0 0 133 208 103 82 70 57 186 114 136 130 126 125 172 207 104 139 210 249 365 366 386 386 398 351 476 557 658 610 660 868 884 806 968 1070 1203
0 0 0 0 0 0 0 0 157 166 141 5 1 6 36 104 320 133 141 135 145 162 167 144 129 185 233 320 339 363 342 349 291 391 443 433 444 503 698 766 737 691 1007 986
0 0 0 0 0 0 0 0 0 55 125 44 23 0 3 86 146 227 104 84 100 150 171 201 218 230 182 230 358 386 343 245 187 386 450 252 324 256 513 752 931 927 973 931
0 0 0 0 0 0 0 0 0 119 123 86 0 0 2 44 144 184 235 121 34 32 127 194 225 266 231 254 260 354 291 204 133 235 445 410 206 647 594 525 774 923 1101 1137
0 0 0 0 0 0 0 0 0 20 33 1 68 26 0 14 136 176 277 288 116 6 50 157 98 206 242 239 246 275 324 207 305 244 356 413 344 164 497 562 596 753 1224 1320
0 0 0 0 0 0 0 0 0 0 0 0 1 84 18 57 43 85 136 279 282 39 22 185 150 163 216 201 150 81 225 314 232 301 438 483 486 532 288 375 627 557 1000 1098
0 0 0 0 0 0 0 0 0 0 0 0 0 0 0 10 21 110 182 221 353 161 33 90 212 128 76 66 121 111 203 262 311 189 216 425 459 501 619 487 697 658 614 739
0 0 0 0 0 0 0 0 0 0 0 0 3 37 0 49 152 260 219 204 290 210 50 70 269 264 103 34 50 287 236 279 234 268 231 275 303 288 555 561 634 781 835 921
0 0 0 0 0 0 0 0 0 0 0 0 2 0 0 34 73 158 225 157 178 204 60 32 126 259 225 26 15 64 86 300 291 233 267 186 210 244 536 385 313 365 680 789
0 0 0 0 0 0 0 0 0 0 0 0 0 0 38 129 115 152 94 62 49 42 35 29 51 98 102 37 8 43 50 252 219 108 127 244 254 307 390 595 630 506 507 414
0 0 0 0 0 0 0 0 0 0 0 0 4 2 0 23 146 104 83 61 27 15 7 6 18 55 102 80 31 13 65 247 267 204 101 97 278 248 258 530 638 660 558 495
0 0 0 0 0 0 0 0 0 0 0 0 0 1 0 0 3 1 20 8 1 1 0 0 14 66 175 132 79 26 19 121 104 38 32 23 114 283 410 609 731 660 627 424
0 0 2 0 0 0 0 0 0 0 0 0 0 0 0 4 26 0 0 2 1 1 2 6 6 42 93 216 223 222 113 134 94 61 47 43 77 143 251 302 310 411 633 817
0 0 0 0 0 0 0 0 0 0 0 0 0 0 6 46 21 0 1 0 0 1 0 0 1 2 6 37 96 108 91 63 41 51 49 40 18 92 148 167 119 110 164 286
0 0 0 0 0 0 0 0 68 0 0 0 0 0 0 13 0 0 1 0 0 0 0 0 1 3 2 1 1 0 1 10 94 94 68 21 18 0 0 33 2 6 47 81
0 0 0 1 0 3 0 0 0 0 0 0 0 2 0 0 0 0 0 0 0 0 0 0 1 0 0 1 1 1 1 1 1 1 1 0 1 3 0 0 0 0 0 0
0 0 0 0 0 0 0 0 0 0 0 0 0 0 0 0 0 0 0 0 0 0 0 0 1 3 1 1 0 0 0 0 0 0 0 0 0 0 0 0 0 0 0 0
0 0 0 0 0 0 0 0 0 0 0 0 0 0 0 0 0 0 0 0 0 0 0 0 0 0 0 0 0 0 0 0 0 0 0 0 0 0 0 0 0 0 0 0
0 0 0 0 0 0 0 0 0 0 0 0 1 8 3 0 116 43 0 0 0 0 0 0 0 0 0 0 0 0 0 0 0 0 0 0 0 0 0 0 0 0 0 0
0 0 0 0 0 0 0 0 0 0 0 0 1 4 0 18 27 0 0 0 0 0 0 0 0 0 0 0 0 0 0 0 0 0 0 0 0 0 0 0 0 0 0 0
0 0 0 0 0 0 0 0 0 0 0 0 0 0 0 0 0 0 0 0 0 0 0 0 0 0 0 0 0 0 0 0 0 0 0 0 0 0 0 0 0 0 0 0
0 0 0 0 0 0 0 0 0 0 0 0 0 1 0 0 0 0 0 0 0 0 0 0 0 0 0 0 0 0 0 0 0 0 0 0 0 0 0 0 0 0 0 0
0 0 0 0 0 0 0 0 0 0 0 0 0 0 0 0 0 0 0 0 0 0 0 0 0 0 0 0 0 0 0 0 0 0 0 0 0 0 0 0 0 0 0 0
0 0 0 0 0 0 0 0 0 0 0 0 0 0 0 0 0 0 0 0 0 0 0 0 0 0 0 0 0 0 0 0 0 0 0 0 0 0 0 0 0 0 0 0
0 0 0 0 0 0 0 0 0 0 0 0 0 0 0 0 0 0 0 0 0 0 0 0 0 0 0 0 0 0 0 0 0 0 0 0 0 0 0 0 0 0 0 0

GFSCGP_con_mlcape_096.txt.gz
CAPE
0 0 4 0 0 0 39 15 339 438 294 32 44 32 47 59 75 59 69 56 80 90 108 117 113 169 221 148 336 555 666 979 967 920 688 705 765 961 777 1042 1497 1498 1549 1437
0 0 0 13 0 0 32 185 234 379 480 200 20 73 141 149 94 152 59 51 83 93 133 185 200 215 274 404 274 453 738 1207 984 923 740 734 744 871 950 1050 1375 1429 1415 1582
0 0 5 0 0 0 0 145 72 298 208 147 98 33 44 25 88 144 100 98 125 164 215 240 258 249 297 474 645 634 772 1046 1038 800 840 737 1054 1049 1082 1212 1224 1186 1348 1398
0 0 0 0 0 0 0 0 195 476 184 14 26 0 1 0 30 99 145 173 138 227 259 314 294 321 325 408 713 779 905 1087 1080 1061 689 546 534 538 662 985 1064 1179 1305 1109
0 0 0 0 0 0 0 0 10 136 202 71 69 25 0 3 6 241 348 153 113 125 205 299 368 371 371 373 617 779 949 1093 705 1018 735 520 261 573 426 882 1311 1271 1359 1361
0 0 0 0 0 0 0 0 0 101 187 150 69 18 0 10 0 63 389 448 238 162 173 233 337 440 516 408 539 667 955 1094 923 908 921 850 654 398 444 700 856 1035 1148 1364
0 0 0 0 0 0 0 0 0 8 51 50 157 33 5 0 31 94 430 512 459 223 195 260 406 469 603 559 557 617 903 987 875 851 789 896 754 593 562 560 492 821 838 915
0 0 0 0 0 0 0 0 16 12 46 32 2 84 68 248 263 296 572 479 600 532 225 218 367 257 460 624 593 477 665 1013 968 843 958 1010 1056 291 510 624 641 755 915 720
0 0 0 0 0 0 0 0 0 7 14 44 30 12 158 171 282 514 604 442 513 705 430 286 461 577 628 529 505 192 148 619 994 845 841 883 986 881 488 624 558 779 765 1172
1 0 0 0 0 0 0 0 4 0 35 26 55 50 7 158 241 362 734 636 558 736 728 459 444 606 411 189 69 39 506 356 779 596 744 599 306 309 329 598 545 702 1112 1399
2 0 0 0 0 0 0 0 0 8 10 29 33 54 444 533 605 373 521 480 676 858 755 556 638 770 699 214 23 53 114 172 745 648 772 441 415 421 408 378 499 590 946 1285
0 2 11 0 0 0 0 0 0 0 0 7 26 169 341 624 717 569 334 283 226 294 268 360 554 626 660 538 90 37 7 63 96 734 487 276 450 438 407 410 468 723 622 915
3 0 31 1 0 0 0 0 0 0 0 15 23 68 423 551 660 562 560 406 189 100 71 103 222 315 498 282 114 64 75 135 384 249 270 266 106 195 340 532 513 711 891 698
0 27 49 22 0 1 0 0 0 0 0 3 30 146 305 499 471 310 299 124 45 46 40 36 66 230 288 413 505 346 164 114 125 98 24 40 41 52 127 421 665 759 925 919
13 66 74 25 1 0 1 0 0 0 0 11 33 43 328 614 642 434 135 95 50 92 104 34 18 31 60 269 674 558 409 296 320 160 76 77 80 61 46 239 585 742 858 920
36 18 47 28 17 0 47 71 8 0 0 2 11 36 72 592 640 491 249 34 108 108 69 9 2 2 7 13 109 336 327 217 305 164 109 49 93 68 89 145 294 388 418 524
0 32 8 32 19 62 28 19 28 41 53 79 9 213 218 334 325 343 310 84 108 113 46 3 5 3 3 1 1 0 0 0 12 6 2 2 5 14 0 0 1 60 141 167
2 200 58 32 33 35 44 0 0 23 22 31 75 102 184 239 271 294 299 269 59 14 0 1 4 4 3 2 1 2 1 1 0 0 0 1 2 3 3 0 0 0 5 90
90 113 71 64 26 28 0 0 0 0 9 12 87 159 250 285 130 63 59 100 58 40 1 0 0 2 2 1 1 0 0 0 0 0 0 0 0 0 0 0 0 0 1 12
0 0 6 0 47 51 1 0 0 0 0 11 88 136 141 132 311 209 7 18 6 0 1 4 0 0 0 0 0 0 0 0 0 0 0 0 0 0 0 0 0 0 0 1
3 0 1 8 0 0 0 0 0 0 7 3 118 164 137 208 15 33 1 0 0 0 0 0 0 0 0 0 0 0 0 0 0 0 0 0 0 0 0 0 0 0 0 0
0 0 0 0 0 0 0 0 0 0 0 0 82 158 138 28 0 0 0 0 0 0 0 0 0 0 0 0 0 0 0 0 0 0 0 0 0 0 0 0 0 0 0 0
30 0 51 0 0 0 0 0 0 0 0 0 10 77 119 33 0 0 0 0 0 0 0 0 0 0 0 0 0 0 0 0 0 0 0 0 0 0 0 0 0 0 0 0
4 0 1 0 0 0 0 0 0 0 0 0 0 74 88 44 10 0 0 0 0 0 0 0 0 0 0 0 0 0 0 0 0 0 0 0 0 0 0 0 0 0 0 0
0 0 0 0 0 7 0 0 0 0 0 0 0 24 83 87 33 10 0 0 0 0 0 0 0 0 0 0 0 0 0 0 0 0 0 0 0 0 0 0 0 0 0 0
0 0 0 0 0 0 0 0 0 0 0 0 0 0 8 65 67 32 11 0 0 0 0 0 0 0 0 0 0 0 0 0 0 0 0 0 0 0 0 0 0 0 0 0

GFSCGP_con_mlcape_099.txt.gz
CAPE
0 0 0 5 0 8 1 1 4 419 53 8 6 1 38 25 11 101 87 73 93 47 54 65 73 65 102 174 208 263 628 734 971 873 519 637 607 643 620 1421 1297 1569 1411 1613
0 0 0 40 24 5 43 30 9 17 75 3 6 3 22 9 4 45 152 94 105 93 79 96 91 88 66 130 236 384 652 1257 1212 872 964 898 627 703 739 1271 1222 1426 1397 1658
0 0 0 21 22 0 12 113 3 1 111 1 2 15 95 86 20 13 161 173 92 107 111 109 107 89 132 192 210 343 581 1238 1021 1016 840 1361 1230 1114 1108 1243 1213 1315 1415 1431
0 0 0 53 11 0 9 33 0 15 207 71 23 6 86 20 32 59 204 104 93 63 48 124 133 142 135 345 476 558 585 1064 1138 791 842 651 536 356 859 910 1024 1431 1359 1250
0 0 0 0 0 2 0 0 190 147 112 86 25 25 56 21 4 0 198 133 36 125 125 141 127 160 165 310 513 693 765 827 1054 944 1175 769 724 668 825 836 1172 993 1362 1310
0 0 0 0 0 5 18 0 7 241 225 57 35 27 43 9 0 6 44 92 172 120 113 226 128 226 227 315 664 653 1015 1016 960 1121 1118 995 862 855 614 475 758 816 1295 1126
0 0 0 0 0 0 19 0 26 49 64 78 25 31 9 39 0 33 39 136 187 78 112 125 179 218 305 357 612 833 1208 1291 1123 1111 864 649 874 1001 944 1042 452 471 600 767
0 0 0 0 0 0 0 3 35 45 29 46 54 79 21 10 8 28 149 320 515 308 116 169 255 216 408 508 502 753 1238 1260 1179 968 976 860 734 551 487 892 1017 611 616 483
0 0 0 0 0 0 0 9 34 4 12 3 3 170 257 82 66 224 346 310 546 541 246 246 313 514 819 794 781 929 1422 1326 1185 998 976 1149 1009 908 771 1044 1085 962 913 1155
11 9 0 0 0 0 0 1 39 28 11 16 37 72 48 287 336 346 385 743 692 602 605 313 597 700 362 294 1001 515 450 646 1070 1140 961 1073 974 799 608 680 800 811 624 925
17 13 4 0 0 0 0 0 10 52 33 17 62 139 112 364 542 668 838 904 742 757 899 863 645 832 1033 863 688 199 727 532 660 1189 977 959 830 654 736 596 479 588 691 1011
0 16 0 0 0 0 0 0 0 2 19 23 2 1 337 656 903 969 1060 1109 1299 1291 1247 1112 983 1019 876 657 163 75 24 48 142 734 578 962 555 701 714 553 566 479 894 961
25 2 17 17 1 0 0 0 0 0 1 20 27 245 410 1012 831 854 711 614 793 707 915 1080 1129 1251 1200 660 335 279 145 52 18 23 216 614 695 740 805 651 696 577 541 1021
0 19 6 54 6 1 0 0 0 0 1 0 6 470 653 845 833 781 668 444 324 296 270 380 593 812 817 901 816 495 308 131 98 235 126 135 121 103 112 128 330 615 680 813
7 15 45 12 14 9 0 0 0 0 5 26 29 154 574 787 797 779 593 447 303 302 212 116 125 231 427 843 861 600 342 297 369 286 271 204 57 65 48 68 208 375 797 692
130 135 69 65 2 10 15 20 3 0 0 0 23 178 8 714 991 870 698 657 625 436 345 118 37 41 50 172 979 933 832 511 418 658 485 337 284 383 298 241 88 371 498 668
36 47 87 3 27 16 54 68 44 31 36 31 114 286 185 632 886 950 752 582 521 401 205 98 32 22 8 5 53 272 520 661 738 466 350 281 228 194 254 228 143 161 202 343
5 0 0 133 44 28 58 22 31 112 92 79 226 233 388 495 672 800 718 690 551 254 159 91 6 5 3 2 1 2 2 32 71 46 26 20 23 19 8 31 1 0 26 186
6 15 177 23 0 18 62 46 57 68 98 91 201 251 384 548 722 696 658 638 447 213 169 67 2 4 3 1 0 1 2 1 0 3 1 0 0 0 1 1 22 19 55 135
3 17 165 92 5 141 0 0 0 0 186 75 106 331 502 538 569 574 416 391 328 167 19 0 2 1 2 2 0 0 0 0 0 0 0 0 0 0 0 1 0 1 0 35
27 34 10 98 19 0 1 0 0 0 106 99 165 195 408 612 619 379 405 217 126 47 0 0 0 0 0 0 0 0 0 0 0 0 0 0 0 0 0 0 0 0 0 5
195 164 92 118 10 52 0 0 2 106 44 96 217 296 374 268 250 267 227 104 73 16 2 3 1 0 0 0 0 0 0 0 0 0 0 0 0 0 0 0 0 0 0 0
99 82 222 137 314 70 36 152 75 45 36 27 95 151 248 184 199 229 182 79 26 3 0 0 0 0 0 0 0 0 0 0 0 0 0 0 0 0 0 0 0 0 0 0
10 243 41 113 45 1 0 0 0 0 0 0 7 70 123 126 176 227 183 107 37 1 0 0 0 0 0 0 0 0 0 0 0 0 0 0 0 0 0 0 0 0 0 0
3 86 2 55 109 54 16 0 0 0 0 0 0 14 82 137 160 223 213 157 91 12 0 0 0 0 0 0 0 0 0 0 0 0 0 0 0 0 0 0 0 0 0 0
0 0 0 0 3 11 0 0 0 0 0 0 0 0 51 172 218 227 222 203 142 72 1 0 0 0 0 0 0 0 0 0 0 0 0 0 0 0 0 0 0 0 0 0

GFSCGP_con_mlcape_102.txt.gz
CAPE
0 0 0 1 54 100 2 50 240 0 16 42 36 27 23 85 128 88 34 64 78 49 23 37 77 55 61 11 111 192 197 467 386 837 614 510 467 748 1079 762 1458 1662 1328 1346
0 0 0 0 87 188 14 7 24 6 0 14 4 1 0 19 30 43 76 6 89 52 43 46 68 59 22 26 117 140 838 945 953 760 734 791 426 793 1132 1567 1184 1147 1172 1505
0 0 0 0 5 24 103 72 1 0 0 1 2 0 31 23 25 24 32 18 45 67 38 52 73 46 36 153 340 190 335 1163 832 795 516 713 281 739 717 980 1342 1185 1132 1234
0 0 0 0 2 64 133 49 0 0 0 5 47 1 33 4 31 1 8 21 87 76 68 70 69 41 37 84 251 896 598 845 891 518 572 667 454 123 673 666 654 903 1282 1243
0 0 0 0 7 107 0 64 24 3 0 7 20 24 1 48 0 0 3 26 83 71 96 61 54 57 57 12 70 311 865 1015 746 812 560 586 380 587 774 657 606 629 1178 1184
0 0 0 0 0 1 1 98 77 0 0 13 26 108 30 34 9 4 0 23 82 61 48 17 97 47 276 212 341 679 798 866 1084 907 909 488 713 659 607 217 430 707 1030 1173
0 0 0 0 0 0 66 21 18 15 6 10 69 66 57 66 20 13 3 24 77 123 114 98 63 148 261 517 396 800 945 959 1068 834 725 725 794 785 821 333 528 462 474 359
0 0 0 0 0 0 50 90 4 11 14 51 44 54 114 35 0 0 8 52 59 75 138 95 152 54 478 650 983 1062 970 1191 1153 794 814 602 896 793 762 969 722 73 322 37
3 0 0 0 0 0 34 0 12 5 0 35 40 66 168 0 0 0 25 30 2 0 22 67 111 144 112 116 650 102 1077 995 1211 1051 932 877 1004 720 725 860 1284 1144 316 32
0 0 0 0 0 0 2 8 0 39 12 20 50 37 49 23 32 31 63 21 0 1 45 28 55 3 0 0 60 800 1102 1062 845 1079 1069 1114 1135 1085 877 949 948 776 215 7
0 1 0 2 0 0 0 0 0 4 101 1 62 53 186 189 109 201 337 300 192 347 290 74 55 219 7 0 330 1097 982 1005 1025 951 804 874 979 990 819 764 632 677 373 76
0 13 6 1 0 0 0 0 0 3 0 2 1 54 60 107 505 449 915 630 1101 593 303 91 14 4 538 781 917 742 405 248 223 630 778 874 362 536 654 382 331 485 635 889
0 0 0 2 2 0 0 0 0 0 0 0 18 143 10 14 932 1407 1578 1691 1272 1616 1126 466 844 896 966 865 726 760 366 216 137 392 158 100 589 621 733 470 105 275 636 651
0 0 0 5 38 13 0 0 0 0 0 0 0 308 714 666 1059 938 1127 1343 1031 1184 1196 1309 1206 1168 1064 1170 812 349 286 200 103 33 37 0 57 90 270 266 333 382 442 435
0 0 12 3 0 1 0 0 0 0 0 7 98 486 378 530 1023 896 667 646 644 524 477 827 545 705 1206 1178 909 771 651 392 208 151 111 81 61 13 6 48 59 80 53 321
18 44 76 10 2 3 0 1 0 0 0 14 49 475 327 290 280 622 512 399 465 435 382 231 224 349 367 752 1137 807 517 415 446 283 247 248 284 145 91 74 26 29 42 164
120 162 100 126 136 57 10 62 52 4 0 10 514 323 68 0 0 952 692 632 619 455 293 207 121 64 5 2 253 588 1100 738 631 617 548 359 302 415 355 234 147 72 32 84
66 124 5 35 0 33 20 9 22 67 31 627 575 247 270 289 990 962 921 711 504 328 185 101 21 2 2 2 1 12 127 374 368 327 384 297 278 132 108 85 37 0 21 59
19 115 0 1 0 0 96 8 8 87 152 127 243 267 463 496 956 935 871 736 425 285 230 69 4 3 4 1 2 1 0 0 3 2 4 10 16 7 0 10 44 44 2 4
90 165 108 58 40 21 12 0 0 5 0 10 9 369 482 582 628 758 541 481 378 48 0 0 2 3 1 1 2 1 1 0 0 0 0 0 0 0 0 0 0 0 0 67
27 22 0 0 2 0 0 0 0 0 22 27 230 367 653 857 860 565 366 261 234 118 0 0 0 0 0 0 0 0 0 0 0 0 0 0 0 0 0 0 0 0 0 0
273 170 135 104 26 44 10 1 6 85 65 175 383 511 526 457 785 528 292 131 78 6 0 0 0 0 0 0 0 0 0 0 0 0 0 0 0 0 0 0 0 0 0 0
98 212 306 258 129 127 103 198 155 191 113 89 187 183 361 314 445 446 250 137 0 4 3 2 0 0 0 0 0 0 0 0 0 0 0 0 0 0 0 0 0 0 0 0
1 126 152 136 274 43 0 31 22 6 0 0 29 81 134 212 275 383 331 186 61 3 2 0 0 0 0 0 0 0 0 0 0 0 0 0 0 0 0 0 0 0 0 0
63 125 0 23 87 27 0 0 0 0 0 0 0 10 109 171 244 387 394 254 120 43 2 1 0 0 0 0 0 0 0 0 0 0 0 0 0 0 0 0 0 0 0 0
0 4 5 10 176 167 25 19 2 0 0 0 0 0 32 107 175 273 360 260 121 72 14 1 0 0 0 0 0 0 0 0 0 0 0 0 0 0 0 0 0 0 0 0

GFSCGP_con_mlcape_105.txt.gz
CAPE
0 0 0 0 0 0 95 149 5 0 0 14 80 39 58 59 90 68 70 44 15 5 7 37 3 3 0 0 0 252 152 163 266 265 491 420 297 628 757 1057 1259 1246 1239 1577
0 0 0 0 21 156 62 7 3 1 0 0 0 48 26 31 52 78 41 38 32 12 4 38 14 12 0 0 78 220 209 223 431 557 638 564 453 750 745 924 1272 1543 950 1303
0 0 0 0 111 125 107 97 9 0 0 0 0 16 35 33 32 51 41 24 55 8 9 23 15 10 0 0 117 203 261 260 431 532 490 375 428 652 573 973 857 1029 1258 1157
0 0 0 0 4 84 37 83 11 1 0 0 8 3 31 12 23 34 25 10 65 7 33 31 46 49 8 0 33 142 304 241 329 614 414 304 247 289 475 444 554 692 927 1118
0 0 0 0 0 188 174 87 35 0 0 0 0 28 15 8 8 15 23 13 41 31 19 31 36 31 74 148 95 112 232 127 356 283 566 523 237 179 549 480 461 145 528 1186
0 0 0 0 18 225 182 49 17 4 0 0 1 5 37 2 1 0 0 0 12 50 45 31 87 65 149 217 405 212 217 197 774 601 523 350 400 467 417 361 379 604 548 626
0 0 0 0 59 235 72 47 5 4 0 0 0 7 3 55 30 0 0 6 16 37 63 54 67 57 97 131 425 630 424 317 662 524 327 342 745 479 339 90 239 576 538 363
0 0 0 0 0 132 129 55 9 1 11 1 47 19 0 44 31 59 1 7 12 18 48 36 17 52 152 159 288 328 707 441 491 886 774 763 649 494 626 686 399 159 186 168
0 0 3 0 0 0 2 29 65 36 0 0 13 7 30 137 90 23 9 3 7 25 33 57 94 58 162 357 711 823 688 555 718 526 655 310 765 687 635 812 627 506 242 9
0 0 0 1 0 0 0 2 0 48 0 0 22 4 31 38 29 17 0 4 30 32 32 61 124 105 131 92 482 889 891 653 711 761 815 859 825 788 904 789 302 342 129 68
5 0 0 8 7 0 0 0 3 1 0 6 15 28 0 5 23 54 31 8 0 0 3 30 80 82 51 43 157 288 411 761 819 1069 743 557 539 471 758 712 663 330 133 6
0 0 0 1 10 0 0 0 0 0 0 10 2 111 193 107 77 45 44 29 0 0 28 41 91 59 84 3 49 0 0 522 815 930 639 446 48 359 494 366 359 370 321 265
0 0 0 0 1 4 0 0 0 0 0 0 0 89 276 161 366 91 141 69 19 0 1 42 101 49 32 20 1 45 23 569 446 668 491 272 183 24 464 333 112 156 410 753
0 0 0 0 0 0 0 0 0 0 0 0 0 101 183 93 23 786 899 724 875 130 37 69 73 91 15 31 218 195 500 411 331 271 166 129 155 179 271 339 259 63 175 271
0 0 0 4 28 0 0 2 11 0 0 0 236 211 147 54 396 632 430 483 475 436 400 244 123 167 13 132 453 433 403 235 174 83 46 50 54 22 24 29 22 20 4 12
3 5 104 22 65 94 17 71 72 25 0 536 752 608 438 566 465 334 183 229 297 446 367 436 330 289 163 545 434 460 526 436 347 169 144 165 97 46 19 10 15 0 2 0
52 110 91 79 62 97 128 13 84 157 152 246 587 463 322 167 42 0 45 208 393 305 102 150 91 120 145 257 425 612 644 551 451 343 353 323 298 202 276 196 154 67 1 0
34 91 26 33 81 166 28 0 7 106 139 146 207 25 0 0 0 0 384 517 474 275 172 25 7 1 1 4 135 238 528 587 598 703 580 425 308 177 119 59 27 0 13 17
44 148 39 1 10 33 72 0 0 5 2 0 289 389 216 38 513 591 556 376 324 252 70 0 0 1 1 1 1 18 144 181 202 159 183 164 120 41 11 0 29 7 0 10
165 220 112 6 31 13 0 0 0 0 19 0 3 201 293 437 149 466 246 243 143 55 3 0 0 1 0 1 1 0 0 0 0 0 0 0 0 0 0 0 0 0 0 6
60 8 65 44 22 0 0 0 0 0 17 2 111 0 0 0 214 287 249 111 55 2 0 0 0 0 0 0 0 0 0 0 0 0 0 0 0 0 0 0 0 0 0 0
189 9 87 0 3 0 3 0 0 3 27 33 373 15 277 59 341 473 262 258 43 0 0 0 0 0 0 0 0 0 0 0 0 0 0 0 0 0 0 0 0 0 0 0
147 128 207 30 0 0 42 139 151 65 1 0 15 273 284 390 387 331 267 127 38 0 0 0 0 0 0 0 0 0 0 0 0 0 0 0 0 0 0 0 0 0 0 0
129 67 157 87 50 70 132 3 5 0 0 0 0 1 255 472 441 296 199 114 44 7 0 0 0 0 0 0 0 0 0 0 0 0 0 0 0 0 0 0 0 0 0 0
57 23 0 122 63 16 1 0 0 0 0 0 0 0 14 228 520 463 281 132 42 1 0 0 0 0 0 0 0 0 0 0 0 0 0 0 0 0 0 0 0 0 0 0
2 6 0 34 70 40 2 0 0 0 0 0 0 0 0 9 334 255 136 59 33 15 3 2 0 0 0 0 0 0 0 0 0 0 0 0 0 0 0 0 0 0 0 0

GFSCGP_con_mlcape_108.txt.gz
CAPE
0 0 0 0 0 0 0 9 15 3 0 1 15 0 55 81 62 33 17 18 4 20 5 12 110 39 41 37 52 0 60 322 194 388 423 210 427 778 775 1168 1107 985 1202 1409
0 0 0 0 0 0 30 45 5 0 0 0 1 0 0 52 48 30 30 3 15 48 19 21 14 0 2 64 76 0 67 148 161 352 447 412 466 751 634 692 1139 1144 927 1105
0 0 0 0 0 150 67 33 22 0 0 7 0 0 0 50 45 35 25 12 5 6 18 1 0 0 0 95 132 105 42 126 360 418 350 362 510 560 565 852 847 923 1113 1143
0 0 0 0 0 244 114 162 38 0 0 0 1 0 7 2 23 23 31 16 22 1 18 1 3 0 11 26 112 82 99 231 386 315 316 246 332 341 363 472 513 622 427 948
0 0 0 0 0 131 200 143 16 4 0 0 0 0 0 31 16 12 12 30 6 13 10 14 13 0 28 82 91 129 168 207 308 273 247 260 196 213 418 396 379 376 334 871
0 0 0 0 56 267 173 87 28 2 0 4 0 0 0 17 1 2 21 43 34 42 15 45 26 19 23 45 103 122 107 132 171 261 355 343 206 179 267 263 396 298 352 579
0 0 2 437 394 287 178 51 1 0 0 1 0 0 0 6 0 25 13 16 50 89 80 44 22 46 42 38 6 0 92 107 122 288 415 289 289 335 295 252 143 415 384 397
0 0 0 352 181 211 152 45 19 1 16 28 24 13 0 12 17 16 5 32 53 81 98 72 6 63 66 110 53 63 120 94 311 359 272 263 459 413 282 82 83 472 410 257
0 0 0 0 247 288 207 50 36 18 6 3 1 5 0 0 46 40 20 12 29 59 102 93 43 76 124 182 251 211 194 191 361 332 228 336 387 366 403 525 371 196 153 180
0 0 0 0 1 193 100 71 48 26 12 7 0 0 0 0 0 5 21 13 36 10 79 124 96 63 161 165 241 669 331 264 367 481 546 452 430 437 498 546 359 413 330 125
0 0 0 0 0 0 0 0 0 0 12 11 9 0 0 0 3 39 27 24 44 14 28 135 165 150 181 290 369 277 399 496 454 490 618 371 593 707 614 424 206 195 127 65
0 0 0 0 0 0 0 0 0 0 0 21 29 1 11 0 0 16 19 14 18 12 43 103 158 137 111 127 31 7 171 432 548 624 516 709 645 587 550 516 400 240 152 9
0 0 0 9 8 3 0 0 0 0 0 0 0 6 28 19 0 0 0 10 33 34 65 100 107 54 46 30 11 1 111 95 274 369 351 322 200 61 358 308 238 262 295 308
0 0 0 0 0 0 0 0 1 0 0 0 0 0 65 15 78 87 22 32 97 63 21 59 87 79 48 109 42 28 117 84 216 154 283 221 114 52 197 215 105 107 276 195
0 0 0 0 16 64 60 27 14 3 0 0 0 1 21 74 199 416 284 247 205 58 53 60 51 81 114 94 149 64 117 196 148 186 187 217 177 129 129 94 106 71 49 78
10 3 78 7 7 64 45 12 86 47 20 239 136 0 164 274 551 454 480 522 446 310 156 92 104 131 93 76 87 213 222 219 216 150 86 85 77 65 62 44 18 0 23 19
105 38 13 33 0 18 48 0 52 130 101 106 226 180 334 419 564 325 350 493 513 483 355 179 183 161 128 108 95 6 66 233 183 158 176 175 130 136 153 138 101 58 42 47
13 2 2 0 0 0 1 0 0 36 28 277 320 350 182 0 10 238 364 331 425 421 260 151 31 24 6 14 71 65 50 202 249 243 258 307 327 307 250 147 58 21 59 47
0 0 0 0 1 27 15 0 0 0 0 33 254 185 124 124 352 366 341 325 297 51 3 1 1 0 1 1 8 82 183 181 386 396 425 381 317 234 128 35 0 0 23 0
0 0 0 0 0 0 1 0 0 0 0 10 132 224 169 504 164 189 100 105 56 31 0 0 1 1 1 0 1 61 72 156 194 137 157 151 136 83 19 0 0 0 32 2
0 0 0 0 0 0 0 0 0 1 0 120 28 56 197 95 145 79 21 1 1 0 0 0 0 0 1 1 1 6 3 24 1 0 0 0 0 0 0 0 0 0 22 0
24 2 1 0 0 0 0 0 0 0 111 83 30 0 1 1 0 0 22 4 0 0 0 0 0 0 0 0 0 0 0 1 0 0 0 0 0 0 0 0 0 0 0 0
23 48 0 37 54 0 11 81 8 5 226 106 210 68 0 0 0 31 91 11 0 0 0 0 0 0 0 0 0 0 0 0 0 0 0 0 0 0 0 0 0 0 0 0
44 28 105 31 17 86 9 1 0 0 0 0 20 156 330 249 220 160 105 48 2 0 0 0 0 0 0 0 0 0 0 0 0 0 0 0 0 0 0 0 0 0 0 0
0 0 19 51 52 138 10 6 0 0 0 0 0 86 331 353 243 143 92 96 25 0 0 0 0 0 0 0 0 0 0 0 0 0 0 0 0 0 0 0 0 0 0 0
0 0 31 63 51 0 0 0 0 0 0 0 0 0 238 378 259 204 149 84 12 0 0 0 0 0 0 0 0 0 0 0 0 0 0 0 0 0 0 0 0 0 0 0

GFSCGP_con_mlcape_111.txt.gz
CAPE
0 0 0 0 0 0 0 8 32 3 1 24 0 4 36 54 43 35 11 0 0 0 43 67 83 40 7 0 0 68 213 234 278 287 307 398 455 515 574 868 918 1101 953 1044
0 0 0 0 0 0 1 10 27 4 0 0 3 21 0 0 53 56 21 0 0 0 23 84 82 55 16 0 0 20 122 177 220 252 187 317 450 613 547 746 902 953 921 1103
0 0 0 0 0 0 120 105 20 5 1 1 0 1 27 0 58 65 41 4 2 0 1 86 85 50 0 0 0 0 91 111 207 300 269 285 443 466 547 566 691 743 1005 1131
0 0 0 0 0 0 59 197 116 20 1 0 0 0 2 0 14 48 38 3 4 0 9 90 71 38 39 6 44 0 120 114 208 220 234 217 254 322 412 425 542 631 478 695
0 0 0 0 0 0 196 258 126 11 0 0 2 2 0 1 0 14 38 3 1 0 7 63 61 39 26 59 10 0 68 163 209 215 222 180 201 226 297 277 356 380 322 686
0 0 0 0 12 0 251 144 82 16 0 0 8 0 0 0 1 0 29 28 9 16 17 49 67 39 46 42 105 0 0 105 208 151 183 182 176 208 273 274 301 269 339 507
0 0 443 419 298 360 184 58 10 1 0 3 1 0 0 0 0 2 24 14 20 34 14 39 57 4 38 34 120 26 0 45 180 147 149 197 203 180 158 183 204 288 274 296
0 0 516 783 502 417 275 54 4 0 0 9 13 2 0 0 0 0 0 9 40 83 8 48 79 32 57 41 113 84 15 35 64 70 132 290 243 158 177 228 188 161 301 209
0 1 0 614 691 534 383 176 32 23 7 2 0 2 1 0 0 8 21 11 3 6 34 74 92 82 58 34 56 85 5 0 92 45 176 273 263 269 312 257 73 97 324 256
0 3 0 0 131 428 329 198 101 50 38 3 0 4 0 1 15 60 59 8 0 0 56 51 65 133 110 96 72 91 59 7 30 93 262 156 214 347 325 337 397 240 189 158
0 0 0 0 3 34 69 64 3 16 17 3 1 3 4 0 0 33 57 17 1 45 36 52 23 136 166 189 162 157 154 140 142 270 316 226 332 324 344 438 399 253 253 154
0 0 8 4 0 0 14 0 5 3 0 1 9 1 34 0 0 0 25 2 0 26 77 87 109 184 217 223 239 237 234 276 317 320 417 496 427 445 494 456 331 158 111 21
0 0 1 21 39 56 16 9 0 0 0 0 0 0 23 5 0 1 28 44 24 15 43 93 130 146 187 214 194 262 251 235 314 433 312 217 194 281 217 296 347 294 205 84
0 0 0 1 17 28 45 44 3 0 0 0 0 0 0 29 10 10 32 27 27 53 41 33 102 154 154 120 98 89 13 35 146 277 217 189 140 110 18 140 98 137 166 173
0 0 0 0 50 66 92 101 42 0 0 0 0 0 0 98 94 101 70 62 31 11 38 47 89 93 93 49 14 0 9 43 80 164 109 52 80 217 125 66 90 81 85 47
1 0 20 34 19 1 28 52 76 38 40 29 67 11 282 526 534 440 238 170 52 17 23 32 40 59 74 81 98 47 78 90 128 66 104 108 114 154 124 98 83 61 11 4
129 44 0 14 0 0 0 0 20 34 209 128 30 107 380 417 638 491 629 477 286 111 107 92 117 100 95 82 126 180 131 104 123 126 87 74 79 134 117 73 46 9 2 29
40 3 1 2 3 0 0 0 0 0 5 239 261 127 231 373 404 339 351 269 187 94 76 56 50 111 89 80 79 47 37 93 72 141 84 142 102 129 210 216 169 102 77 35
0 0 0 0 0 0 1 0 0 0 2 86 239 158 520 540 448 242 146 106 86 53 1 1 0 1 0 0 1 31 35 8 42 181 197 183 212 228 226 156 53 62 44 0
0 0 0 0 0 0 0 0 0 0 4 133 342 471 555 307 229 218 66 0 0 0 0 0 1 1 1 1 2 1 39 1 3 6 84 233 283 239 150 72 11 9 11 0
0 0 0 0 0 0 0 0 0 12 11 158 331 408 358 262 214 75 56 2 0 0 0 0 0 0 2 3 1 0 1 0 2 2 1 1 39 25 10 0 0 12 17 0
6 0 0 0 0 0 0 0 0 1 179 140 214 267 130 36 41 0 0 0 0 0 0 0 0 0 0 0 0 1 1 2 1 2 2 1 0 0 0 0 0 1 2 0
39 6 0 0 0 0 0 17 24 132 199 110 54 19 0 1 23 0 0 0 0 0 0 0 0 0 0 0 0 0 0 0 0 0 0 0 0 0 0 0 0 0 0 0
0 0 62 0 1 1 0 3 47 146 151 234 34 3 0 0 1 4 9 0 0 0 0 0 0 0 0 0 0 0 0 0 0 0 0 0 0 0 0 0 0 0 0 0
38 20 31 4 23 16 0 0 0 9 95 234 252 67 183 280 268 61 0 0 0 0 0 0 0 0 0 0 0 0 0 0 0 0 0 0 0 0 0 0 0 0 0 0
0 0 9 0 46 3 0 0 0 0 0 86 169 308 497 534 303 90 25 0 0 0 0 0 0 0 0 0 0 0 0 0 0 0 0 0 0 0 0 0 0 0 0 0

GFSCGP_con_mlcape_114.txt.gz
CAPE
0 0 0 0 0 0 0 9 4 31 21 1 9 0 40 4 19 4 10 0 23 76 84 82 56 27 7 54 92 173 285 348 264 260 228 336 366 456 279 562 757 707 766 854
0 0 0 0 0 0 0 14 48 19 13 0 0 0 22 3 16 17 14 1 4 34 70 90 68 36 21 73 64 119 183 221 250 188 170 278 306 421 473 685 821 795 800 889
0 0 0 0 0 0 0 17 58 30 3 0 0 0 0 11 2 29 24 0 0 2 0 72 84 27 21 9 3 10 122 151 182 186 197 296 358 400 471 609 672 862 869 805
0 0 0 0 0 0 0 152 81 37 8 0 0 0 0 0 4 1 70 0 0 0 36 80 94 44 20 0 0 0 64 90 152 173 157 207 282 339 304 381 380 626 618 829
0 0 0 0 0 0 0 298 159 63 1 0 0 0 0 5 0 0 17 0 2 0 19 63 77 82 35 0 0 0 0 43 128 171 174 147 180 218 239 322 363 485 388 524
0 0 0 0 0 0 243 258 114 46 5 0 3 0 0 0 0 0 2 4 0 0 2 74 103 107 64 1 0 0 0 50 108 126 122 139 143 150 221 251 212 294 291 367
0 0 48 234 72 342 284 133 1 28 0 0 0 0 0 4 0 0 7 17 0 0 3 39 70 63 46 17 0 0 0 68 95 114 131 130 133 148 184 188 196 242 241 290
0 0 79 534 323 121 275 126 23 9 0 1 25 0 0 0 0 0 15 33 9 0 0 10 16 50 57 61 75 89 0 42 105 145 120 118 125 134 135 146 164 211 198 237
0 0 3 326 674 497 407 203 73 95 27 45 33 1 0 0 0 0 13 26 14 8 0 0 20 46 69 84 81 99 85 33 67 125 116 121 187 165 108 124 169 115 120 228
0 0 0 1 414 614 546 366 187 75 5 22 3 1 0 0 0 0 17 26 22 9 0 9 28 32 43 84 96 102 113 39 0 115 87 65 153 199 174 233 233 120 140 187
0 0 0 0 35 253 209 314 107 15 42 1 0 0 0 0 0 24 16 35 26 2 16 14 8 24 23 61 73 108 126 78 67 113 106 108 211 151 271 250 252 241 197 157
0 0 8 15 0 0 94 276 148 46 0 0 0 0 32 4 6 32 28 44 25 29 7 34 29 59 38 80 87 94 119 122 113 133 132 197 209 231 298 301 269 148 131 80
0 0 7 20 1 25 33 112 0 0 0 0 0 0 107 26 4 29 60 52 29 16 18 26 46 56 82 135 145 145 140 135 160 154 196 305 275 350 352 333 222 164 106 52
0 0 0 0 4 19 93 190 88 0 0 0 0 0 0 107 58 92 95 76 42 29 36 79 105 93 53 101 186 202 180 197 200 214 240 251 264 313 127 33 24 55 74 93
0 0 0 0 131 65 47 132 171 1 0 0 0 0 116 230 210 83 80 110 76 35 74 98 132 137 65 102 156 162 174 165 211 242 250 223 144 157 104 86 36 30 64 52
15 11 93 31 33 57 0 2 138 201 209 55 52 116 485 563 591 248 170 109 138 103 87 100 83 120 127 187 160 85 48 0 73 203 164 137 48 42 56 94 108 35 56 79
114 220 46 0 9 8 0 0 45 86 171 242 38 193 352 548 489 318 336 145 105 157 126 139 137 139 85 107 96 58 31 7 14 62 66 65 72 96 91 107 88 77 58 24
54 107 37 7 3 0 0 0 0 17 45 331 376 350 543 450 309 270 251 263 181 133 67 56 92 112 47 90 176 122 78 72 40 43 65 66 76 47 65 86 85 61 25 13
0 36 7 1 0 0 12 6 0 0 55 221 325 411 519 467 160 100 62 42 67 39 14 5 1 2 1 7 41 78 102 79 65 44 51 76 53 43 86 92 66 56 38 1
0 0 0 0 0 0 5 0 0 0 36 255 346 579 762 228 180 128 22 1 0 0 0 1 2 2 1 2 1 26 46 109 40 55 87 89 90 103 55 24 14 2 11 0
0 0 0 0 0 0 0 0 3 0 13 344 558 696 602 287 200 158 32 0 0 0 0 0 0 1 1 3 1 0 0 0 0 0 0 0 36 62 18 2 0 3 0 0
0 0 0 0 0 0 0 0 24 3 130 432 494 465 299 159 137 64 0 0 0 0 0 0 0 0 1 2 1 1 1 2 1 1 0 0 0 1 1 0 4 7 0 0
4 0 0 0 0 0 0 0 0 104 285 236 440 254 167 68 34 0 0 0 0 0 0 0 0 0 0 0 0 0 1 0 0 1 1 1 2 1 0 0 0 12 0 0
0 0 7 0 0 0 1 51 219 421 245 167 147 30 54 23 1 0 0 0 0 0 0 0 0 0 0 0 0 0 0 0 0 0 0 0 0 0 0 0 0 0 0 0
0 0 0 0 0 0 2 12 40 165 306 326 166 33 25 11 12 0 0 0 0 0 0 0 0 0 0 0 0 0 0 0 0 0 0 0 0 0 0 0 0 0 0 0
0 0 1 0 0 1 6 0 21 39 224 273 183 148 166 254 47 1 0 0 0 0 0 0 0 0 0 0 0 0 0 0 0 0 0 0 0 0 0 0 0 0 0 0

GFSCGP_con_mlcape_117.txt.gz
CAPE
0 0 0 0 0 0 0 0 0 82 63 34 0 0 6 6 53 43 62 60 88 78 110 158 207 205 136 189 178 259 373 498 614 743 850 842 643 1015 963 689 1347 1018 1424 1631
0 0 0 0 0 0 0 0 15 67 63 15 10 0 0 0 10 28 1 0 72 84 94 119 201 164 183 140 188 246 291 493 615 690 701 805 935 1050 1003 1365 1455 1482 1328 1456
0 0 0 0 0 0 0 0 14 86 61 18 9 0 0 3 7 43 18 12 9 46 82 142 184 161 189 143 155 230 420 646 676 615 596 656 809 578 946 1181 1231 1345 1333 1533
0 0 0 0 0 0 0 0 74 138 57 28 13 0 0 0 0 16 24 44 16 1 72 141 187 153 174 139 175 238 429 564 531 518 606 402 508 632 719 656 1006 1345 1476 1293
0 0 0 0 0 0 0 176 249 191 90 52 14 6 0 0 4 0 0 8 45 0 11 64 161 161 159 137 134 194 314 411 473 477 547 291 273 612 572 757 475 1131 959 1338
0 0 0 0 0 0 159 193 179 124 114 16 43 22 7 0 0 0 0 0 3 13 0 43 119 154 148 103 123 109 167 276 413 482 436 423 189 254 510 376 668 737 966 950
0 0 0 0 0 184 162 72 0 1 5 3 115 58 2 0 0 0 0 0 2 1 0 30 65 137 117 63 113 123 108 166 299 385 427 429 429 390 255 226 358 447 443 576
0 0 0 90 49 27 177 27 0 0 18 75 133 15 22 0 0 0 0 0 33 5 0 3 53 94 93 39 112 109 77 116 257 330 377 436 482 446 492 523 450 641 725 739
0 0 0 270 336 350 403 62 58 188 164 41 171 126 46 24 0 0 0 2 41 2 0 4 45 45 63 38 108 64 66 99 221 326 369 418 485 442 468 521 473 567 638 715
0 0 0 3 486 451 603 325 216 114 30 28 128 93 52 48 14 0 2 0 47 33 0 16 57 59 64 76 137 133 155 129 160 305 383 424 452 509 571 535 515 613 464 394
0 0 0 0 67 137 330 349 329 285 235 88 69 26 83 66 55 31 9 14 28 43 2 9 27 45 68 132 143 157 196 248 189 242 342 385 359 388 584 583 758 738 592 560
0 0 0 0 0 0 244 359 306 256 31 241 181 1 45 51 82 127 108 77 56 52 2 6 20 19 36 98 156 167 217 214 265 327 337 268 317 476 541 672 729 570 576 509
0 0 0 16 19 28 90 251 61 0 55 186 43 0 96 138 91 177 198 220 118 68 48 36 30 12 52 114 139 170 201 197 264 316 315 285 238 435 542 726 678 625 559 396
0 0 0 3 62 102 273 290 406 22 4 42 5 0 0 116 237 144 249 193 145 110 124 112 60 20 2 80 197 168 168 147 221 320 307 330 365 605 645 752 403 221 220 256
0 0 0 3 151 166 124 157 337 256 100 0 1 38 259 417 459 410 249 198 165 128 130 124 130 165 56 87 151 261 175 162 307 255 366 384 413 545 656 340 179 74 89 171
16 53 68 130 204 69 136 26 274 546 551 485 313 321 548 589 857 464 306 288 258 209 215 182 164 132 103 94 97 153 281 238 243 465 486 352 363 352 298 175 125 90 100 51
72 221 184 128 146 59 2 27 11 298 389 414 417 593 479 560 631 570 435 370 369 268 270 268 203 107 84 27 47 67 108 141 121 171 235 216 119 149 29 28 98 123 77 58
20 68 188 177 116 7 17 33 83 113 94 392 573 544 483 444 350 309 418 315 265 174 171 196 223 120 63 89 94 61 62 53 55 17 28 88 74 7 5 39 82 87 67 56
0 70 111 54 42 8 88 62 35 25 98 236 501 605 557 391 256 256 153 138 100 62 21 6 8 17 28 82 265 167 153 133 106 74 83 76 46 51 52 12 11 65 78 36
0 0 146 15 2 1 36 33 10 5 15 181 742 687 755 556 289 93 63 49 41 4 3 1 2 2 5 1 23 158 148 145 141 99 74 66 76 94 58 48 36 18 29 4
19 17 4 8 30 2 0 4 15 8 29 414 886 697 994 522 463 108 2 1 2 4 1 1 1 0 2 2 1 39 35 26 20 17 14 1 0 29 45 35 18 3 0 2
4 2 0 0 0 0 0 0 65 22 125 661 902 689 530 127 78 19 2 6 2 3 1 2 1 2 2 2 1 1 0 3 2 1 1 0 0 0 0 0 4 0 1 3
14 0 9 0 0 0 0 0 0 5 511 568 702 441 147 106 5 8 18 27 8 2 1 1 0 0 1 1 0 0 1 0 1 2 2 1 1 0 0 0 2 11 3 4
0 0 65 0 4 10 10 10 20 310 392 615 648 450 210 44 58 73 40 20 1 0 0 0 0 0 0 0 0 0 0 0 0 0 1 0 0 0 0 0 1 1 2 1
2 0 33 0 19 90 115 111 169 331 502 425 398 366 245 119 20 5 7 6 0 0 0 0 0 0 0 0 0 0 0 0 0 0 0 0 0 0 0 0 0 0 0 0
0 30 2 0 34 149 204 38 216 386 657 419 243 252 348 140 10 0 0 0 0 0 0 0 0 0 0 0 0 0 0 0 0 0 0 0 0 0 0 0 0 0 0 0

GFSCGP_con_mlcape_120.txt.gz
CAPE
0 0 0 0 0 0 0 0 0 308 294 302 249 164 43 28 85 330 252 82 47 76 164 303 333 225 159 191 290 565 665 883 961 970 915 839 803 1120 1060 1026 1696 1587 1945 2165
0 0 0 0 0 0 0 0 5 211 223 156 118 78 18 100 21 182 312 110 53 67 109 245 329 295 202 183 316 543 683 899 1208 995 1023 904 724 974 912 1010 1324 1441 1912 1934
0 0 0 0 0 0 0 0 4 32 155 108 79 31 40 29 30 69 155 192 30 62 67 178 288 323 213 223 230 423 711 803 869 897 930 1067 1255 1052 1175 1271 1176 1268 1580 1729
0 0 0 0 0 0 0 0 0 166 56 66 97 13 129 57 89 57 26 91 20 1 41 75 207 309 242 244 296 289 587 821 695 827 895 734 405 547 835 1070 1053 1218 1336 1433
0 0 0 0 0 0 0 0 0 134 97 77 90 41 2 79 117 77 79 121 31 4 4 65 131 229 240 237 304 314 582 906 876 1172 925 486 429 450 645 786 1079 1069 1442 1493
0 0 0 0 0 0 0 0 96 236 81 18 34 99 36 189 24 21 13 50 56 97 8 48 118 179 245 232 274 301 489 836 624 1166 557 668 519 561 655 632 722 793 760 903
0 0 0 0 0 0 0 0 10 6 22 1 209 79 92 132 97 18 16 57 110 139 59 49 120 160 232 240 247 302 405 590 629 988 790 425 423 501 471 487 427 595 615 780
0 0 0 0 0 0 0 0 7 25 19 56 300 78 200 230 137 72 120 127 151 126 136 67 95 181 213 291 273 294 315 464 523 642 414 717 585 554 428 405 527 418 529 538
0 0 0 0 6 12 28 22 4 31 40 28 63 227 287 238 135 89 28 5 0 0 57 126 92 228 262 313 298 331 330 397 347 425 602 786 1012 728 572 848 827 531 704 831
0 0 0 1 135 142 199 207 67 4 19 59 66 189 163 111 213 148 69 12 8 5 33 138 118 236 346 339 336 395 388 318 309 321 495 622 704 975 975 986 1058 831 922 1046
0 0 2 1 37 45 136 160 188 130 217 100 173 200 164 119 231 272 164 94 42 92 73 117 147 261 368 361 341 481 446 301 322 352 454 478 547 678 898 820 1109 1208 1404 1346
0 0 8 28 10 0 1 114 127 142 47 191 103 10 326 230 322 351 287 100 68 86 65 47 200 336 345 352 364 591 535 492 453 390 537 723 688 775 589 791 926 1216 1315 1285
0 0 0 13 40 15 28 110 153 96 141 18 115 122 207 226 332 439 421 410 175 199 165 66 103 373 323 233 457 495 658 661 661 666 695 761 766 853 611 838 942 1219 1249 1259
0 0 0 1 8 5 93 188 317 241 107 87 66 69 4 364 97 614 520 507 341 240 226 100 31 80 82 69 106 513 662 718 789 758 800 785 772 700 747 934 1085 1141 1139 1158
0 0 0 0 0 49 49 171 278 319 235 131 59 94 170 742 559 970 637 596 496 462 396 276 46 17 46 44 83 445 732 847 876 858 805 848 809 761 933 800 1020 1064 920 760
7 3 0 0 23 86 149 139 131 420 549 598 600 473 1001 836 857 1178 738 617 482 494 382 413 288 85 50 35 38 110 669 1035 750 433 284 667 1011 993 961 710 946 856 572 465
12 71 110 70 103 160 167 137 189 230 393 476 449 624 836 996 819 754 972 784 688 624 573 386 412 301 257 85 61 61 393 752 479 229 297 722 873 642 673 773 818 372 117 290
4 21 37 70 106 81 180 299 171 128 197 329 293 653 950 789 541 523 715 667 445 502 613 623 556 420 114 78 93 52 70 174 486 254 244 341 254 369 541 152 85 44 81 103
0 2 36 129 85 75 146 263 243 229 105 24 76 962 893 709 724 365 155 64 91 54 40 57 76 120 170 86 52 57 38 24 45 97 89 138 70 125 108 36 17 41 62 91
0 25 48 42 101 43 428 440 291 169 84 196 358 1213 1095 1122 854 267 10 2 5 3 5 4 3 11 35 127 259 162 82 83 117 111 128 154 179 132 66 24 23 38 17 0
20 33 29 30 114 74 155 231 223 115 322 891 1222 1422 1266 1013 493 41 10 3 4 6 4 4 3 4 5 19 158 358 325 249 208 119 54 27 12 5 79 52 32 3 0 0
13 67 99 108 114 67 63 115 232 336 810 1111 1491 1414 796 418 239 107 87 44 23 7 3 4 3 4 4 3 0 1 15 8 11 12 2 1 1 2 5 2 0 1 1 0
85 62 173 101 245 378 260 150 214 204 891 1265 1263 1133 932 350 213 177 86 100 61 10 1 1 0 0 0 1 1 0 1 3 2 0 0 1 2 1 1 1 0 0 1 0
62 148 88 141 358 341 395 262 219 767 1112 1317 862 968 442 156 54 19 84 120 76 36 6 0 0 0 0 0 0 1 0 0 1 1 1 1 4 1 1 0 0 1 3 3
132 86 7 0 132 449 547 766 840 937 1326 1186 846 479 317 153 209 292 323 268 99 0 0 1 0 0 0 0 0 0 0 0 0 0 0 0 0 0 0 0 0 0 0 0
66 67 3 21 21 585 530 593 971 1148 1038 978 778 462 247 196 142 59 6 0 0 0 0 0 0 0 0 0 0 0 0 0 0 0 0 0 0 0 0 0 0 0 0 0

GFSCGP_con_mlcape_123.txt.gz
CAPE
0 0 0 0 0 0 0 21 10 166 525 532 330 231 428 90 20 161 184 193 58 102 108 138 103 41 16 75 215 369 584 1016 1180 916 740 913 786 934 814 1138 1439 1518 1351 1741
0 0 0 0 0 0 0 0 9 168 351 344 170 218 275 386 39 32 98 273 66 77 92 195 120 69 36 81 218 358 643 1055 1159 994 1112 1135 721 1022 842 1138 1187 1342 1510 1808
0 0 0 0 0 0 0 1 13 35 286 211 108 27 140 200 408 86 168 246 125 70 63 141 100 95 81 70 229 511 680 1122 1247 1195 1039 1409 1411 1542 911 993 1082 1210 1552 1705
0 0 0 0 0 0 0 0 0 1 31 38 199 4 164 234 194 299 92 387 259 72 75 74 109 196 87 202 174 419 711 915 1145 1334 1011 833 974 669 489 847 1316 1102 1337 1475
0 0 0 0 0 0 0 0 0 0 15 55 68 64 1 116 345 204 112 110 393 50 98 113 92 166 194 222 333 244 676 1060 983 1069 1073 1044 725 711 1089 881 1320 1258 1299 1416
0 0 0 0 0 0 0 0 0 6 47 45 10 39 31 105 319 290 176 189 176 84 66 99 116 188 316 218 414 357 572 917 1082 1042 886 1059 752 836 788 855 1144 923 897 1018
0 0 0 0 0 0 0 0 1 20 22 1 37 51 28 1 179 126 171 231 171 236 60 56 114 166 331 334 410 384 575 810 861 1239 823 954 1109 964 992 1262 661 641 645 655
0 0 0 0 0 0 0 0 5 13 40 125 55 41 92 30 82 66 92 149 204 214 100 45 104 159 447 420 407 488 550 754 738 955 826 933 828 825 666 972 612 579 594 514
0 0 0 0 0 0 2 0 0 16 13 11 104 50 87 5 18 119 119 169 52 92 157 103 116 108 409 417 442 646 626 704 643 791 813 842 946 754 482 905 974 1020 922 805
0 0 0 0 0 0 0 18 4 8 7 36 59 20 174 63 0 12 172 189 190 196 278 251 142 137 202 319 596 554 711 747 609 526 630 734 740 904 817 1146 1260 816 953 1412
0 0 2 0 0 5 28 4 0 15 26 21 65 196 10 5 19 329 212 156 114 54 67 149 79 147 228 426 531 668 749 747 630 465 601 654 727 901 971 985 1159 1209 1280 1382
0 0 2 11 0 7 49 6 37 52 46 0 0 41 0 87 0 413 309 101 133 138 106 155 209 153 279 549 620 726 773 733 588 449 685 752 764 693 731 876 753 1317 1304 1201
0 0 0 0 0 17 2 0 4 24 49 49 87 152 118 433 51 153 469 702 219 261 193 186 217 196 420 650 726 644 821 776 629 486 465 691 756 964 907 876 902 1040 1140 1386
0 0 0 0 0 0 0 3 13 23 55 6 43 86 16 7 374 221 291 693 359 298 281 144 101 95 555 758 964 826 926 910 834 732 473 505 561 653 765 871 1040 937 825 1215
0 0 0 0 0 0 0 11 0 18 68 53 10 6 104 0 179 579 688 758 608 106 248 79 18 11 312 755 922 925 1127 1122 1089 1064 1006 842 852 788 851 866 905 881 886 925
0 0 0 0 0 0 0 2 3 0 17 62 71 32 777 1159 1332 1124 929 857 685 641 495 422 311 176 85 269 442 268 503 1042 1270 1207 1233 1165 1204 1060 907 1124 1165 1241 1071 871
7 4 29 44 33 17 15 12 10 57 20 68 58 177 362 1030 1258 855 1082 1084 494 668 632 475 610 212 131 57 179 349 268 442 819 957 1065 979 948 1136 1173 937 941 1123 1020 773
0 4 3 0 6 23 39 0 2 1 14 0 0 160 991 1202 693 476 408 496 430 359 507 233 392 468 152 23 91 122 140 353 566 853 885 1058 1081 1104 1014 846 886 850 832 442
0 0 3 46 87 56 45 61 59 199 50 9 24 43 1474 1201 708 218 49 47 3 2 5 10 184 388 279 158 112 71 41 54 170 559 476 618 242 231 230 295 304 342 323 201
0 0 0 7 30 2 51 0 0 20 241 304 219 187 640 1309 1017 225 3 75 26 5 2 2 8 118 251 236 177 83 25 10 13 30 48 130 224 235 227 208 311 209 134 36
35 1 10 33 39 95 146 237 278 176 328 556 484 313 1449 1252 811 231 107 27 4 2 1 3 3 3 23 84 265 180 48 28 44 96 76 47 46 7 16 35 39 0 0 0
38 45 69 103 129 119 231 238 60 633 565 385 1554 1464 1345 989 650 340 235 143 45 3 4 3 2 3 3 2 32 47 22 58 65 50 54 30 8 23 7 4 0 0 0 0
1 118 45 157 156 431 431 153 473 451 724 1103 1503 1572 1310 872 720 523 357 249 53 1 2 1 2 1 2 2 1 0 2 1 2 1 1 1 1 0 6 0 0 1 0 0
36 96 0 135 166 244 351 419 313 666 1271 1675 1694 1400 1018 963 703 509 353 235 105 1 0 0 0 0 0 0 1 1 1 1 0 1 1 0 1 1 1 0 0 3 3 1
21 78 6 0 0 190 431 642 933 1243 1278 1387 1477 1116 912 741 574 513 383 185 35 26 0 0 0 0 0 0 0 0 0 0 0 0 0 0 0 0 0 0 2 0 0 0
86 23 16 56 41 403 563 862 1164 1301 1143 995 944 847 804 684 472 382 143 12 13 22 0 0 0 0 0 0 0 0 0 0 0 0 0 0 0 0 0 0 0 0 0 0